[[{"header":{"parameterUnit":"m.s-1","parameterCategory":1,"la1":30.6,"la2":29.2853,"lo1":-89.7004,"lo2":-87.6739,"dy":0.0162,"dx":0.0183,"nx":112,"ny":82,"refTime":"2023-09-28T00:00:00:Z","depth":0,"parameterNumber":2,"parameterNumberName":"U-component_of_WINDS"},"data":[0.0,0.0,0.0,0.0,0.0,0.0,0.0,0.0,0.0,0.0,0.0,0.0,0.0,0.0,0.0,0.0,0.0,0.0,0.0,0.0,0.0,0.0,0.0,0.0,0.0,0.0,0.0,0.0,0.0,0.0,0.0,0.0,0.0,0.0,0.0,0.0,0.0,0.0,0.0,0.0,0.0,0.0,0.0,0.0,0.0,0.0,0.0,0.0,0.0,0.0,0.0,0.0,0.0,0.0,0.0,0.0,0.0,0.0,0.0,0.0,0.0,0.0,0.0,0.0,0.0,0.0,0.0,0.0,0.0,0.0,0.0,0.0,0.0,0.0,0.0,0.0,0.0,0.0,0.0,0.0,0.0,0.0,0.0,0.0,0.0,0.0,0.0,0.0,0.0,0.0,1.0516,1.1595,1.2587,1.306,1.2861,1.2819,1.2829,1.2801,0.0,0.0,0.0,0.0,0.0,0.0,0.0,0.0,0.0,0.0,0.0,0.0,0.0,0.0,0.0,0.0,0.0,0.0,0.0,0.0,0.0,0.0,0.0,0.0,0.0,0.0,0.0,0.0,0.0,0.0,0.0,0.0,0.0,0.0,0.0,0.0,0.0,0.0,0.0,0.0,0.0,0.0,0.0,0.0,0.0,0.0,0.0,0.0,0.0,0.0,0.0,0.0,0.0,0.0,0.0,0.0,0.0,0.0,0.0,0.0,0.0,0.0,0.0,0.0,0.0,0.0,0.0,0.0,0.0,0.0,0.0,0.0,0.0,0.0,0.0,0.0,0.0,0.0,0.0,0.0,0.0,0.0,0.0,0.0,0.0,0.0,0.0,0.0,0.0,0.0,0.0,0.0,0.0,0.0,0.0,0.0,0.0,0.0,0.0,0.0,0.0,0.0,0.0,0.0,1.1043,1.2454,1.3032,1.3278,1.307,1.2689,1.2577,1.28,0.0,0.0,0.0,0.0,0.0,0.0,0.0,0.0,0.0,0.0,0.0,0.0,0.0,0.0,0.0,0.0,0.0,0.0,0.0,0.0,0.0,0.0,0.0,0.0,0.0,0.0,0.0,0.0,0.0,0.0,0.0,0.0,0.0,0.0,0.0,0.0,0.0,0.0,0.0,0.0,0.0,0.0,0.0,0.0,0.0,0.0,0.0,0.0,0.0,0.0,0.0,0.0,0.0,0.0,0.0,0.0,0.0,0.0,0.0,0.0,0.0,0.0,0.0,0.0,0.0,0.0,0.0,0.0,0.0,0.0,0.0,0.0,0.0,0.0,0.0,0.0,0.0,0.0,0.0,0.0,0.0,0.0,0.0,0.0,0.0,0.0,0.0,0.0,0.0,0.0,0.0,0.0,0.0,0.0,0.0,0.0,0.0,0.0,0.0,0.0,0.0,0.0,0.0,1.1226,1.1926,1.2861,1.3335,1.3448,1.3126,1.2682,1.2516,1.2776,1.1812,0.0,0.0,0.0,0.0,0.0,0.0,0.0,0.0,0.0,0.0,0.0,0.0,0.0,0.0,0.0,0.0,0.0,0.0,0.0,0.0,0.0,0.0,0.0,0.0,0.0,0.0,0.0,0.0,0.0,0.0,0.0,0.0,0.0,0.0,0.0,0.0,0.0,0.0,0.0,0.0,0.0,0.0,0.0,0.0,0.0,0.0,0.0,0.0,0.0,0.0,0.0,0.0,0.0,0.0,0.0,0.0,0.0,0.0,0.0,0.0,0.0,0.0,0.0,0.0,0.0,0.0,0.0,0.0,0.0,0.0,0.0,0.0,0.0,0.0,0.0,0.0,0.0,0.0,0.0,0.0,0.0,0.0,0.0,0.0,0.0,0.0,0.0,0.0,0.0,0.0,0.0,0.0,0.0,0.0,0.0,0.0,0.0,0.0,0.0,0.0,0.0,0.0,1.1881,1.2682,1.3126,1.3496,1.3553,1.3126,1.2682,1.2516,1.2776,1.1605,0.0,0.0,0.0,0.0,0.0,0.0,0.0,0.0,0.0,0.0,0.0,0.0,0.0,0.0,0.0,0.0,0.0,0.0,0.0,0.0,0.0,0.0,0.0,0.0,0.0,0.0,0.0,0.0,0.0,0.0,0.0,0.0,0.0,0.0,0.0,0.0,0.0,0.0,0.0,0.0,0.0,0.0,0.0,0.0,0.0,0.0,0.0,0.0,0.0,0.0,0.0,0.0,0.0,0.0,0.0,0.0,0.0,0.0,0.0,0.0,0.0,0.0,0.0,0.0,0.0,0.0,0.0,0.0,0.0,0.0,0.0,0.0,0.0,0.0,0.0,0.0,0.0,0.0,0.0,0.0,0.0,0.0,0.0,0.0,0.0,0.0,0.0,0.0,0.0,0.0,0.0,0.0,0.0,0.0,0.0,0.0,0.0,0.0,0.0,0.0,0.0,0.0,1.2219,1.2937,1.3354,1.3561,1.3553,1.3126,1.2682,1.2516,1.2776,1.1605,0.0,0.0,0.0,0.0,0.0,0.0,0.0,0.0,0.0,0.0,0.0,0.0,0.0,0.0,0.0,0.0,0.0,0.0,0.0,0.0,0.0,0.0,0.0,0.0,0.0,0.0,0.0,0.0,0.0,0.0,0.0,0.0,0.0,0.0,0.0,0.0,0.0,0.0,0.0,0.0,0.0,0.0,0.0,0.0,0.0,0.0,0.0,0.0,0.0,0.0,0.0,0.0,0.0,0.0,0.0,0.0,0.0,0.0,0.0,0.0,0.0,0.0,0.0,0.0,0.0,0.0,0.0,0.0,0.0,0.0,0.0,0.0,0.0,0.0,0.0,0.0,0.0,0.0,0.0,0.0,0.0,0.0,0.0,0.0,0.0,0.0,0.0,0.0,0.0,0.0,0.0,0.0,0.0,0.0,0.0,0.0,0.0,0.0,0.0,0.0,0.0,0.0,1.2323,1.2956,0.0,1.357,1.3553,1.3126,1.3125,1.2977,1.259,0.0,0.0,0.0,0.0,0.0,0.0,0.0,0.0,0.0,0.0,0.0,0.0,0.0,0.0,0.0,0.0,0.0,0.0,0.0,0.0,0.0,0.0,0.0,0.0,0.0,0.0,0.0,0.0,0.0,0.0,0.0,0.0,0.0,0.0,0.0,0.0,0.0,0.0,0.0,0.0,0.0,0.0,0.0,0.0,0.0,0.0,0.0,0.0,0.0,0.0,0.0,0.0,0.0,0.0,0.0,0.0,0.0,0.0,0.0,0.0,0.0,0.0,0.0,0.0,0.0,0.0,0.0,0.0,0.0,0.0,0.0,0.0,0.0,0.0,0.0,0.0,0.0,0.0,0.0,0.0,0.0,0.0,0.0,0.0,0.0,0.0,0.0,0.0,0.0,0.0,0.0,0.0,0.0,0.0,0.0,0.0,0.0,0.0,0.0,0.0,0.0,0.0,1.1796,1.2474,1.3051,0.0,1.3608,1.3553,1.3126,1.3402,1.3288,1.2568,0.0,0.0,0.0,0.0,0.0,0.0,0.0,0.0,0.0,0.0,0.0,0.0,0.0,0.0,0.0,0.0,0.0,0.0,0.0,0.0,0.0,0.0,0.0,0.0,0.0,0.0,0.0,0.0,0.0,0.0,0.0,0.0,0.0,0.0,0.0,0.0,0.0,0.0,0.0,0.0,0.0,0.0,0.0,0.0,0.0,0.0,0.0,0.0,0.0,0.0,0.0,0.0,0.0,0.0,0.0,0.0,0.0,0.0,0.0,0.0,0.0,0.0,0.0,0.0,0.0,0.0,0.0,0.0,0.0,0.0,0.0,0.0,0.0,0.0,0.0,0.0,0.0,0.0,0.0,0.0,0.0,0.0,0.0,0.0,0.0,0.0,0.0,0.0,0.0,0.0,0.0,0.0,0.0,0.0,0.0,0.0,0.0,0.0,0.0,0.0,0.0,0.0,1.2032,1.2682,1.3259,1.3676,1.3693,1.3553,1.3126,1.343,1.3377,0.0,0.0,0.0,0.0,0.0,0.0,0.0,0.0,0.0,0.0,0.0,0.0,0.0,0.0,0.0,0.0,0.0,0.0,0.0,0.0,0.0,0.0,0.0,0.0,0.0,0.0,0.0,0.0,0.0,0.0,0.0,0.0,0.0,0.0,0.0,0.0,0.0,0.0,0.0,0.0,0.0,0.0,0.0,0.0,0.0,0.0,0.0,0.0,0.0,0.0,0.0,0.0,0.0,0.0,0.0,0.0,0.0,0.0,0.0,0.0,0.0,0.0,0.0,0.0,0.0,0.0,0.0,0.0,0.0,0.0,0.0,0.0,0.0,0.0,0.0,0.0,0.0,0.0,0.0,0.0,0.0,0.0,0.0,0.0,0.0,0.0,0.0,0.0,0.0,0.0,0.0,0.0,0.0,0.0,0.0,0.0,0.0,0.0,0.0,0.0,0.0,0.0,0.0,1.223,1.2767,1.3259,1.3676,1.3693,1.3553,1.3126,1.3916,1.3975,1.2871,0.0,0.0,0.0,0.0,0.0,0.0,0.0,0.0,0.0,0.0,0.0,0.0,0.0,0.0,0.0,0.0,0.0,0.0,0.0,0.0,0.0,0.0,0.0,0.0,0.0,0.0,0.0,0.0,0.0,0.0,0.0,0.0,0.0,0.0,0.0,0.0,0.0,0.0,0.0,0.0,0.0,0.0,0.0,0.0,0.0,0.0,0.0,0.0,0.0,0.0,0.0,0.0,0.0,0.0,0.0,0.0,0.0,0.0,0.0,0.0,0.0,0.0,0.0,0.0,0.0,0.0,0.0,0.0,0.0,0.0,0.0,0.0,0.0,0.0,0.0,0.0,0.0,0.0,0.0,0.0,0.0,0.0,0.0,0.0,0.0,0.0,0.0,0.0,0.0,0.0,0.0,0.0,0.0,0.0,0.0,0.0,0.0,0.0,0.0,0.0,0.0,0.0,1.2305,1.2805,1.3259,1.3676,1.3693,1.3553,1.3126,1.4248,1.444,1.3232,0.0,0.0,0.0,0.0,0.0,0.0,0.0,0.0,0.0,0.0,0.0,0.0,0.0,0.0,0.0,0.0,0.0,0.0,0.0,0.0,0.0,0.0,0.0,0.0,0.0,0.0,0.0,0.0,0.0,0.0,0.0,0.0,0.0,0.0,0.0,0.0,0.0,0.0,0.0,0.0,0.0,0.0,0.0,0.0,0.0,0.0,0.0,0.0,0.0,0.0,0.0,0.0,0.0,0.0,0.0,0.0,0.0,0.0,0.0,0.0,0.0,0.0,0.0,0.0,0.0,0.0,0.0,0.0,0.0,0.0,0.0,0.0,0.0,0.0,0.0,0.0,0.0,0.0,0.0,0.0,0.0,0.0,0.0,0.0,0.0,0.0,0.0,0.0,0.0,0.0,0.0,0.0,0.0,0.0,0.0,0.0,0.0,0.0,0.0,0.0,0.0,0.0,1.2334,1.2852,1.3306,1.3674,1.3721,1.3551,1.3164,1.4386,1.4797,1.3824,0.0,0.0,0.0,0.0,0.0,0.0,0.0,0.0,0.0,0.0,0.0,0.0,0.0,0.0,0.0,0.0,0.0,0.0,0.0,0.0,0.0,0.0,0.0,0.0,0.0,0.0,0.0,0.0,0.0,0.0,0.0,0.0,0.0,0.0,0.0,0.0,0.0,0.0,0.0,0.0,0.0,0.0,0.0,0.0,0.0,0.0,0.0,0.0,0.0,0.0,0.0,0.0,0.0,0.0,0.0,0.0,0.0,0.0,0.0,0.0,1.0415,1.0143,0.0,0.0,0.0,0.0,0.0,0.0,0.0,0.0,0.0,0.0,0.0,0.0,0.0,0.0,0.0,0.0,0.0,0.0,0.0,0.0,0.0,0.0,0.0,0.0,0.0,0.0,0.0,0.0,0.0,0.0,0.0,0.0,0.0,0.0,0.0,0.0,0.0,0.0,0.0,0.0,1.2587,1.3231,1.3655,1.391,1.3939,1.3769,1.3353,1.4481,1.4943,1.4383,1.5206,0.0,0.0,0.0,0.0,0.0,0.0,0.0,0.0,0.0,0.0,0.0,0.0,0.0,0.0,0.0,0.0,0.0,0.0,0.0,0.0,0.0,0.0,0.0,0.0,0.0,0.0,0.0,0.0,0.0,0.0,0.0,0.0,0.0,0.0,0.0,0.0,0.0,0.0,0.0,0.0,0.0,0.0,0.0,0.0,0.0,0.0,0.0,0.0,0.0,0.0,0.0,0.0,0.0,0.0,0.0,0.0,0.0,0.0,0.0,1.1502,1.1234,0.0,0.0,0.0,0.0,0.0,0.0,0.0,0.0,0.0,0.0,0.0,0.0,0.0,0.0,0.0,0.0,0.0,0.0,0.0,0.0,0.0,0.0,0.0,0.0,0.0,0.0,0.0,0.0,0.0,0.0,0.0,0.0,0.0,0.0,0.0,0.0,0.0,0.0,0.0,0.0,1.2833,1.3392,1.3807,1.4118,1.4071,1.3882,1.3561,1.4834,1.5348,1.4737,1.5922,0.0,0.0,0.0,0.0,0.0,0.0,0.0,0.0,0.0,0.0,0.0,0.0,0.0,0.0,0.0,0.0,0.0,0.0,0.0,0.0,0.0,0.0,0.0,0.0,0.0,0.0,0.0,0.0,0.0,0.0,0.0,0.0,0.0,0.0,0.0,0.0,0.0,0.0,0.0,0.0,0.0,0.0,0.0,0.0,0.0,0.0,0.0,0.0,0.0,0.0,0.0,0.0,0.0,1.2308,1.2448,1.2436,1.2651,1.2758,1.2781,1.3245,1.2949,1.2184,1.2923,0.0,0.0,0.0,0.0,0.0,0.0,0.0,0.0,0.0,0.0,0.0,0.0,0.0,0.0,0.0,0.0,0.0,0.0,0.0,0.0,0.0,0.0,1.3313,1.4271,1.4995,1.5422,1.5135,0.0,0.0,0.0,0.0,0.0,0.0,0.0,0.0,0.0,0.0,0.0,1.3098,1.3572,1.3939,1.4326,1.4191,1.4014,1.3769,1.5213,1.5835,1.5149,1.6679,1.7287,0.0,0.0,0.0,0.0,0.0,0.0,0.0,0.0,0.0,0.0,0.0,0.0,0.0,0.0,0.0,0.0,0.0,0.0,0.0,0.0,0.0,0.0,0.0,0.0,0.0,0.0,0.0,0.0,0.0,0.0,0.0,0.0,0.7503,0.7334,0.0,0.0,0.0,0.0,0.0,0.0,0.0,0.0,0.0,0.0,0.0,0.0,0.0,1.1864,1.2238,1.2987,1.3018,1.2349,1.3984,1.4397,1.3716,1.4861,1.5403,1.5375,1.529,0.0,1.3373,1.2542,0.0,0.0,0.0,0.0,0.0,0.0,0.0,0.0,0.0,0.0,0.0,0.0,0.0,0.0,0.0,0.0,0.0,0.0,0.0,0.0,0.0,0.0,1.3471,1.3963,1.5033,1.5898,1.5783,1.5503,1.5186,1.4976,1.476,1.4518,0.0,0.0,0.0,0.0,0.0,0.0,1.3495,1.3967,1.4317,1.4531,1.4531,1.4361,1.4005,1.5438,1.6256,1.5955,1.6995,1.7555,1.7434,1.6887,0.0,0.0,0.0,0.0,0.0,0.0,0.0,0.0,0.0,0.0,0.0,0.0,0.0,0.0,0.0,0.0,0.0,0.0,0.0,0.0,0.0,0.0,0.0,0.0,0.0,0.0,0.0,0.0,0.0,0.5802,0.645,0.5486,0.7137,0.7702,0.0,0.0,0.0,0.0,0.0,0.0,0.0,0.0,0.0,1.1317,1.2994,1.4127,1.4544,1.5354,1.5691,1.5578,1.6382,1.6522,1.6068,1.6657,1.6849,1.6736,1.6651,1.624,1.5543,1.4531,1.4006,1.3823,0.0,0.0,0.0,0.0,1.2729,1.2418,1.3247,1.4287,1.5232,1.5038,0.0,0.0,0.0,0.0,0.0,0.0,0.0,1.2126,1.2387,1.3202,1.4143,1.4885,1.5605,1.6068,1.5941,1.5629,1.5473,1.5747,1.5406,1.5013,1.4874,1.3917,0.0,0.0,0.0,1.323,1.3948,1.4307,1.454,1.4748,1.4672,1.4531,1.4342,1.5726,1.651,1.629,1.756,1.8183,1.7836,1.7422,1.6994,0.0,0.0,0.0,0.0,0.0,0.0,0.0,0.0,0.0,0.0,0.0,0.0,0.0,0.0,0.0,0.0,0.0,0.0,0.0,0.0,0.0,0.0,0.0,0.0,0.0,0.0,0.0,0.0,0.5116,0.5776,0.411,0.6513,0.7284,0.0,0.0,0.0,0.0,0.0,0.0,0.8398,1.126,1.3018,1.3354,1.5067,1.6231,1.6683,1.7419,1.7856,1.7926,1.8182,1.8126,1.7768,1.795,1.7965,1.7823,1.7766,1.7624,1.7341,1.624,1.5313,1.456,1.4972,1.4519,1.3786,1.4441,1.4281,1.3899,1.4831,1.5606,1.6198,1.6072,1.6163,1.616,1.5607,0.0,0.0,0.0,0.0,1.2876,1.3174,1.3973,1.4877,1.5838,1.6223,1.6301,1.6167,1.5977,1.5905,1.6202,1.5714,1.5274,1.5274,1.4445,0.0,1.4259,1.3955,1.391,1.4477,1.4653,1.4814,1.4964,1.4842,1.471,1.4606,1.5773,1.6499,1.6492,1.7782,1.8437,1.8235,1.7876,1.7595,1.7313,0.0,0.0,0.0,0.0,0.0,0.0,0.0,0.0,0.0,0.0,0.0,0.0,0.0,0.0,0.0,0.0,0.0,0.0,0.0,0.0,0.0,0.0,0.0,0.0,0.0,0.0,0.0,0.0,0.0,0.444,0.6343,0.0,0.0,0.0,0.0,0.9452,0.8486,0.9166,1.2318,1.3058,1.4263,1.6232,1.7301,1.798,1.8286,1.8692,1.8496,1.7725,1.8759,1.881,1.8033,1.863,1.8951,1.8932,1.8733,1.8534,1.821,1.6486,1.5542,1.507,1.4165,1.3629,1.3436,1.3461,1.3579,1.3738,1.3845,1.5162,1.6688,1.6309,1.6933,1.7522,1.6166,1.5515,0.0,0.0,1.3427,1.3755,1.4553,1.5079,1.5533,1.6299,1.6613,1.6774,1.6764,1.6585,1.6223,1.5438,1.4934,1.4649,1.4649,0.0,1.4329,1.4557,1.4563,1.4691,1.5096,1.5162,1.5172,1.5181,1.5172,1.5012,1.4634,1.5302,1.6049,1.6741,1.7271,1.7954,1.8821,1.8303,1.7849,1.7595,1.7764,0.0,0.0,0.0,0.0,0.0,0.0,0.0,0.0,0.0,0.0,0.0,0.0,0.0,0.0,0.0,0.0,0.0,0.0,0.0,0.0,0.0,0.0,0.0,0.0,0.0,0.0,0.0,0.0,0.5613,0.8069,0.0,0.6955,0.7178,0.7574,0.796,0.917,1.0527,1.1995,1.4508,1.6319,1.7239,1.8292,1.8947,1.9155,1.9439,1.9475,1.9303,1.9821,1.9849,1.9404,1.9677,1.9703,1.9581,1.9505,1.9354,1.9127,1.8503,1.7675,1.6786,1.6414,1.6158,1.5985,1.5985,1.6031,1.6067,1.6102,1.6582,1.7157,1.6863,1.7053,1.7194,1.6059,1.5647,1.5381,1.458,1.4753,1.5319,1.5856,1.6419,1.6981,1.7378,1.751,1.7567,1.7567,1.7397,1.719,1.686,1.6075,1.5456,1.5456,1.5286,1.5172,1.5215,1.5233,1.5314,1.5422,1.5441,1.5441,1.5441,1.5319,1.5144,1.4993,1.5992,1.6699,1.699,1.8067,1.8774,1.8903,1.8544,1.8196,1.7862,1.7766,1.7817,0.0,0.0,0.0,0.0,0.0,0.0,0.0,0.0,0.0,0.0,0.0,0.0,0.0,0.0,0.0,0.0,0.0,0.0,0.0,0.0,0.0,0.0,0.0,0.0,0.0,0.5233,0.6727,0.6536,0.8901,0.9814,0.8021,0.8678,0.9187,0.9041,1.1134,1.2569,1.2946,1.569,1.7544,1.8119,1.882,1.9433,1.9911,2.0053,2.0151,2.0283,2.0424,2.0424,2.0283,2.0283,2.0217,2.0085,2.0085,2.0053,1.9911,1.9911,1.9344,1.8406,1.8229,1.8031,1.7842,1.7766,1.7832,1.7946,1.7946,1.7861,1.7719,1.7568,1.7483,1.7283,1.6651,1.6501,1.6397,1.5966,1.6212,1.6703,1.6927,1.734,1.7737,1.7954,1.801,1.801,1.801,1.7897,1.7793,1.7793,1.6991,1.6318,1.6318,1.6148,1.6015,1.6015,1.6015,1.6015,1.6015,1.5949,1.5882,1.5816,1.5574,1.5519,1.5709,1.6455,1.7097,1.7618,1.8541,1.9053,1.905,1.8798,1.8544,1.8316,1.8225,1.818,1.8216,0.0,0.0,0.0,0.0,0.0,0.0,0.0,0.0,0.0,0.0,0.0,0.0,0.0,0.0,0.0,0.0,0.0,0.0,0.0,0.0,0.0,0.0,0.0,0.3578,0.6838,0.8714,0.7261,0.8789,1.0005,1.0206,1.0349,1.1213,1.3118,1.4455,1.5302,1.5509,1.6567,1.7722,1.895,1.8995,1.95,2.0499,2.0499,2.0509,2.0509,2.0518,2.0518,2.0518,2.0518,2.0518,2.0518,2.0518,2.0509,2.0509,2.0509,2.0264,1.9873,1.925,1.8923,1.8714,1.8496,1.8676,1.9027,1.9027,1.8762,1.8421,1.8421,1.8248,1.8048,1.8038,1.8038,1.7991,1.7774,1.7718,1.7718,1.7718,1.7718,1.7765,1.7982,1.8029,1.8029,1.8029,1.8029,1.8029,1.8029,1.7529,1.7142,1.7133,1.6972,1.684,1.6831,1.6831,0.0,1.6812,1.6623,1.6415,1.6226,1.6078,1.6231,1.6801,1.6695,1.7223,1.8631,1.8548,1.875,1.9412,1.9105,1.8916,1.8916,1.9167,1.9166,1.8846,0.0,0.0,0.0,0.0,0.0,0.0,0.0,0.0,0.0,0.0,0.0,0.0,0.0,0.0,0.0,0.0,0.0,0.0,0.0,0.0,0.0,0.6109,0.791,0.7903,0.8972,1.0274,1.1598,1.2212,1.2721,1.3105,1.309,1.335,1.4079,1.4479,1.5054,1.5891,1.625,1.7177,1.895,1.8995,1.95,2.0499,2.0641,2.0716,2.0716,2.0922,2.0998,2.0998,2.0998,2.0998,2.0998,2.0998,2.0904,2.0716,2.0716,2.0556,2.0283,1.9845,1.9439,1.9117,1.9061,1.9108,1.9212,1.9212,1.9136,1.9042,1.9042,1.9004,1.8928,1.8768,1.8721,1.8673,1.8475,1.8418,1.8418,1.8418,1.8418,1.8428,1.8494,1.8503,1.8503,1.8503,1.8503,1.8503,1.8503,1.8278,1.7965,1.7774,1.7708,1.7614,1.7454,1.7312,0.0,1.7038,1.684,1.6698,1.6642,1.7223,1.7611,1.76,1.8484,1.9128,1.9341,1.956,1.9796,1.997,1.972,1.9466,1.9281,1.9331,1.9602,0.0,0.0,0.0,0.0,0.0,0.0,0.0,0.0,0.0,0.0,0.0,0.0,0.0,0.0,0.0,0.0,0.0,0.0,0.0,0.0,0.0,0.0,0.7724,1.0312,1.1333,1.1561,1.2212,1.379,1.4011,1.4153,1.4462,1.4407,1.4421,1.4545,1.4665,1.4968,1.5607,1.6085,1.7079,1.8646,1.9058,1.9788,2.0763,2.0922,2.0979,2.0979,2.1111,2.1214,2.1214,2.1214,2.1214,2.1214,2.1214,2.1093,2.0979,2.0979,2.0811,2.0584,0.0,0.0,0.0,0.0,1.976,1.9684,1.9684,1.9628,1.9543,1.9448,1.9363,1.9278,1.9146,1.9093,1.897,1.8771,1.8648,1.8582,1.8582,1.8582,1.86,1.8695,1.8714,1.8743,1.8828,1.8847,1.8847,1.8847,1.8743,0.0,1.8343,1.8123,1.7963,1.784,1.7727,1.7605,1.7482,1.7284,1.7339,1.7765,1.8257,1.8784,1.9407,2.0087,0.0,0.0,0.0,2.0735,2.057,2.0441,0.0,0.0,0.0,2.0544,2.1012,2.0931,0.0,0.0,2.0582,2.0651,0.0,0.0,0.0,0.0,0.0,0.0,0.0,0.0,0.0,0.0,0.0,0.0,0.0,0.0,0.0,0.0,0.9109,1.1677,1.3874,1.4041,1.4072,1.4516,1.464,1.4728,1.4741,1.4741,1.4741,1.4741,1.4916,1.5097,1.5204,1.6169,0.0,0.0,0.0,2.023,2.1244,2.1262,2.1262,2.129,2.129,2.129,2.129,2.129,2.129,2.129,2.129,2.129,2.1281,2.1262,2.1074,2.0811,2.0584,2.0499,2.0499,2.0499,2.0377,2.0217,2.0217,0.0,0.0,1.9741,1.9543,1.9392,1.9344,1.9203,1.9046,1.8806,1.8648,1.8496,1.8496,1.8487,1.8515,1.8705,1.8733,1.8771,1.897,1.9017,1.9017,1.9017,1.9017,1.8951,1.8711,1.8371,1.8076,1.8076,1.8057,1.8048,1.8048,1.7859,1.8077,1.898,1.913,0.0,2.1399,2.1515,2.1667,2.2111,2.189,2.1609,2.1323,2.1309,2.1309,2.1309,2.1596,2.1743,2.1783,2.2298,2.2592,2.2571,2.175,2.1657,0.0,0.0,0.0,0.0,0.0,0.0,0.0,0.0,0.0,0.0,0.0,0.0,0.0,0.0,0.0,0.6934,1.0712,1.3819,1.4512,1.4692,1.4787,1.4869,1.4909,1.497,1.5086,1.5099,1.5099,1.5099,1.5126,1.557,1.6546,1.682,1.7844,1.9846,1.9935,2.0492,2.1669,2.1499,2.1499,2.1669,2.1669,0.0,2.1669,2.1669,2.1669,2.1669,2.1669,2.1669,2.166,2.1527,2.1338,2.1064,2.0641,2.0499,2.0499,2.0499,2.0471,2.0433,2.0433,2.0415,2.0339,2.0166,2.0072,1.9977,1.9637,1.9514,0.0,1.9231,1.9146,1.9117,1.9117,1.9027,1.8904,1.8951,1.8837,1.8771,1.897,1.9017,1.9017,1.9017,1.9017,1.8951,1.8711,1.8607,1.856,1.856,1.8449,1.8335,1.8335,1.8116,1.8013,1.8201,1.9804,2.0902,2.1017,2.2438,2.3236,2.3052,2.2813,2.2612,2.2559,2.2559,2.2559,2.2559,2.2612,2.2773,2.2979,2.334,2.3634,2.3848,2.3193,2.3086,0.0,0.0,0.0,0.0,0.0,0.0,0.0,0.0,0.0,0.0,0.0,0.4409,0.4651,0.0,0.89,0.9216,1.2281,1.474,1.4985,1.5208,1.5248,1.5139,1.5147,1.5221,1.5289,1.5364,1.5411,1.5411,1.5881,1.644,1.7094,1.8105,1.9148,2.0246,2.0681,2.1204,2.1792,2.1688,2.1688,2.1792,2.1792,2.1792,2.1792,2.1792,2.1792,2.1792,2.1792,2.1792,2.1782,2.1678,2.1508,2.1347,2.1093,2.0941,2.0856,2.0856,2.0856,2.0837,2.0688,2.065,2.0594,2.0318,2.0223,2.0166,1.9855,1.9684,1.9581,1.9477,1.9373,1.9297,1.9297,1.9221,1.9136,1.9136,1.9061,1.9042,1.924,1.9288,1.9288,1.9288,1.9203,1.907,1.8862,1.878,1.8714,1.8714,1.8629,1.8553,1.8553,1.8428,1.8795,1.9947,2.1039,2.2102,2.3101,2.383,2.4022,2.3581,2.3442,2.3348,2.3348,2.3496,2.3527,2.3527,2.3857,2.376,2.3201,2.4159,2.4073,2.2967,2.3953,2.4422,0.0,0.0,0.0,0.0,0.0,0.0,0.0,0.5301,0.5711,0.6351,0.6753,0.7094,0.7385,0.9331,1.1009,1.1376,1.3505,1.5181,1.5418,1.5485,1.5506,1.5255,1.5337,1.5411,1.5411,1.552,1.5656,1.5877,1.6691,1.7373,1.7837,1.9434,2.0469,2.0696,2.1485,2.1867,2.1905,2.1867,2.1867,2.1905,2.1905,2.1905,2.1905,2.1905,2.1905,2.1905,2.1905,2.1886,2.1849,2.1849,2.1697,2.1517,2.1517,2.1394,2.1214,2.1214,2.1214,2.1195,2.097,2.0858,2.0792,2.0377,2.028,2.0188,1.9953,1.9798,1.9656,1.9656,1.9543,1.942,1.942,1.9392,1.9354,1.9354,1.9325,1.9354,1.9552,1.9599,1.9599,1.9599,1.9467,1.9278,1.9023,1.8885,1.8762,1.8724,1.8714,1.8714,1.8714,1.8714,1.9491,2.1583,2.1992,2.2996,2.5302,2.5039,2.4609,2.4178,2.4151,2.4151,2.4151,2.4342,2.4462,2.4462,2.4692,2.4275,2.32,2.4291,2.3799,2.1889,2.4287,2.5188,0.4361,0.475,0.5382,0.541,0.6177,0.6577,0.0,0.5976,0.6658,0.5599,0.6444,0.7405,0.7542,0.9714,1.1539,1.1556,1.3784,1.5526,1.556,1.5513,1.5425,1.5391,1.5398,1.5411,1.5411,1.5425,1.5869,1.6965,1.7117,1.8094,2.0095,2.0443,2.1065,2.2116,2.2102,2.2141,2.2321,2.2141,2.2141,2.2321,2.2321,2.2321,2.2321,2.2321,2.2321,2.2321,2.2321,2.2227,2.2056,2.2056,2.182,2.1517,2.1517,2.1394,2.1214,2.1214,2.1214,2.1214,2.1186,2.1177,2.1064,2.0594,2.0462,2.0386,2.0044,1.9858,1.9883,1.9883,1.9864,1.9855,1.9855,1.9713,1.9562,1.9562,1.9429,1.9354,1.9552,1.9599,1.9599,1.9599,1.9581,1.9439,1.9084,1.8998,1.8923,1.8743,1.8714,1.8714,1.8714,1.8714,1.9225,2.0616,2.1576,2.2996,2.5302,2.5451,2.5384,2.5317,2.5317,2.5317,2.5317,2.5344,2.5371,2.5371,2.4304,2.3676,2.3523,2.2819,2.2423,2.2362,2.4134,2.4654,0.3443,0.4683,0.5668,0.4666,0.5301,0.5897,0.4761,0.5661,0.6984,0.7884,0.9196,1.0544,1.1676,1.2814,1.3666,1.3868,1.4882,1.5648,1.5872,1.5764,1.5635,1.5554,1.5466,1.5411,1.5411,1.6097,1.6756,1.7258,1.8566,1.9737,2.0645,2.1338,2.1863,2.2387,2.2312,2.2302,2.2387,2.2312,2.2312,2.2387,2.2387,2.2387,2.2387,2.2387,2.2387,2.2387,2.2387,2.234,2.2264,2.2264,2.2094,2.182,2.1707,2.1527,2.1375,2.1262,2.1214,2.1214,2.1214,2.1214,2.1102,2.0631,2.0499,2.0424,2.0,1.9921,1.9921,1.9921,1.9921,1.9921,1.9921,1.9855,1.9788,1.9788,1.9722,1.9684,1.977,1.9788,1.9788,1.9788,1.9684,1.9543,1.9373,1.924,1.9089,1.8881,1.8749,1.8714,1.8714,1.9357,2.0607,2.2654,2.3918,2.4942,2.5721,2.5772,2.5692,2.5518,2.5518,2.5518,2.5518,2.5678,2.549,2.4814,2.4479,2.3604,2.2214,2.2558,2.2415,2.1858,2.4068,2.4947,0.2382,0.3912,0.5032,0.398,0.4662,0.5409,0.4752,0.5782,0.738,0.9208,1.0725,1.2232,1.4032,1.4394,1.4678,1.5417,1.5593,1.5868,1.6383,1.6328,1.6272,1.6358,1.625,1.615,1.615,1.6825,1.7557,1.8184,1.9779,2.0862,2.121,2.1995,2.2387,2.2387,2.2387,2.2387,2.2387,2.2387,2.2387,2.2387,2.2387,2.2387,2.2387,2.2387,2.2387,2.2387,2.2387,2.2387,2.2387,2.2387,2.2236,2.199,2.1849,2.1622,2.1413,2.1271,2.1214,2.1214,2.1214,2.1214,2.1102,2.0631,2.0499,2.0424,2.0,1.9921,1.9921,1.9921,1.9921,1.9921,1.9921,1.9921,1.9921,1.9921,1.9921,1.9921,1.9921,1.9921,1.9921,1.9921,1.9798,1.9666,1.9609,1.9477,1.9306,1.9099,1.9311,1.9371,1.9254,2.0647,2.2252,2.3776,2.5104,2.5661,2.51,2.5035,2.4944,2.4777,2.4764,2.4803,2.484,2.5084,2.4838,2.4021,2.386,2.2951,2.1212,2.2204,2.2279,2.1547,2.414,2.5434,0.1103,0.2016,0.2936,0.3837,0.4787,0.551,0.5642,0.6851,0.8038,0.83,0.9422,1.086,1.2465,1.2917,1.3571,1.5153,1.5655,1.6188,1.7125,1.7132,1.7353,1.8239,1.8204,1.8137,1.8137,1.7412,1.7882,2.0249,2.0478,2.1053,2.228,2.2387,2.2387,2.2387,2.2387,2.2387,2.2387,2.2387,2.2387,2.2387,2.2387,2.2387,2.2387,2.2387,2.2387,2.2387,2.2387,2.2387,2.2387,2.2387,2.216,2.1801,2.1792,2.1537,2.1224,2.1214,2.1214,2.1214,2.1214,2.1214,2.1102,2.0631,2.0499,2.0424,2.0,1.9921,1.9921,1.9921,1.9921,1.9921,1.9921,1.9921,1.9921,1.9921,1.9921,1.9921,1.9921,1.9921,1.9921,1.9921,1.9911,1.9845,1.9637,1.959,1.9524,1.9316,2.0437,2.1139,2.0618,2.2774,2.3896,2.2694,2.3776,2.4016,2.2723,2.2602,2.2694,2.2882,2.2894,2.3008,2.3271,2.3294,2.3253,2.3223,2.1985,2.1285,2.1212,2.1316,2.1474,2.1757,2.4483,2.5902,0.1942,0.2899,0.3872,0.4838,0.5433,0.5798,0.5899,0.6337,0.702,0.8042,0.8102,0.842,0.9899,1.0222,1.0509,1.1223,1.2811,1.44,1.5545,1.5856,1.6557,1.8215,1.7671,1.7756,1.9061,1.9044,1.929,2.0131,2.1012,2.1726,2.2189,2.2321,2.2387,2.2387,2.2529,2.2538,2.2397,2.2529,2.2529,2.2387,2.2387,2.2387,2.2387,2.2387,2.2387,2.2387,2.2387,2.2387,2.2387,2.2387,2.2312,2.2179,2.2038,2.1905,2.1745,2.1517,2.1413,2.1394,2.1262,2.1214,2.1121,2.0792,2.0697,2.0613,2.0198,2.0119,2.0091,1.9959,1.9921,1.9921,1.9921,1.9921,1.9921,1.9921,1.9921,1.9921,1.9921,1.9921,1.9921,1.9921,1.9921,1.9902,1.9826,1.9807,2.0034,2.0665,2.1085,2.1598,2.2306,2.3159,2.3487,2.3036,2.3364,2.3446,2.2995,2.2953,2.2988,2.3067,2.3067,2.3113,2.3204,2.3204,2.2824,2.2096,2.2571,2.2436,2.1734,2.2673,2.3611,2.4639,2.5573,2.6554,0.2853,0.3711,0.4503,0.5462,0.5823,0.597,0.603,0.6432,0.7064,0.7841,0.7881,0.7906,0.8554,0.8632,0.8646,0.866,1.084,1.2929,1.4166,1.5301,1.677,1.8779,1.8389,1.8598,2.0308,2.0557,2.0629,2.0629,2.1495,2.2085,2.2302,2.2434,2.2538,2.2605,2.2746,2.2756,2.2614,2.268,2.2605,2.2387,2.2387,2.2387,2.2387,2.2387,2.2387,2.2387,2.2387,2.2387,2.2387,2.2387,2.2349,2.2274,2.2141,2.2047,2.1952,2.1678,2.1584,2.1489,2.129,2.1214,2.1177,2.0913,2.0792,2.0735,2.0396,2.0292,2.0289,2.0037,2.0025,2.0025,2.0025,1.9934,1.994,2.0006,1.9924,1.9921,1.9921,1.9921,2.0051,2.0564,2.0641,2.0815,2.1292,2.0988,2.0895,2.1551,2.1619,2.1969,2.3132,2.3245,2.3049,2.2538,2.2496,2.2288,2.1839,2.1798,2.183,2.1904,2.1915,2.1958,2.2043,2.2001,2.1895,2.1702,2.2556,2.2931,2.274,2.4072,2.5239,2.6103,2.6613,2.7334,0.3744,0.4335,0.4712,0.5686,0.597,0.6027,0.6076,0.7121,0.7999,0.774,0.8525,0.9043,0.8169,0.7993,0.7816,0.7432,0.9721,1.1932,1.3073,1.5451,1.7887,1.9958,2.015,2.058,2.1696,2.1744,2.1754,2.182,2.182,2.2075,2.2661,2.2718,2.2812,2.3011,2.302,2.302,2.3011,2.2812,2.2605,2.2387,2.2387,2.2387,2.2387,2.2387,2.2387,2.2387,2.2387,2.2387,2.2387,2.2387,2.2274,2.2104,2.2104,2.199,2.182,2.1811,2.1678,2.1517,2.1319,2.1233,2.1177,2.0877,2.0811,2.0773,2.0575,2.0509,2.0471,2.0254,2.0233,2.0233,2.0233,2.0047,1.9996,2.0195,2.0135,2.0036,1.9949,1.9993,2.0419,2.1789,2.2049,2.2438,2.372,2.2805,2.1941,2.2028,2.1931,2.2193,2.3014,2.3155,2.2613,2.1285,2.1117,2.0665,1.941,1.9335,1.941,1.9599,1.9618,1.9746,1.9998,2.0008,2.0694,2.205,2.2179,2.2826,2.4115,2.5537,2.6231,2.6231,2.7588,2.8179,0.4191,0.4906,0.5582,0.5918,0.6003,0.6006,0.5976,0.6892,0.7628,0.7306,0.7554,0.7315,0.5606,0.5679,0.5626,0.4391,0.7838,1.1124,1.2364,1.52,1.7935,1.9958,1.9519,1.9815,2.1601,2.1067,2.1042,2.2168,2.2236,2.2302,2.2463,2.2765,2.2964,2.3011,2.3172,2.3121,2.3011,2.2812,2.2605,2.2387,2.2387,2.2387,2.2387,2.2387,2.2387,2.2387,2.2387,2.2387,2.2387,2.2387,2.2359,2.2312,2.2312,2.2283,2.2217,2.2075,2.1981,2.1905,2.1707,2.1433,2.1205,2.1102,2.1083,2.1045,2.0782,2.0716,2.0679,2.0471,2.0415,2.0415,2.0415,2.0377,2.0349,2.0405,2.1205,2.1699,2.0562,2.122,2.2098,2.2441,2.253,2.2618,2.2972,2.1734,2.1052,2.2137,2.1219,2.0905,2.215,2.2311,2.1754,2.0398,2.0226,2.0106,1.976,1.976,1.9779,1.9836,1.9836,2.0332,2.1412,2.1455,2.2093,2.3471,2.45,2.5239,2.558,2.6995,2.7672,2.7672,2.801,2.8179,0.4909,0.5475,0.6115,0.6883,0.6945,0.6965,0.7502,0.8413,0.9027,0.8552,0.8865,0.8327,0.5487,0.5927,0.598,0.3733,0.7435,1.0941,1.1956,1.4754,1.7314,1.8996,1.9175,1.9814,2.145,2.149,2.1778,2.2593,2.2501,2.2519,2.2794,2.303,2.319,2.3285,2.3347,2.3272,2.3011,2.2897,2.269,2.2387,2.2387,2.2387,2.2387,2.2387,2.2387,2.2387,2.2387,2.2387,2.2387,2.2387,2.2387,2.2387,2.2387,2.2387,2.2378,2.2264,2.217,2.2075,2.1962,2.1716,2.147,2.1375,2.129,2.1149,2.1026,2.0989,2.0941,2.0688,2.0631,2.0631,2.0631,2.0565,2.0518,2.0603,2.1186,2.1512,2.067,2.1163,2.1914,2.2529,2.3142,2.3365,2.2742,2.1892,2.1324,2.1545,2.0792,2.045,2.1233,2.1195,2.0771,1.9964,1.9996,2.0307,2.0953,2.1096,2.1369,2.188,2.1913,2.2209,2.2826,2.2869,2.3559,2.5051,2.5769,2.6464,2.7187,2.7865,2.8259,2.8393,2.8393,2.846,0.5705,0.5978,0.6412,0.7967,0.8086,0.8179,0.9411,1.0364,1.0801,1.0225,1.0823,1.0386,0.6775,0.7481,0.7697,0.4755,0.8114,1.1246,1.1857,1.4482,1.6729,1.778,1.9006,2.0173,2.1093,2.2003,2.2668,2.2796,2.2479,2.2616,2.3253,2.3309,2.3404,2.3573,2.3583,2.3394,2.3058,2.303,2.2822,2.2434,2.2406,2.2387,2.2387,2.2387,2.2387,2.2387,2.2387,2.2387,2.2387,2.2387,2.2387,2.2387,2.2387,2.2387,2.2387,2.2387,2.2283,2.2132,2.2132,2.2,2.1801,2.1631,2.1442,2.129,2.1262,2.1252,2.1214,2.0951,2.0839,2.0839,2.0839,2.0707,2.0622,2.0801,2.0843,2.08,2.062,2.0755,2.1196,2.2219,2.3551,2.413,2.2881,2.2502,2.1989,2.0978,2.0644,2.0499,2.0499,2.0179,2.005,2.0259,2.0421,2.1136,2.2613,2.2892,2.3455,2.4475,2.4539,2.4534,2.439,2.439,2.5184,2.6809,2.6584,2.7196,2.8671,2.8433,2.8446,2.8671,2.8671,2.8804,0.5929,0.6038,0.6405,0.7816,0.7915,0.7932,0.8991,0.9754,1.0118,0.9621,1.0228,1.0185,0.8005,0.8553,0.8785,0.7127,0.9741,1.2132,1.2569,1.5387,1.7533,1.7881,1.9006,1.9877,1.9987,2.0232,2.0799,2.1872,2.1878,2.2243,2.323,2.3441,2.3545,2.3583,2.3583,2.347,2.3234,2.3105,2.2888,2.2652,2.2472,2.2387,2.2387,2.2387,2.2387,2.2387,2.2387,2.2387,2.2387,2.2387,2.2387,2.2387,2.2387,2.2387,2.2387,2.2387,2.2368,2.234,2.234,2.2208,2.2009,2.1801,2.1716,2.165,2.1517,2.1461,2.1423,2.1168,2.1111,2.1111,2.1111,2.1083,2.1074,2.1102,2.1994,2.2505,2.1331,2.2011,2.2551,2.1607,2.2597,2.3455,2.3227,2.2025,2.1462,2.2393,2.1406,2.0499,2.0499,2.0433,2.0878,2.206,2.2268,2.2867,2.4362,2.4484,2.4628,2.4803,2.4847,2.5308,2.6423,2.6455,2.7147,2.8517,2.8521,2.8651,2.8921,2.8868,2.8911,2.8921,2.8921,2.8948,0.6041,0.6645,0.7599,0.8969,0.9491,0.9918,1.0898,1.0949,1.0649,1.0172,1.0214,0.9825,0.812,0.9132,0.9836,0.8691,1.0974,1.311,1.369,1.5554,1.6935,1.7041,1.8303,1.9177,1.9133,1.9692,2.0299,2.095,2.1526,2.23,2.339,2.3526,2.3583,2.3583,2.3583,2.3489,2.3291,2.3177,2.302,2.2708,2.2605,2.2501,2.2387,2.2387,2.2387,2.2387,2.2387,2.2387,2.2387,2.2387,2.2387,2.2387,2.2387,2.2387,2.2387,2.2387,2.2387,2.2387,2.2387,2.233,2.2227,2.2132,2.1962,2.1773,2.1669,2.1641,2.1622,2.1518,2.1489,2.1471,2.1404,2.1375,2.1347,2.1243,2.1714,2.2037,2.1353,2.1801,2.2148,2.1506,2.1966,2.2512,2.2512,2.1766,2.139,2.2129,2.1447,2.0904,2.1007,2.1026,2.1442,2.2571,2.2802,2.3771,2.6,2.6309,2.6645,2.7265,2.7296,2.7498,2.8029,2.8016,2.8443,2.9228,2.9068,2.9068,2.9272,2.9068,2.9081,2.9272,2.9272,2.9432,0.6013,0.7226,0.8727,0.9994,1.0931,1.1794,1.2602,1.2016,1.1118,1.067,1.0211,0.9541,0.8339,0.9631,1.0636,0.9956,1.185,1.3653,1.4397,1.5323,1.5967,1.6185,1.7602,1.8485,1.8224,1.9245,1.9955,1.9955,2.1197,2.2444,2.3531,2.3583,2.3583,2.3583,2.3583,2.3507,2.3347,2.3309,2.3121,2.2841,2.2756,2.2623,2.2453,2.2416,2.2387,2.2387,2.2387,2.2387,2.2387,2.2387,2.2387,2.2387,2.2387,2.2387,2.2387,2.2387,2.2387,2.2387,2.2387,2.2387,2.2387,2.2387,2.2179,2.1915,2.1867,2.1858,2.1849,2.1801,2.1792,2.1754,2.1631,2.1537,2.1499,2.1385,2.1347,2.1347,2.1347,2.147,2.1537,2.1537,2.1678,2.1792,2.1792,2.165,2.1537,2.1537,2.1451,2.1404,2.1518,2.1857,2.241,2.3369,2.3558,2.48,2.7673,2.8065,2.8597,2.9548,2.9633,2.9566,2.9295,2.9335,2.9526,2.9753,2.9539,2.9499,2.9673,2.9499,2.9499,2.9673,2.974,3.0007,0.5756,0.7191,0.8649,0.9776,1.0711,1.154,1.2066,1.1436,1.0656,1.0233,0.9863,0.9674,0.9764,1.0271,1.0826,1.1157,1.2103,1.3031,1.3774,1.4699,1.5473,1.5894,1.7415,1.8004,1.6975,1.8031,1.8746,1.8746,2.0781,2.2444,2.3531,2.3583,2.3583,2.3583,2.3583,2.3573,2.3555,2.3375,2.3262,2.3225,2.2897,2.2699,2.268,2.2482,2.2387,2.2387,2.2387,2.2387,2.2387,2.2387,2.2387,2.2387,2.2387,2.2387,2.2387,2.2387,2.2387,2.2387,2.2387,2.2387,2.2387,2.2387,2.2368,2.2302,2.2123,2.2066,2.2028,2.1849,2.1792,2.1782,2.1763,2.1763,2.1754,2.1735,2.1735,2.1735,2.1735,2.1754,2.1763,2.1763,2.1782,2.1792,2.1792,2.1773,2.1763,2.1763,2.1745,2.1745,2.1763,2.2969,2.4392,2.5838,2.5693,2.6671,2.9438,2.9676,2.9766,2.9873,3.0127,3.0319,3.0279,3.0488,3.0648,3.0675,3.0648,3.0515,3.0319,3.0515,3.0515,3.0333,3.0555,3.0702,0.7985,0.8947,0.981,1.1038,1.1928,1.2428,1.2143,1.1294,1.0453,1.0005,0.9754,0.9646,0.9731,1.0154,1.0575,1.0928,1.1742,1.2556,1.322,1.4156,1.4943,1.5445,1.6369,1.6923,1.6592,1.7193,1.7951,1.873,2.016,2.1449,2.2599,2.3272,2.3583,2.3583,2.3583,2.3583,2.3583,2.3507,2.3404,2.3281,2.3111,2.302,2.2888,2.268,2.2586,2.2576,2.2444,2.2387,2.2387,2.2387,2.2387,2.2387,2.2387,2.2387,2.2387,2.2387,2.2387,2.2387,2.2387,2.2387,2.2387,2.2387,2.2387,2.2378,2.2293,2.2274,2.2255,2.217,2.2151,2.2123,2.2,2.1877,2.1792,2.1792,2.1792,2.1792,2.1792,2.1886,2.1971,2.1971,2.2066,2.2151,2.2151,2.2047,2.1971,2.1971,2.266,2.3239,2.3332,2.4716,2.6224,2.7699,2.7647,2.8288,3.0265,3.0448,3.0448,3.0448,3.0555,3.0621,3.0621,3.0728,3.0795,3.0795,3.0795,3.0742,3.0621,3.0742,3.0742,3.0621,3.0742,3.0889,0.9183,1.015,1.0864,1.1616,1.2401,1.2805,1.2009,1.1084,1.0249,0.9812,0.9605,0.9503,0.9591,0.9903,1.027,1.0623,1.1328,1.2077,1.2764,1.3607,1.438,1.4916,1.5554,1.6083,1.6429,1.6815,1.7735,1.9326,1.9748,2.0591,2.2012,2.2794,2.3286,2.3583,2.3583,2.3583,2.3583,2.3583,2.3517,2.3375,2.3309,2.3206,2.3096,2.2831,2.2708,2.2699,2.2482,2.2387,2.2387,2.2387,2.2387,2.2387,2.2387,2.2387,2.2387,2.2387,2.2387,2.2387,2.2387,2.2387,2.2387,2.2387,2.2387,2.2387,2.2387,2.2387,2.2387,2.2387,2.2387,2.2359,2.2217,2.2075,2.1971,2.1971,2.1971,2.2106,2.2538,2.2751,2.2993,2.3477,2.3645,2.3746,2.3746,2.3615,2.3563,2.3563,2.4333,2.4997,2.5168,2.6531,2.7724,2.8294,2.8656,2.9373,3.067,3.0795,3.0795,3.0795,3.0875,3.0915,3.0915,3.1009,3.1049,3.1049,3.1049,3.1009,3.0929,3.1009,3.1009,3.0929,3.1009,3.1156,0.8508,1.0188,1.1479,1.1022,1.1721,1.2277,1.141,1.0588,0.994,0.9673,0.9396,0.9281,0.9551,0.9697,0.9988,1.059,1.0975,1.1519,1.2379,1.303,1.3688,1.4428,1.514,1.5769,1.6273,1.6842,1.8209,2.0618,1.9716,2.0058,2.2161,2.2267,2.265,2.3592,2.3583,2.3583,2.3583,2.3583,2.3583,2.3573,2.3375,2.3281,2.3262,2.2897,2.2708,2.2699,2.2482,2.2387,2.2387,2.2387,2.2387,2.2387,2.2387,2.2387,2.2387,2.2387,2.2387,2.2387,2.2387,2.2387,2.2387,2.2387,2.2387,2.2387,2.2387,2.2387,2.2387,2.2387,2.2387,2.2387,2.2387,2.2387,2.2387,2.2387,2.2387,2.2818,2.4369,2.466,2.5135,2.6636,2.6925,2.6925,2.6925,2.6925,2.6973,2.6973,2.6973,2.6973,2.6973,2.838,2.8764,2.7214,2.8428,2.9791,3.0697,3.0795,3.0795,3.0795,3.1062,3.1223,3.1223,3.1503,3.1711,3.1711,3.1711,3.1517,3.1223,3.1517,3.1517,3.1176,3.1517,3.1711,1.058,1.0931,1.0964,1.1798,1.1955,1.1714,1.1016,1.0326,0.9751,0.941,0.9247,0.924,0.9444,0.9578,0.9869,1.0466,1.0934,1.1479,1.2244,1.2963,1.3641,1.4292,1.5296,1.6157,1.6714,1.7762,1.8793,1.9769,2.0107,2.0556,2.1246,2.187,2.2283,2.2504,2.3221,2.3583,2.3583,2.3583,2.3583,2.3583,2.3517,2.3489,2.347,2.3105,2.2916,2.2897,2.2548,2.2387,2.2387,2.2387,2.2387,2.2387,2.2387,2.2387,2.2387,2.2387,2.2387,2.2387,2.2387,2.2387,2.2387,2.2387,2.2387,2.2387,2.2387,2.2387,2.2387,2.2387,2.2387,2.2387,2.2387,2.2387,2.2681,2.3746,2.316,2.3111,2.5717,2.4612,2.3599,2.5146,2.4563,2.4174,2.5243,2.5437,2.5765,2.6829,2.7948,2.862,2.862,2.9063,2.9207,2.8668,2.8092,2.7877,2.8188,2.8176,2.8176,2.8176,2.8308,2.8344,2.8344,2.8428,2.8476,2.8476,2.8476,2.8428,2.8344,2.8428,2.8428,2.8356,2.9552,2.9542,1.1004,1.0989,1.0712,1.1537,1.1423,1.0982,1.0461,1.0005,0.9557,0.9247,0.9207,0.9226,0.9383,0.9551,0.9883,1.048,1.0941,1.1479,1.2257,1.2915,1.3661,1.4604,1.5622,1.6666,1.7643,1.8152,1.8911,2.0046,1.9868,1.9885,2.0254,2.1156,2.1608,2.1464,2.2843,2.3583,2.3583,2.3583,2.3583,2.3583,2.3583,2.3583,2.3573,2.3234,2.3086,2.2992,2.2661,2.2463,0.0,2.2387,2.2387,2.2387,2.2387,2.2387,2.2387,2.2387,2.2387,2.2387,2.2387,2.2387,2.2387,2.2387,2.2387,2.2387,2.2387,2.2387,2.2387,2.2387,2.2453,2.2491,2.2416,2.2453,2.2885,2.4341,2.3979,2.3941,2.6442,2.5486,2.4417,2.5389,2.4806,2.4417,2.5389,2.6133,2.6942,2.7767,2.8849,2.951,2.9411,2.886,2.8284,2.7707,2.6732,2.5922,2.5292,2.6346,2.6973,2.6973,2.6973,2.6973,2.6973,2.6973,2.6973,2.6973,2.6973,2.6973,2.6973,2.6973,2.6973,2.7021,2.7418,2.7418,0.0,1.0405,1.0622,1.048,1.0337,1.0154,0.9856,0.9571,0.0,0.9199,0.92,0.9226,0.9383,0.9625,0.9988,1.059,1.0975,1.1526,1.2393,1.2963,1.3817,1.5255,1.6112,1.7202,1.8744,1.8134,1.8625,2.1077,1.9232,1.8397,1.9332,2.03,2.0713,2.0527,2.2542,2.3583,2.3583,2.3583,2.3583,2.3583,2.3583,2.3583,2.3573,2.3357,2.32,2.3001,2.2784,2.2576,2.2387,2.2387,2.2387,2.2387,2.2387,2.2387,2.2387,2.2387,2.2387,2.2387,2.2387,2.2387,2.2387,2.2387,2.2387,2.2387,2.2387,2.2387,2.2387,2.2387,2.2548,2.2661,2.2591,2.2696,2.3246,2.4674,2.4855,2.5146,2.6829,2.6948,2.6718,2.6863,2.6777,2.674,2.6885,2.8341,2.9456,2.9306,2.9478,2.954,2.9269,2.7827,2.632,2.4855,2.4612,2.3941,2.2534,2.5049,2.6684,2.6684,2.6684,2.6684,2.6684,2.6684,2.6684,2.6684,2.6684,2.6684,2.6684,2.6684,2.6684,2.6636,2.534,2.5426,0.8967,0.0,0.9994,0.9985,0.9869,0.972,0.0,0.9369,0.9192,0.9022,0.9104,0.9226,0.9383,0.9625,0.9988,1.059,1.107,1.1653,1.251,1.3612,1.4626,1.5445,1.6779,1.7646,1.7618,1.909,2.0031,1.9995,1.9515,1.9236,1.9386,2.03,2.0713,2.0527,2.2542,2.3583,2.3583,2.3583,2.3583,2.3583,2.3583,2.3583,2.3573,2.3206,2.3058,2.2992,2.2623,2.2434,2.2387,2.2387,2.2387,2.2387,2.2387,2.2387,2.2387,2.2387,2.2387,2.2387,2.2387,2.2387,2.2387,2.2387,2.2387,2.2387,2.2387,2.2387,2.2387,2.2387,2.2548,2.2909,2.3904,2.4299,2.51,2.7669,2.6454,2.5486,2.8236,2.6113,2.4056,2.5226,2.4632,2.4297,2.5479,2.6067,2.6733,2.7911,2.8154,2.8096,2.784,2.644,2.525,2.4779,2.3648,2.2779,2.2436,2.3072,2.3502,2.3502,2.3502,2.3502,2.3502,2.3502,2.3502,2.3502,2.3502,2.3502,2.3502,2.3502,2.3502,2.3502,2.432,2.4271,0.8628,0.9001,0.9298,0.9372,0.9332,0.9251,0.9198,0.9117,0.9049,0.9042,0.9186,0.9356,0.9544,0.9829,1.0229,1.0826,1.1301,1.2026,1.3275,1.439,1.5303,1.5886,1.6776,1.7592,1.8095,1.8813,1.9329,1.9555,1.9009,1.8663,1.8577,1.99,2.0624,2.0519,2.2542,2.3583,2.3583,2.3583,2.3583,2.3583,2.3583,2.3583,2.3573,2.3253,2.3105,2.2992,2.268,2.2482,2.2387,2.2387,2.2387,2.2387,2.2387,2.2387,2.2387,2.2387,2.2387,2.2387,2.2387,2.2387,2.2387,2.2387,2.2387,2.2406,2.251,2.2538,2.2519,2.2416,2.2614,2.3002,2.3612,2.3918,2.4623,2.6872,2.5998,2.5178,2.6987,2.5461,2.3819,2.4018,2.3487,2.3262,2.4107,2.494,2.5764,2.6506,2.6732,2.6721,2.6431,2.5022,2.4336,2.4994,2.3612,2.293,2.3612,2.2972,2.2501,2.2397,2.2387,2.2387,2.2387,2.2387,2.2387,2.2387,2.2387,2.2387,2.2387,2.3111,2.3453,2.3502,2.5049,2.5292,0.8594,0.8696,0.875,0.8899,0.896,0.898,0.898,0.898,0.9014,0.9192,0.9356,0.953,0.9771,1.0141,1.0575,1.1206,1.1775,1.2684,1.4163,1.512,1.5832,1.6259,1.6694,1.752,1.882,1.8187,1.8166,1.9272,1.8437,1.7854,1.7834,1.9692,2.0775,2.0742,2.2576,2.3583,2.3583,2.3583,2.3583,2.3583,2.3583,2.3583,2.3573,2.3338,2.314,2.3001,2.2765,2.2557,2.2387,2.2387,2.2387,2.2387,2.2387,2.2387,2.2387,2.2387,2.2387,2.2387,2.2387,2.2387,2.2387,2.2387,2.2387,2.2425,2.2605,2.269,2.2671,2.2491,2.2737,2.3061,2.3112,2.3258,2.3755,2.5069,2.5107,2.4817,2.5025,2.49,2.4386,2.3282,2.3086,2.3105,2.3105,2.4405,2.5378,2.5081,2.5265,2.5357,2.503,2.3855,2.3603,2.4958,2.3866,2.3487,2.4781,2.3542,2.2671,2.2453,2.2406,2.2387,2.2387,2.2387,2.2485,2.273,2.273,2.2877,2.3121,2.4417,2.5049,2.5098,2.6394,2.6973,0.8438,0.8615,0.8777,0.9077,0.9247,0.9313,0.9313,0.9313,0.932,0.9369,0.9564,0.9778,0.9954,1.0434,1.1002,1.1597,1.2854,1.3953,1.4539,1.5337,1.594,1.6273,1.7505,1.8167,1.7708,1.8503,1.8762,1.8184,1.8703,1.8994,1.8909,2.08,2.1882,2.1769,2.298,2.3583,2.3583,2.3583,2.3583,2.3583,2.3583,2.3583,2.3573,2.3238,2.3049,2.2992,2.2605,2.2416,2.2387,2.2387,2.2387,2.2387,2.2387,2.2387,2.2387,2.2387,2.2387,2.2387,2.2387,2.2387,2.2387,2.2387,2.2387,2.2397,2.2434,2.2567,2.2708,2.2671,2.2964,2.3482,2.4608,2.5071,2.5638,2.6992,2.6209,2.5205,2.5236,2.4357,2.3501,2.3275,2.3375,2.3489,2.3489,2.3765,2.3929,2.3849,2.392,2.3872,2.3661,2.3387,2.327,2.3382,2.3162,2.3102,2.3315,2.3114,2.2879,2.268,2.2491,2.2387,2.2387,2.2387,2.3014,2.432,2.4369,2.5,2.6297,2.6539,2.6636,2.6636,2.6877,2.6973,0.8397,0.8655,0.8879,0.9233,0.9424,0.9503,0.9503,0.9625,0.9768,0.9849,1.0032,1.0276,1.0595,1.0941,1.1518,1.2515,1.3736,1.4713,1.5113,1.6335,1.7286,1.755,1.8328,1.875,1.8481,1.8418,1.8442,1.8663,1.9009,1.9385,1.9851,2.1268,2.2073,2.1985,2.2495,2.3014,2.3583,2.3014,2.3014,2.3583,2.3583,2.3583,2.3564,2.32,2.3011,2.2992,2.2576,2.2387,2.2397,2.2519,2.2567,2.2567,2.2567,2.2567,2.2548,2.2434,2.2463,2.2548,2.2434,2.2463,2.2548,2.2425,2.2387,2.2434,2.2661,2.2794,2.2926,2.3143,2.3215,2.3466,2.4062,2.4314,2.4566,2.5164,2.4689,2.4086,2.4215,2.3714,2.3319,2.3423,2.3517,2.3583,2.3583,2.3583,2.3583,2.3583,2.3583,2.3555,2.346,2.3441,2.3763,2.4575,2.3852,2.3661,2.4447,2.3688,2.3049,2.2737,2.2614,2.251,2.2397,2.2501,2.3238,2.466,2.4709,2.5486,2.6973,2.7852,2.8284,2.8332,2.9147,2.9542,0.8411,0.873,0.9062,0.9361,0.9598,0.9774,0.9808,1.0042,1.0319,1.0507,1.0683,1.0921,1.1336,1.1701,1.2345,1.3526,1.4536,1.5418,1.6077,1.7235,1.8159,1.8611,1.8653,1.8735,1.8976,1.8216,1.8121,1.9216,1.9438,1.9799,2.0474,2.1456,2.1873,2.1613,2.1613,2.2132,2.3221,2.2392,2.2547,2.3583,2.3583,2.3583,2.3564,2.32,2.3011,2.2992,2.2576,2.2387,2.2406,2.2623,2.2708,2.2708,2.2708,2.268,2.2614,2.2453,2.2529,2.269,2.2519,2.2605,2.2756,2.2586,2.2538,2.2595,2.2916,2.3049,2.3153,2.3423,2.3432,2.3357,2.3357,2.3357,2.3357,2.3357,2.3225,2.32,2.3319,2.3357,2.3394,2.3555,2.3583,2.3583,2.3583,2.3583,2.3583,2.3583,2.3583,2.3583,2.3583,2.3583,2.41,2.5378,2.4358,2.4074,2.5175,2.4412,2.3596,2.2879,2.3162,2.3443,2.3661,2.3819,2.4571,2.594,2.5988,2.6767,2.8318,2.9537,3.0174,3.0174,3.1338,3.1885,0.8464,0.8832,0.924,0.9517,0.9917,1.0263,1.0399,1.0798,1.1159,1.128,1.1538,1.1753,1.2002,1.2908,1.3835,1.4491,1.5289,1.6286,1.7656,1.7425,1.7475,1.8484,1.8048,1.7732,1.7704,1.7827,1.8287,1.9223,2.0139,2.0607,2.0527,2.1456,2.1509,2.0476,2.0424,2.0997,2.208,2.2029,2.2547,2.3583,2.3583,2.3583,2.3564,2.32,2.3011,2.2992,2.2576,2.2387,2.2406,2.2623,2.2708,2.2708,2.2708,2.2595,2.2416,2.2397,2.2529,2.2708,2.2699,2.2822,2.2992,2.2973,2.2964,2.2973,2.3001,2.3153,2.3262,2.33,2.3432,2.3564,2.3564,2.3564,2.3564,2.3564,2.3555,2.3545,2.3555,2.3564,2.3564,2.3583,2.3583,2.3583,2.3583,2.3583,2.3583,2.3583,2.3583,2.3583,2.3583,2.3583,2.3635,2.379,2.3686,2.3625,2.3761,2.49,2.4921,2.3345,2.4558,2.5965,2.7421,2.7543,2.8235,2.9751,2.98,3.0597,3.2186,3.2332,3.2381,3.2381,3.2478,3.238,0.856,0.8907,0.9274,0.9646,1.0191,1.0731,1.0907,1.1438,1.1932,1.2176,1.2461,1.2739,1.299,1.3709,1.441,1.5059,1.6419,1.7386,1.7401,1.8685,1.9478,1.9157,1.8889,1.9006,1.9705,1.8473,1.855,2.0959,2.0186,2.0128,2.1368,2.1135,2.1049,2.1353,1.9999,2.0468,2.2962,2.1613,2.1821,2.3583,2.3583,2.3583,2.3564,2.32,2.3011,2.2992,2.2576,2.2387,2.2416,2.2756,2.2897,2.2897,2.2897,2.285,2.2765,2.2633,2.2803,2.3077,2.2945,2.3039,2.319,2.3058,2.3011,2.3039,2.3172,2.3215,2.3309,2.3432,2.3526,2.3583,2.3583,2.3583,2.3583,2.3583,2.3583,2.3583,2.3583,2.3583,2.3583,2.3583,2.3583,2.3583,2.3583,2.3583,2.3583,2.3583,2.3748,2.3786,2.3602,2.3757,2.3786,2.3602,2.3583,2.3583,2.3583,2.4125,2.5041,2.6461,2.6955,2.6959,2.6445,2.7486,2.8731,3.0156,3.0205,3.1003,3.2594,3.2594,3.2594,3.2545,3.1506,3.1001,0.8703,0.9035,0.9444,0.991,1.0535,1.1164,1.1669,1.2203,1.2739,1.3085,1.339,1.3688,1.3994,1.4688,1.5292,1.5575,1.712,1.813,1.7566,1.8975,1.9823,1.9284,1.9267,1.9622,2.0371,1.9254,1.9333,2.1494,2.0263,2.0025,2.137,2.0737,2.0685,2.1457,1.9947,2.0384,2.2964,2.1527,2.1647,2.3385,2.3451,2.3517,2.3573,2.3275,2.3077,2.2992,2.2642,2.2491,2.2519,2.2869,2.3049,2.3115,2.3115,2.3068,2.2992,2.286,2.303,2.3262,2.3111,2.3257,2.3357,2.3206,2.3209,2.3238,2.3338,2.3375,2.3404,2.3545,2.3583,2.3583,2.3583,2.3583,2.3583,2.3583,2.3583,2.3583,2.3583,2.3583,2.3583,2.3583,2.3583,2.3583,2.3583,2.3583,2.3583,2.3583,2.3824,2.3909,2.3757,2.3871,2.388,2.3602,2.3583,2.3583,2.3583,2.41,2.5121,2.6845,2.8268,2.8511,2.7287,2.8449,2.9252,2.966,2.966,3.0466,3.2074,3.2074,3.2074,3.2074,3.0925,3.0082,0.8831,0.9244,0.9754,1.0351,1.0955,1.1674,1.2764,1.3193,1.3539,1.3994,1.4319,1.4618,1.4962,1.5979,1.6667,1.6186,1.7371,1.8359,1.8566,1.7921,1.7794,1.8758,1.9029,1.9126,1.9126,2.0144,2.0713,2.0527,2.0466,2.0394,2.0276,2.0268,2.0268,2.032,2.0312,2.0741,2.1678,2.1678,2.2142,2.3011,2.3177,2.3385,2.3573,2.3375,2.3168,2.3001,2.2794,2.2708,2.2727,2.2935,2.3143,2.3291,2.3281,2.3159,2.302,2.302,2.3153,2.3291,2.3291,2.3413,2.3583,2.3583,2.3583,2.3583,2.3583,2.3583,2.3583,2.3583,2.3583,2.3583,2.3583,2.3583,2.3583,2.3583,2.3583,2.3583,2.3583,2.3583,2.3583,2.3583,2.3583,2.3583,2.3583,2.3583,2.3583,2.3583,2.3824,2.4018,2.4018,2.4018,2.388,2.3602,2.3583,2.3583,2.3583,2.5121,2.5378,2.3738,2.8223,3.0936,3.0936,3.0987,3.0216,2.8518,2.8518,2.9342,3.0987,3.0987,3.0987,3.0987,3.0987,2.992,0.911,0.9607,1.0118,1.0825,1.1572,1.2393,1.3241,1.3661,1.4089,1.4855,1.5167,1.5492,1.6274,1.6873,1.7288,1.7363,1.8707,1.9253,1.784,1.8199,1.8735,1.9012,1.8999,1.9281,2.0017,1.959,1.9557,2.0297,1.8926,1.8333,1.9059,1.8953,1.9246,2.0074,1.996,2.0782,2.26,2.189,2.2015,2.3011,2.3077,2.3168,2.3366,2.32,2.3068,2.2992,2.2642,2.2576,2.2737,2.3096,2.3309,2.3479,2.3338,2.3328,2.3385,2.3243,2.3319,2.3489,2.3489,2.3536,2.3583,2.3583,2.3583,2.3583,2.3583,2.3583,2.3583,2.3583,2.3583,2.3583,2.3583,2.3583,2.3583,2.3583,2.3583,2.3583,2.3583,2.3583,2.3583,2.3583,2.3583,2.3583,2.3583,2.3583,2.3583,2.3583,2.3937,2.4226,2.4226,2.4103,2.388,2.3602,2.3583,2.3583,2.3583,2.4048,2.4606,2.5327,2.6753,2.7572,2.7572,2.976,3.0216,2.8518,2.8518,2.8733,2.9241,2.9241,2.9241,2.919,2.8082,2.7232,0.9395,0.993,1.056,1.1431,1.2237,1.3132,1.4146,1.4611,1.497,1.5628,1.5839,1.6188,1.7279,1.7572,1.7767,1.8045,1.897,1.909,1.7358,1.7868,1.8526,1.8833,1.922,1.9686,2.0369,2.0168,1.9843,1.9634,1.8387,1.7887,1.8492,1.8396,1.9035,2.0501,2.0443,2.116,2.2847,2.2246,2.22,2.2765,2.285,2.2964,2.3036,2.303,2.2973,2.2879,2.2708,2.2756,2.2932,2.3262,2.347,2.3573,2.3451,2.3479,2.3564,2.3451,2.3479,2.3583,2.3583,2.3583,2.3583,2.3583,2.3583,2.3583,2.3583,2.3583,2.3583,2.3583,2.3583,2.3583,2.3583,2.3583,2.3583,2.3583,2.41,2.4606,2.4606,2.4606,2.4606,2.4606,2.4048,2.3583,2.3583,2.3583,2.3583,2.3583,2.3994,2.4349,2.4434,2.4264,2.4056,2.3786,2.3639,2.3583,2.3583,2.3583,2.4048,2.5018,2.5738,2.5789,2.5121,2.7674,2.8286,2.6589,2.6538,2.7203,2.8518,2.7867,2.7867,2.8467,2.6856,2.5738,0.967,1.0292,1.105,1.2094,1.2963,1.3933,1.5309,1.5798,1.6044,1.6273,1.6341,1.6743,1.7982,1.8045,1.8045,1.8343,1.8529,1.8222,1.7136,1.7093,1.7544,1.8499,1.9582,2.0268,2.0164,2.1197,2.0885,1.8641,1.8417,1.8395,1.824,1.8409,1.9352,2.1177,2.1412,2.1867,2.2631,2.268,2.2586,2.2397,2.2586,2.269,2.2718,2.2907,2.2888,2.2727,2.2926,2.3134,2.33,2.3498,2.3583,2.3583,2.3583,2.3583,2.3583,2.3583,2.3583,2.3583,2.3583,2.3583,2.3583,2.3583,2.3583,2.3583,2.3583,2.3583,2.3583,2.3583,2.3583,2.3583,2.3583,2.3583,2.3635,2.379,2.4966,2.6097,2.6097,2.6097,2.6097,2.6097,2.476,2.3583,2.3583,2.3583,2.3592,2.3682,2.4013,2.4397,2.4561,2.4409,2.4264,2.4065,2.3899,2.387,2.387,2.3954,2.4038,2.4038,2.5481,2.5584,2.3893,2.5275,2.5378,2.3841,2.3841,2.5368,2.8518,2.7009,2.706,2.8467,2.6856,2.5275,0.9985,1.0792,1.1647,1.2622,1.386,1.5004,1.5805,1.6191,1.6395,1.6463,1.652,1.6934,1.7917,1.8224,1.8313,1.8336,1.8485,1.8222,1.7136,1.7005,1.7433,1.8484,1.9582,1.9955,1.9059,1.9999,1.9746,1.7503,1.7176,1.7093,1.7058,1.8455,1.9454,1.9874,2.1366,2.2254,2.2463,2.2463,2.2434,2.2387,2.2434,2.2548,2.2718,2.2756,2.2756,2.2727,2.2926,2.3134,2.33,2.3498,2.3583,2.3583,2.3583,2.3583,2.3583,2.3583,2.3583,2.3583,2.3583,2.3583,2.3583,2.3583,2.3583,2.3583,2.3583,2.3583,2.3583,2.3583,2.3583,2.3583,2.3583,2.3583,2.3945,2.5224,2.5841,2.6097,2.6097,2.6097,2.6097,2.6097,2.476,2.3583,2.3583,2.3583,2.3748,2.4079,2.4255,2.4397,2.4561,2.4542,2.4438,2.4273,2.5147,2.5788,2.5788,2.6798,2.7458,2.7458,2.7765,2.7254,2.5635,2.5892,2.5943,2.5584,2.5584,2.6548,2.8518,2.8173,2.8173,2.8467,2.6856,2.5892,1.0213,1.1036,1.2074,1.3595,1.4765,1.569,1.6171,1.6361,1.6483,1.6693,1.6809,1.7148,1.8144,1.7989,1.7891,1.8359,1.8119,1.7653,1.7083,1.6978,1.7398,1.8484,1.9582,1.9811,1.8633,2.0027,1.9787,1.6975,1.7151,1.7125,1.6544,1.7899,1.8917,1.9328,2.082,2.1897,2.2387,2.2387,2.2387,2.2397,2.2491,2.2652,2.285,2.285,2.2916,2.297,2.3124,2.3234,2.3432,2.3536,2.3583,2.3583,2.3583,2.3583,2.3583,2.3583,2.3583,2.3583,2.3583,2.3583,2.3583,2.3583,2.3583,2.3583,2.3583,2.3583,2.3583,2.3583,2.3583,2.3583,2.3583,2.3583,2.3841,2.4709,2.6087,2.7469,2.8286,2.7827,2.7265,2.7265,2.5265,2.3583,2.3583,2.372,2.3937,2.4353,2.4419,2.4548,2.4702,2.4646,2.4542,2.4428,2.5643,2.6379,2.6379,2.7693,2.8518,2.8518,2.8518,2.7765,2.6149,2.6097,2.6097,2.6097,2.6097,2.7265,2.9697,2.8122,2.7765,2.8416,2.6036,2.5327,1.029,1.1301,1.2596,1.454,1.5445,1.5983,1.6381,1.6395,1.6422,1.6822,1.6924,1.7206,1.817,1.7601,1.7293,1.8177,1.7601,1.6978,1.6978,1.6978,1.7346,1.8222,1.9297,1.948,1.8248,1.9909,1.9828,1.6735,1.7312,1.735,1.6364,1.7479,1.8448,1.9191,2.0423,2.1505,2.2387,2.2387,2.2387,2.2397,2.2642,2.2869,2.3068,2.3105,2.32,2.3281,2.3281,2.3394,2.3583,2.3583,2.3583,2.3583,2.3583,2.3583,2.3583,2.3583,2.3583,2.3583,2.3583,2.3583,2.3583,2.3583,2.3583,2.3583,2.3583,2.3583,2.3583,2.3583,2.3583,2.3583,2.3583,2.3583,2.3696,2.3983,2.6139,2.8524,2.9873,2.9038,2.8071,2.8071,2.5676,2.3592,2.3682,2.3842,2.416,2.4523,2.4589,2.4655,2.4863,2.474,2.4636,2.4636,2.6016,2.6943,2.69,2.8427,2.9389,2.9342,2.9088,2.8223,2.66,2.6251,2.6097,2.6097,2.6354,2.798,3.0987,2.8286,2.7469,2.8416,2.5419,2.476,1.029,1.1911,1.3599,1.4751,1.5323,1.5735,1.6239,1.6327,1.6361,1.6544,1.6635,1.6822,1.7161,1.7083,1.7031,1.7188,1.7083,1.6978,1.6978,1.6978,1.7031,1.7188,1.8047,1.8211,1.7058,1.7961,1.8077,1.6626,1.651,1.6485,1.6313,1.8018,1.9058,1.9182,2.1161,2.224,2.2387,2.2387,2.2387,2.2397,2.2784,2.3086,2.3243,2.3423,2.3423,2.3281,2.3281,2.3394,2.3583,2.3583,2.3583,2.3583,2.3583,2.3583,2.3583,2.3583,2.3583,2.3583,2.3583,2.3583,2.3583,2.3583,2.3583,2.3583,2.3583,2.3583,2.3583,2.3583,2.3583,2.3583,2.3583,2.3583,2.3983,2.5664,2.6379,2.6689,2.6745,2.661,2.6395,2.6395,2.4915,2.3691,2.389,2.3999,2.416,2.4523,2.4589,2.4655,2.4863,2.4863,2.4844,2.4844,2.744,2.9097,2.8831,3.1495,3.3037,3.2762,3.1441,2.9912,2.8274,2.6856,2.6097,2.6097,2.7458,2.9088,3.0987,3.057,2.9709,2.8467,2.66,2.5892,1.0608,1.2033,1.3471,1.4373,1.5059,1.5628,1.6076,1.6185,1.6246,1.6476,1.651,1.6551,1.6693,1.672,1.672,1.672,1.7237,1.7428,1.6895,1.6508,1.6437,1.679,1.6913,1.6834,1.651,1.8009,1.823,1.6431,1.677,1.6828,1.6235,1.8092,1.9182,1.9182,2.1308,2.2387,2.2387,2.2387,2.251,2.2737,2.2926,2.3181,2.3451,2.3545,2.3536,2.3451,2.3451,2.3498,2.3583,2.3583,2.3583,2.3583,2.3583,2.3583,2.3583,2.3583,2.3583,2.3583,2.3583,2.3583,2.3583,2.3583,2.3583,2.3583,2.3583,2.3583,2.3583,2.3583,2.3583,2.3583,2.3583,2.3583,2.3809,2.462,2.4946,2.5015,2.4926,2.5613,2.5934,2.4893,2.41,2.3701,2.3928,2.4103,2.4245,2.4425,2.4504,2.457,2.4595,2.4646,2.509,2.6105,2.8251,2.9885,3.0518,3.2648,3.3393,3.2109,3.1391,2.9861,2.7265,2.6497,2.6097,2.6097,2.6805,2.7969,2.9596,2.8693,2.7878,2.7112,2.5481,2.5224,1.0771,1.1907,1.2989,1.3844,1.4604,1.5255,1.5744,1.5913,1.6042,1.63,1.63,1.6286,1.6388,1.6469,1.6524,1.6524,1.7385,1.7632,1.6209,1.586,1.5622,1.5427,1.5366,1.5392,1.5657,1.7522,1.7999,1.6239,1.7077,1.7375,1.653,1.8499,1.9635,1.9635,2.1406,2.2387,2.2387,2.2444,2.2652,2.3011,2.3068,2.3285,2.3583,2.3583,2.3583,2.3583,2.3583,2.3583,2.3583,2.3583,2.3583,2.3583,2.3583,2.3583,2.3583,2.3583,2.3583,2.3583,2.3583,2.3583,2.3583,2.3583,2.3583,2.3583,2.3583,2.3583,2.3583,2.3583,2.3583,2.3583,2.3583,2.3583,2.3602,2.3701,2.388,2.4094,2.4094,2.5019,2.5463,2.3965,2.372,2.3767,2.3989,2.4179,2.4311,2.4311,2.4447,2.4504,2.434,2.44,2.503,2.6302,2.794,2.9319,3.0267,3.1776,3.201,3.0443,2.9963,2.8642,2.62,2.5687,2.5481,2.5481,2.5481,2.6241,2.7867,2.6702,2.5892,2.543,2.4203,2.4245,1.0535,1.1409,1.2363,1.322,1.3905,1.4509,1.5092,1.5452,1.5654,1.5908,1.6044,1.6096,1.6103,1.6334,1.6524,1.6524,1.7385,1.7181,1.4623,1.5072,1.4759,1.2256,1.3185,1.4026,1.402,1.537,1.6239,1.6133,1.7077,1.7672,1.7623,1.9594,2.0727,2.0727,2.1799,2.2387,2.2387,2.2595,2.2803,2.3011,2.3168,2.3375,2.3583,2.3583,2.3583,2.3583,2.3583,2.3583,2.3583,2.3583,2.3583,2.3583,2.3583,2.3583,2.3583,2.3583,2.3583,2.3583,2.3583,2.3583,2.3583,2.3583,2.3583,2.3583,2.3583,2.3583,2.3583,2.3583,2.3583,2.3583,2.3583,2.3583,2.3639,2.3899,2.415,2.4302,2.4302,2.4355,2.4341,2.4037,2.3999,2.3999,2.4008,2.4179,2.4311,2.4311,2.4447,2.4504,2.434,2.4321,2.433,2.4436,2.5953,2.685,2.6671,2.8257,2.9071,2.8642,2.7214,2.6303,2.6097,2.4554,2.3738,2.3738,2.3738,2.4554,2.62,2.6149,2.5275,2.3738,2.3635,2.3635,0.9897,1.0521,1.1267,1.2169,1.2922,1.369,1.4434,1.4923,1.5276,1.552,1.4977,1.4447,1.4447,1.5399,1.5887,1.4875,1.5623,1.5397,1.2791,1.2373,1.21,1.1631,1.1948,1.2637,1.3697,1.5156,1.6083,1.6083,1.7077,1.7722,1.7722,1.8993,1.9783,1.9783,2.0817,2.1701,2.2387,2.2463,2.268,2.3011,2.3096,2.3253,2.3583,2.3583,2.3583,2.3583,2.3583,2.3583,2.3583,2.3583,2.3583,2.3583,2.3583,2.3583,2.3583,2.3583,2.3583,2.3583,2.3583,2.3583,2.3583,2.3583,2.3583,2.3583,2.3583,2.3583,2.3583,2.3583,2.3583,2.3583,2.3583,2.3583,2.372,2.4122,2.4264,2.4387,2.4652,2.4561,2.4372,2.4084,2.4018,2.397,2.3776,2.4031,2.4226,2.3899,2.4154,2.4249,2.3899,2.3984,2.4533,2.5625,2.6367,2.7143,2.8009,2.8619,2.8403,2.7071,2.6395,2.5635,2.4554,2.3945,2.3583,2.3583,2.3583,2.3893,2.4503,2.4503,2.4203,2.3583,2.3583,2.3583,0.9462,0.993,1.0521,1.1239,1.1986,1.2732,1.358,1.3806,1.3945,1.4327,1.3471,1.2634,1.2716,1.3635,1.4069,1.3062,1.3816,1.359,1.1005,1.0996,1.1077,1.0661,1.1517,1.2524,1.3622,1.518,1.6083,1.6083,1.7417,1.821,1.821,1.9536,2.0267,2.0267,2.0964,2.1652,2.2387,2.2463,2.2671,2.3011,2.3086,2.3304,2.3583,2.3583,2.3583,2.3583,2.3583,2.3583,2.3583,2.3583,2.3583,2.3583,2.3583,2.3583,2.3583,2.3583,2.3583,2.3583,2.3583,2.3583,2.3583,2.3583,2.3583,2.3583,2.3583,2.3583,2.3583,2.3583,2.3583,2.3583,2.3583,2.3583,2.3739,2.4217,2.4311,2.4416,2.4712,2.4731,2.458,2.4292,2.4226,2.4098,2.388,2.4135,2.423,2.3805,2.4041,2.4107,2.3639,2.3767,2.4312,2.5394,2.5671,2.6119,2.7114,2.7206,2.6615,2.5337,2.5275,2.476,2.3635,2.3583,2.3583,2.3583,2.3583,2.3583,2.3583,2.3583,2.3583,2.3583,2.3583,2.3658,0.0,0.0,0.0,1.0549,1.1076,1.168,1.2412,1.2012,1.1618,1.2167,1.1474,1.0839,1.0994,1.0988,1.1016,1.1175,1.2148,1.1893,0.9263,1.1204,1.1898,0.9267,1.1773,1.3678,1.3678,1.518,1.6133,1.6133,1.8053,1.9182,1.9232,2.121,2.2338,2.2289,2.2338,2.2338,2.2338,2.2595,2.2803,2.3001,2.3168,2.3375,2.3564,2.3564,2.3564,2.3564,2.3564,2.3564,2.3573,2.3583,2.3583,2.3583,2.3583,2.3583,2.3583,2.3583,2.3583,2.3583,2.3583,2.3583,2.3583,2.3583,2.3583,2.3583,2.3583,2.3583,2.3583,2.3583,2.3583,2.3583,2.3583,2.3583,2.3739,2.4154,2.4311,2.4378,2.4542,2.474,2.4825,2.4617,2.458,2.4513,2.4349,2.4491,2.4447,2.4075,2.4188,2.4107,2.3639,2.3583,2.3583,2.3583,2.3583,2.3583,2.3583,2.3583,2.3583,2.3583,2.3583,2.3583,2.3583,2.3583,2.3583,2.3583,2.3583,2.3583,2.3583,2.3583,2.3583,2.3583,2.3583,2.3861,0.9021,0.0,0.0,0.0,0.0,0.0,0.9818,0.9036,0.8485,0.9531,0.8776,0.8136,0.8851,0.8171,0.79,0.9063,1.0548,1.0867,0.9066,1.0361,1.1277,1.0713,1.2474,1.3678,1.3678,1.518,1.6431,1.7226,1.8449,1.9536,2.0325,2.0915,2.0866,2.0119,2.0817,2.1268,2.1268,2.206,2.2586,2.2794,2.286,2.2992,2.3181,2.3181,2.3181,2.3181,2.3181,2.3275,2.3375,2.3526,2.3583,2.3583,2.3583,2.3583,2.3583,2.3583,2.3583,2.3583,2.3583,2.3583,2.3583,2.3583,2.3583,2.3583,2.3583,2.3583,2.3583,2.3583,2.3583,2.3583,2.3583,2.3583,2.3701,2.4037,2.4207,2.4378,2.4542,2.474,2.4778,2.4472,2.4476,2.4513,2.4349,2.4491,2.4447,2.4075,2.4188,2.4107,2.3639,2.3583,2.3583,2.3583,2.3583,2.3583,2.3583,2.3583,2.3583,2.3583,2.3583,2.3583,2.3583,2.3583,2.3583,2.3583,2.3583,2.3583,2.3583,2.3583,2.3583,2.3583,2.3583,2.3861,0.0,0.0,0.9435,0.9673,0.0,0.0,0.8952,0.8065,0.7311,0.7817,0.694,0.647,0.7618,0.7165,0.7138,0.873,1.0334,1.1005,0.9783,1.0951,1.1958,1.2074,1.3516,1.4508,1.4508,1.5352,1.6145,1.6777,1.819,1.9646,2.1123,2.122,2.0929,2.0288,2.0951,2.1338,2.1338,2.2056,2.2501,2.2708,2.2708,2.2822,2.3011,2.3011,2.3011,2.3011,2.3011,2.3086,2.3159,2.3272,2.3423,2.3583,2.3583,2.3526,2.347,2.3555,2.3526,2.347,2.3555,2.3583,2.3583,2.3583,2.3583,2.3583,2.3583,2.3583,2.3583,2.3583,2.3583,2.3583,2.3583,2.3583,2.3691,2.3961,2.4103,2.4226,2.4296,2.4539,2.4652,2.4532,2.4627,2.4674,2.4595,2.4627,2.4598,2.4321,2.4302,2.4145,2.3814,2.3691,2.3583,2.3583,2.3583,2.3583,2.3583,2.3583,2.3583,2.3583,2.3583,2.3583,2.3583,2.3583,2.3621,2.3767,2.3682,2.3583,2.3583,2.3583,2.3583,2.3583,2.3583,2.3861,0.0,0.0,0.0,0.0,0.9577,0.0,0.9015,0.8072,0.7186,0.6833,0.5991,0.5761,0.7118,0.7438,0.798,0.9478,1.0934,1.1686,1.1089,1.2369,1.3408,1.3419,1.4703,1.5593,1.5593,1.5593,1.5642,1.578,1.7702,1.9671,2.1553,2.1744,2.1744,2.1649,2.1914,2.2018,2.194,2.2216,2.2463,2.268,2.268,2.2775,2.2945,2.2945,2.2945,2.2945,2.2945,2.2954,2.2983,2.2983,2.3209,2.3517,2.3517,2.3404,2.3272,2.3451,2.3404,2.3281,2.3479,2.3494,2.34,2.3573,2.3531,2.3428,2.3583,2.3583,2.3583,2.3583,2.3583,2.3583,2.3583,2.3583,2.3682,2.388,2.3999,2.4018,2.4018,2.4169,2.4425,2.474,2.4816,2.4825,2.4844,2.4854,2.4787,2.4608,2.4472,2.4273,2.4075,2.3805,2.3621,2.3621,2.3602,2.3583,2.3583,2.3583,2.3583,2.3583,2.3583,2.3583,2.3583,2.3583,2.3729,2.397,2.3729,2.3592,2.3621,2.3592,2.3583,2.3583,2.3611,2.388,0.0,0.0,0.0,0.0,0.0,0.0,0.7765,0.6533,0.5613,0.6275,0.6221,0.6447,0.7586,0.7821,0.8481,1.0275,1.0909,1.1436,1.2059,1.3708,1.4842,1.4961,1.532,1.5593,1.5593,1.5593,1.5974,1.6828,1.88,2.015,2.0589,2.1363,2.1401,2.0532,2.139,2.154,2.0818,2.1687,2.2255,2.2453,2.2453,2.2472,2.251,2.251,2.251,2.251,2.251,2.2614,2.2775,2.2775,2.2916,2.3134,2.3134,2.3105,2.3077,2.3115,2.3105,2.3105,2.3272,2.2774,2.2228,2.3268,2.3014,2.2444,2.3324,2.3583,2.3583,2.3583,2.3583,2.3583,2.3583,2.3583,2.3592,2.3691,2.3833,2.4018,2.4018,2.4169,2.434,2.4416,2.4434,2.4491,2.4608,2.4646,2.4627,2.4589,2.4551,2.4447,2.4283,2.4022,2.3899,2.3899,2.3739,2.3583,2.3583,2.3583,2.3583,2.3583,2.3583,2.3583,2.3583,2.3583,2.3602,2.3701,2.3602,2.372,2.3899,2.372,2.3583,2.3592,2.3814,2.4084,0.0,0.0,0.0,0.97,0.0,0.0,0.0,0.725,0.6649,0.6617,0.6618,0.6983,0.8128,0.8378,0.8977,1.0723,1.1182,1.156,1.2283,1.3718,1.4685,1.4835,1.4984,1.5032,1.5032,1.51,1.5563,1.6634,1.7742,1.8588,1.9057,2.0147,2.053,1.9956,2.1055,2.1441,2.101,2.1647,2.2047,2.2236,2.2236,2.2293,2.2387,2.2387,2.2387,2.2387,2.2387,2.2453,2.2548,2.2548,2.2614,2.2727,2.2926,2.2954,2.2879,2.2973,2.2954,2.2907,2.3177,2.2975,2.2542,2.2743,2.2806,2.2806,2.2806,2.3169,2.3583,2.3583,2.3583,2.3583,2.3583,2.3583,2.3583,2.3583,2.372,2.3795,2.3795,2.388,2.3946,2.3946,2.3946,2.405,2.4372,2.4513,2.4589,2.4589,2.4589,2.4542,2.4438,2.4292,2.4169,2.4169,2.4013,2.3909,2.3805,2.3795,2.3748,2.3592,2.3583,2.3583,2.3583,2.3583,2.3682,2.3795,2.3899,2.4003,2.4169,2.4003,2.3842,2.3592,2.3861,2.4122,0.0,0.0,0.0,0.0,0.0,0.9513,0.0,0.0,0.0,0.7602,0.7466,0.7787,0.8776,0.896,0.9407,1.0766,1.1179,1.1518,1.1972,1.2888,1.3528,1.3513,1.3984,1.4129,1.38,1.4251,1.4879,1.5688,1.6136,1.6697,1.7472,1.8865,1.9659,1.9659,2.0787,2.148,2.1517,2.1641,2.183,2.2038,2.1835,2.1948,2.233,2.2135,2.2154,2.2387,2.2387,2.2387,2.2387,2.2387,2.2387,2.2425,2.2765,2.2794,2.2671,2.2831,2.2794,2.2708,2.3074,2.3123,2.2854,2.2217,2.2599,2.3169,2.2495,2.291,2.3583,2.3583,2.3583,2.3583,2.3583,2.3583,2.3583,2.3583,2.3583,2.3583,2.3583,2.3583,2.3583,2.3583,2.3583,2.3757,2.4188,2.4406,2.4476,2.4513,2.4523,2.4542,2.458,2.44,2.433,2.4368,2.434,2.4245,2.4084,2.4075,2.3946,2.3767,2.3757,2.3739,2.3701,2.3701,2.3795,2.4065,2.4236,2.433,2.4378,2.433,2.4088,2.3757,2.3984,2.4226,0.0,0.0,0.0,0.0,1.0114,0.0,0.0,0.0,0.9572,0.9346,0.0,0.9346,0.9496,0.0,0.0,1.0065,1.0317,1.0588,1.1002,1.1328,1.1347,1.0811,1.2385,1.2894,1.1306,1.2809,1.3939,1.4069,1.5206,1.5948,1.6037,1.8208,1.9448,1.9448,2.0575,2.1338,2.1517,2.1536,2.166,2.183,2.0912,2.106,2.2123,2.1193,2.1381,2.2387,2.2387,2.2387,2.2387,2.2387,2.2387,2.2397,2.2444,2.2444,2.2434,2.2453,2.2444,2.2491,2.2907,2.2393,2.1646,2.1914,2.208,2.234,2.3169,2.3479,2.3583,2.3583,2.3583,2.3583,2.3583,2.3583,2.3583,2.3583,2.3583,2.3583,2.3583,2.3583,2.3583,2.3583,2.3583,2.371,2.3956,2.4065,2.415,2.4321,2.4349,2.4425,2.4561,2.44,2.4387,2.4532,2.4425,2.4302,2.4283,2.4283,2.4273,2.4245,2.4245,2.416,2.398,2.3928,2.4075,2.4273,2.4302,2.4406,2.4551,2.4406,2.4292,2.4245,2.4409,2.4523,0.0,0.0,0.0,0.0,0.0,0.0,1.0128,0.0,0.9751,0.0,0.0,0.0,0.0,0.0,0.0,0.0,0.9659,0.9883,1.0211,1.0387,1.0643,1.0995,1.1081,1.0849,1.0253,1.0988,1.1676,1.2087,1.1825,1.221,1.3541,1.5241,1.6935,1.8488,1.9593,2.052,2.1338,2.1338,2.1442,2.1603,2.06,2.0461,2.1051,2.0725,2.0862,2.139,2.2095,2.2387,2.2387,2.2387,2.2387,2.2387,2.2387,2.1995,2.1456,2.1456,2.1456,2.1617,2.2619,2.2709,2.2278,2.206,2.157,2.1101,2.1561,2.2132,2.2651,2.2651,2.3117,2.3583,2.3583,2.3583,2.3583,2.3583,2.3583,2.3583,2.3583,2.3583,2.3583,2.3583,2.3583,2.3663,2.3757,2.388,2.4046,2.4131,2.4236,2.4397,2.4561,2.4504,2.4532,2.474,2.4674,2.458,2.4457,2.4447,2.44,2.4321,2.4311,2.4273,2.4188,2.4188,2.4283,2.4447,2.4447,2.4551,2.4759,2.4665,2.4681,2.4681,2.4598,2.4589,1.1573,0.0,0.0,0.0,0.0,0.0,0.0,0.0,0.0,0.0,0.0,0.0,0.0,0.0,0.0,0.0,0.0,0.9347,0.9605,0.9734,0.9941,1.0401,0.9524,0.9201,0.9927,1.0056,1.0202,1.0506,0.9917,1.0037,1.111,1.3159,1.5027,1.668,1.8428,1.9733,2.0621,2.0917,2.101,2.0918,1.9944,1.9595,1.9794,1.9686,1.9845,2.0253,2.1423,2.1946,2.1995,2.2289,2.2387,2.2387,2.2093,2.1514,2.0826,2.0826,2.062,2.0582,2.2068,2.2632,2.2678,2.2147,2.1249,2.0372,2.0685,2.1353,2.208,2.234,2.3014,2.3583,2.3583,2.3583,2.3583,2.3583,2.3583,2.3583,2.3583,2.3583,2.3583,2.3583,2.3583,2.3583,2.3583,2.3767,2.3871,2.3871,2.4103,2.4311,2.4466,2.4551,2.4665,2.4863,2.4882,2.4825,2.4684,2.4665,2.4598,2.4447,2.4434,2.4406,2.4406,2.4406,2.4419,2.458,2.4636,2.474,2.4882,2.4882,2.4882,2.4882,2.4731,2.4665,0.0,0.0,0.0,1.1455,0.0,0.0,0.0,0.0,0.9792,0.0,0.0,0.0,0.0,0.0,0.0,0.0,0.0,0.0,0.0,0.9234,0.8812,0.7663,0.7604,0.8399,1.0287,1.0719,1.0502,0.9695,1.11,1.1125,0.9212,1.2991,1.4822,1.3851,1.7275,1.9148,1.9157,2.0253,2.0345,1.9439,1.866,1.8367,1.8539,1.7674,1.794,1.9134,2.0345,2.0875,2.0924,2.1946,2.2387,2.2289,2.1268,2.0826,2.0826,2.0826,2.0128,1.9487,2.0963,2.1703,2.202,2.2029,2.1249,2.0529,2.1613,2.1977,2.2236,2.3272,2.3583,2.3583,2.3583,2.3583,2.3583,2.3583,2.3583,2.3583,2.3583,2.3583,2.3583,2.3583,2.3583,2.3583,2.3583,2.3592,2.3592,2.3592,2.3833,2.4094,2.4302,2.4457,2.4665,2.4863,2.4882,2.4882,2.4873,2.4873,2.4873,2.4863,2.4684,2.457,2.457,2.457,2.458,2.4589,2.4778,2.4873,2.4882,2.4882,2.4882,2.4882,2.4873,2.4873,0.0,0.0,1.4749,1.2965,0.0,0.0,0.0,0.0,0.0,0.0,0.0,0.0,0.0,0.0,0.0,0.0,0.0,0.0,0.0,0.8927,0.8692,0.8186,0.861,0.8762,0.829,0.8318,0.8501,0.8792,0.7767,0.7877,0.9562,1.0735,1.2386,1.4707,1.6135,1.7619,1.9094,1.9598,2.0016,2.029,1.8875,1.8255,1.8273,1.7516,1.7436,1.7899,1.9951,2.0826,2.0875,2.1946,2.2387,2.2338,2.1995,2.1406,2.0727,1.998,1.9536,1.9388,2.0913,2.2031,2.2787,2.2201,2.1717,2.1353,2.0997,2.1405,2.208,2.2444,2.3065,2.3583,2.3583,2.3583,2.3583,2.3583,2.3583,2.3583,2.3583,2.3583,2.3583,2.3583,2.3583,2.3583,2.3583,2.3583,2.3682,2.3833,2.3918,2.4141,2.4482,2.4542,2.4665,2.4863,2.4882,2.4882,2.4882,2.4882,2.4882,2.4882,2.4816,2.4778,2.4778,2.4778,2.4778,2.4778,2.4854,2.4882,2.4882,2.4882,2.4882,2.4882,2.4882,2.4882,1.6146,1.6242,0.0,1.4434,1.4035,0.0,1.2069,0.0,0.0,0.0,0.0,0.0,0.0,0.0,0.0,0.0,0.0,0.0,0.0,0.8743,0.8655,0.8526,0.896,0.8855,0.7778,0.7779,0.7929,0.818,0.7165,0.7245,0.8914,0.9837,1.1342,1.3666,1.4899,1.6248,1.7801,1.8772,1.9381,1.9643,1.8656,1.7989,1.7624,1.6976,1.6642,1.6753,1.8792,1.9881,2.0325,2.1406,2.2044,2.2387,2.2387,2.1995,2.1268,2.0177,1.9816,2.0015,2.104,2.224,2.3165,2.2277,2.1977,2.1873,2.1154,2.1414,2.208,2.2444,2.3065,2.3583,2.3583,2.3583,2.3583,2.3583,2.3583,2.3583,2.3583,2.3583,2.3583,2.3583,2.3583,2.3583,2.3583,2.3701,2.3795,2.3999,2.4075,2.4245,2.4542,2.4646,2.474,2.4873,2.4882,2.4882,2.4882,2.4882,2.4882,2.4882,2.4882,2.4882,2.4882,2.4882,2.4882,2.4882,2.4882,2.4882,2.4882,2.4882,2.4882,2.4882,2.4882,2.4882]},{"header":{"parameterUnit":"m.s-1","parameterCategory":1,"la1":30.6,"la2":29.2853,"lo1":-89.7004,"lo2":-87.6739,"dy":0.0162,"dx":0.0183,"nx":112,"ny":82,"refTime":"2023-09-28T00:00:00:Z","depth":0,"parameterNumber":3,"parameterNumberName":"V-component_of_WINDS"},"data":[0.0,0.0,0.0,0.0,0.0,0.0,0.0,0.0,0.0,0.0,0.0,0.0,0.0,0.0,0.0,0.0,0.0,0.0,0.0,0.0,0.0,0.0,0.0,0.0,0.0,0.0,0.0,0.0,0.0,0.0,0.0,0.0,0.0,0.0,0.0,0.0,0.0,0.0,0.0,0.0,0.0,0.0,0.0,0.0,0.0,0.0,0.0,0.0,0.0,0.0,0.0,0.0,0.0,0.0,0.0,0.0,0.0,0.0,0.0,0.0,0.0,0.0,0.0,0.0,0.0,0.0,0.0,0.0,0.0,0.0,0.0,0.0,0.0,0.0,0.0,0.0,0.0,0.0,0.0,0.0,0.0,0.0,0.0,0.0,0.0,0.0,0.0,0.0,0.0,0.0,4.1984,4.6506,5.0365,5.226,5.1464,4.9015,4.6262,4.3304,0.0,0.0,0.0,0.0,0.0,0.0,0.0,0.0,0.0,0.0,0.0,0.0,0.0,0.0,0.0,0.0,0.0,0.0,0.0,0.0,0.0,0.0,0.0,0.0,0.0,0.0,0.0,0.0,0.0,0.0,0.0,0.0,0.0,0.0,0.0,0.0,0.0,0.0,0.0,0.0,0.0,0.0,0.0,0.0,0.0,0.0,0.0,0.0,0.0,0.0,0.0,0.0,0.0,0.0,0.0,0.0,0.0,0.0,0.0,0.0,0.0,0.0,0.0,0.0,0.0,0.0,0.0,0.0,0.0,0.0,0.0,0.0,0.0,0.0,0.0,0.0,0.0,0.0,0.0,0.0,0.0,0.0,0.0,0.0,0.0,0.0,0.0,0.0,0.0,0.0,0.0,0.0,0.0,0.0,0.0,0.0,0.0,0.0,0.0,0.0,0.0,0.0,0.0,0.0,4.4188,4.9834,5.2267,5.3131,5.2298,5.0541,4.7665,4.3386,0.0,0.0,0.0,0.0,0.0,0.0,0.0,0.0,0.0,0.0,0.0,0.0,0.0,0.0,0.0,0.0,0.0,0.0,0.0,0.0,0.0,0.0,0.0,0.0,0.0,0.0,0.0,0.0,0.0,0.0,0.0,0.0,0.0,0.0,0.0,0.0,0.0,0.0,0.0,0.0,0.0,0.0,0.0,0.0,0.0,0.0,0.0,0.0,0.0,0.0,0.0,0.0,0.0,0.0,0.0,0.0,0.0,0.0,0.0,0.0,0.0,0.0,0.0,0.0,0.0,0.0,0.0,0.0,0.0,0.0,0.0,0.0,0.0,0.0,0.0,0.0,0.0,0.0,0.0,0.0,0.0,0.0,0.0,0.0,0.0,0.0,0.0,0.0,0.0,0.0,0.0,0.0,0.0,0.0,0.0,0.0,0.0,0.0,0.0,0.0,0.0,0.0,0.0,4.4303,4.7832,5.1464,5.3359,5.3814,5.2525,5.0865,4.7964,4.3392,3.8788,0.0,0.0,0.0,0.0,0.0,0.0,0.0,0.0,0.0,0.0,0.0,0.0,0.0,0.0,0.0,0.0,0.0,0.0,0.0,0.0,0.0,0.0,0.0,0.0,0.0,0.0,0.0,0.0,0.0,0.0,0.0,0.0,0.0,0.0,0.0,0.0,0.0,0.0,0.0,0.0,0.0,0.0,0.0,0.0,0.0,0.0,0.0,0.0,0.0,0.0,0.0,0.0,0.0,0.0,0.0,0.0,0.0,0.0,0.0,0.0,0.0,0.0,0.0,0.0,0.0,0.0,0.0,0.0,0.0,0.0,0.0,0.0,0.0,0.0,0.0,0.0,0.0,0.0,0.0,0.0,0.0,0.0,0.0,0.0,0.0,0.0,0.0,0.0,0.0,0.0,0.0,0.0,0.0,0.0,0.0,0.0,0.0,0.0,0.0,0.0,0.0,0.0,4.7763,5.0865,5.2525,5.4003,5.4231,5.2525,5.0865,4.7964,4.3392,3.9258,0.0,0.0,0.0,0.0,0.0,0.0,0.0,0.0,0.0,0.0,0.0,0.0,0.0,0.0,0.0,0.0,0.0,0.0,0.0,0.0,0.0,0.0,0.0,0.0,0.0,0.0,0.0,0.0,0.0,0.0,0.0,0.0,0.0,0.0,0.0,0.0,0.0,0.0,0.0,0.0,0.0,0.0,0.0,0.0,0.0,0.0,0.0,0.0,0.0,0.0,0.0,0.0,0.0,0.0,0.0,0.0,0.0,0.0,0.0,0.0,0.0,0.0,0.0,0.0,0.0,0.0,0.0,0.0,0.0,0.0,0.0,0.0,0.0,0.0,0.0,0.0,0.0,0.0,0.0,0.0,0.0,0.0,0.0,0.0,0.0,0.0,0.0,0.0,0.0,0.0,0.0,0.0,0.0,0.0,0.0,0.0,0.0,0.0,0.0,0.0,0.0,0.0,4.9007,5.1767,5.3435,5.4389,5.4231,5.2525,5.0865,4.7964,4.3392,3.9258,0.0,0.0,0.0,0.0,0.0,0.0,0.0,0.0,0.0,0.0,0.0,0.0,0.0,0.0,0.0,0.0,0.0,0.0,0.0,0.0,0.0,0.0,0.0,0.0,0.0,0.0,0.0,0.0,0.0,0.0,0.0,0.0,0.0,0.0,0.0,0.0,0.0,0.0,0.0,0.0,0.0,0.0,0.0,0.0,0.0,0.0,0.0,0.0,0.0,0.0,0.0,0.0,0.0,0.0,0.0,0.0,0.0,0.0,0.0,0.0,0.0,0.0,0.0,0.0,0.0,0.0,0.0,0.0,0.0,0.0,0.0,0.0,0.0,0.0,0.0,0.0,0.0,0.0,0.0,0.0,0.0,0.0,0.0,0.0,0.0,0.0,0.0,0.0,0.0,0.0,0.0,0.0,0.0,0.0,0.0,0.0,0.0,0.0,0.0,0.0,0.0,0.0,4.9424,5.1843,0.0,5.4427,5.4231,5.2525,5.0752,4.7599,4.2674,0.0,0.0,0.0,0.0,0.0,0.0,0.0,0.0,0.0,0.0,0.0,0.0,0.0,0.0,0.0,0.0,0.0,0.0,0.0,0.0,0.0,0.0,0.0,0.0,0.0,0.0,0.0,0.0,0.0,0.0,0.0,0.0,0.0,0.0,0.0,0.0,0.0,0.0,0.0,0.0,0.0,0.0,0.0,0.0,0.0,0.0,0.0,0.0,0.0,0.0,0.0,0.0,0.0,0.0,0.0,0.0,0.0,0.0,0.0,0.0,0.0,0.0,0.0,0.0,0.0,0.0,0.0,0.0,0.0,0.0,0.0,0.0,0.0,0.0,0.0,0.0,0.0,0.0,0.0,0.0,0.0,0.0,0.0,0.0,0.0,0.0,0.0,0.0,0.0,0.0,0.0,0.0,0.0,0.0,0.0,0.0,0.0,0.0,0.0,0.0,0.0,0.0,4.7422,5.0031,5.2222,0.0,5.4579,5.4231,5.2525,5.068,4.7513,4.2599,0.0,0.0,0.0,0.0,0.0,0.0,0.0,0.0,0.0,0.0,0.0,0.0,0.0,0.0,0.0,0.0,0.0,0.0,0.0,0.0,0.0,0.0,0.0,0.0,0.0,0.0,0.0,0.0,0.0,0.0,0.0,0.0,0.0,0.0,0.0,0.0,0.0,0.0,0.0,0.0,0.0,0.0,0.0,0.0,0.0,0.0,0.0,0.0,0.0,0.0,0.0,0.0,0.0,0.0,0.0,0.0,0.0,0.0,0.0,0.0,0.0,0.0,0.0,0.0,0.0,0.0,0.0,0.0,0.0,0.0,0.0,0.0,0.0,0.0,0.0,0.0,0.0,0.0,0.0,0.0,0.0,0.0,0.0,0.0,0.0,0.0,0.0,0.0,0.0,0.0,0.0,0.0,0.0,0.0,0.0,0.0,0.0,0.0,0.0,0.0,0.0,0.0,4.837,5.0865,5.3056,5.4723,5.492,5.4231,5.2525,5.0672,4.7731,0.0,0.0,0.0,0.0,0.0,0.0,0.0,0.0,0.0,0.0,0.0,0.0,0.0,0.0,0.0,0.0,0.0,0.0,0.0,0.0,0.0,0.0,0.0,0.0,0.0,0.0,0.0,0.0,0.0,0.0,0.0,0.0,0.0,0.0,0.0,0.0,0.0,0.0,0.0,0.0,0.0,0.0,0.0,0.0,0.0,0.0,0.0,0.0,0.0,0.0,0.0,0.0,0.0,0.0,0.0,0.0,0.0,0.0,0.0,0.0,0.0,0.0,0.0,0.0,0.0,0.0,0.0,0.0,0.0,0.0,0.0,0.0,0.0,0.0,0.0,0.0,0.0,0.0,0.0,0.0,0.0,0.0,0.0,0.0,0.0,0.0,0.0,0.0,0.0,0.0,0.0,0.0,0.0,0.0,0.0,0.0,0.0,0.0,0.0,0.0,0.0,0.0,0.0,4.9166,5.1206,5.3056,5.4723,5.492,5.4231,5.2525,5.05,4.7559,4.3364,0.0,0.0,0.0,0.0,0.0,0.0,0.0,0.0,0.0,0.0,0.0,0.0,0.0,0.0,0.0,0.0,0.0,0.0,0.0,0.0,0.0,0.0,0.0,0.0,0.0,0.0,0.0,0.0,0.0,0.0,0.0,0.0,0.0,0.0,0.0,0.0,0.0,0.0,0.0,0.0,0.0,0.0,0.0,0.0,0.0,0.0,0.0,0.0,0.0,0.0,0.0,0.0,0.0,0.0,0.0,0.0,0.0,0.0,0.0,0.0,0.0,0.0,0.0,0.0,0.0,0.0,0.0,0.0,0.0,0.0,0.0,0.0,0.0,0.0,0.0,0.0,0.0,0.0,0.0,0.0,0.0,0.0,0.0,0.0,0.0,0.0,0.0,0.0,0.0,0.0,0.0,0.0,0.0,0.0,0.0,0.0,0.0,0.0,0.0,0.0,0.0,0.0,4.9469,5.1357,5.3056,5.4723,5.492,5.4231,5.2525,5.0732,4.8073,4.4317,0.0,0.0,0.0,0.0,0.0,0.0,0.0,0.0,0.0,0.0,0.0,0.0,0.0,0.0,0.0,0.0,0.0,0.0,0.0,0.0,0.0,0.0,0.0,0.0,0.0,0.0,0.0,0.0,0.0,0.0,0.0,0.0,0.0,0.0,0.0,0.0,0.0,0.0,0.0,0.0,0.0,0.0,0.0,0.0,0.0,0.0,0.0,0.0,0.0,0.0,0.0,0.0,0.0,0.0,0.0,0.0,0.0,0.0,0.0,0.0,0.0,0.0,0.0,0.0,0.0,0.0,0.0,0.0,0.0,0.0,0.0,0.0,0.0,0.0,0.0,0.0,0.0,0.0,0.0,0.0,0.0,0.0,0.0,0.0,0.0,0.0,0.0,0.0,0.0,0.0,0.0,0.0,0.0,0.0,0.0,0.0,0.0,0.0,0.0,0.0,0.0,0.0,4.9583,5.1547,5.3245,5.4844,5.5034,5.4352,5.2677,5.1221,4.9067,4.5933,0.0,0.0,0.0,0.0,0.0,0.0,0.0,0.0,0.0,0.0,0.0,0.0,0.0,0.0,0.0,0.0,0.0,0.0,0.0,0.0,0.0,0.0,0.0,0.0,0.0,0.0,0.0,0.0,0.0,0.0,0.0,0.0,0.0,0.0,0.0,0.0,0.0,0.0,0.0,0.0,0.0,0.0,0.0,0.0,0.0,0.0,0.0,0.0,0.0,0.0,0.0,0.0,0.0,0.0,0.0,0.0,0.0,0.0,0.0,0.0,3.7162,3.5371,0.0,0.0,0.0,0.0,0.0,0.0,0.0,0.0,0.0,0.0,0.0,0.0,0.0,0.0,0.0,0.0,0.0,0.0,0.0,0.0,0.0,0.0,0.0,0.0,0.0,0.0,0.0,0.0,0.0,0.0,0.0,0.0,0.0,0.0,0.0,0.0,0.0,0.0,0.0,0.0,5.0486,5.2942,5.4769,5.5792,5.5906,5.5223,5.3556,5.156,4.9554,4.7601,4.4794,0.0,0.0,0.0,0.0,0.0,0.0,0.0,0.0,0.0,0.0,0.0,0.0,0.0,0.0,0.0,0.0,0.0,0.0,0.0,0.0,0.0,0.0,0.0,0.0,0.0,0.0,0.0,0.0,0.0,0.0,0.0,0.0,0.0,0.0,0.0,0.0,0.0,0.0,0.0,0.0,0.0,0.0,0.0,0.0,0.0,0.0,0.0,0.0,0.0,0.0,0.0,0.0,0.0,0.0,0.0,0.0,0.0,0.0,0.0,4.3303,4.0421,0.0,0.0,0.0,0.0,0.0,0.0,0.0,0.0,0.0,0.0,0.0,0.0,0.0,0.0,0.0,0.0,0.0,0.0,0.0,0.0,0.0,0.0,0.0,0.0,0.0,0.0,0.0,0.0,0.0,0.0,0.0,0.0,0.0,0.0,0.0,0.0,0.0,0.0,0.0,0.0,5.135,5.3586,5.5375,5.6626,5.6436,5.5678,5.4389,5.2597,5.0696,4.8677,4.682,0.0,0.0,0.0,0.0,0.0,0.0,0.0,0.0,0.0,0.0,0.0,0.0,0.0,0.0,0.0,0.0,0.0,0.0,0.0,0.0,0.0,0.0,0.0,0.0,0.0,0.0,0.0,0.0,0.0,0.0,0.0,0.0,0.0,0.0,0.0,0.0,0.0,0.0,0.0,0.0,0.0,0.0,0.0,0.0,0.0,0.0,0.0,0.0,0.0,0.0,0.0,0.0,0.0,5.5807,5.6296,5.6979,5.6771,5.6667,5.6342,5.0196,4.6593,4.498,4.3716,0.0,0.0,0.0,0.0,0.0,0.0,0.0,0.0,0.0,0.0,0.0,0.0,0.0,0.0,0.0,0.0,0.0,0.0,0.0,0.0,0.0,0.0,4.8519,5.0076,5.1656,5.1857,4.8187,0.0,0.0,0.0,0.0,0.0,0.0,0.0,0.0,0.0,0.0,0.0,5.2411,5.4306,5.5906,5.746,5.705,5.6209,5.5223,5.3829,5.21,4.994,4.8873,4.7416,0.0,0.0,0.0,0.0,0.0,0.0,0.0,0.0,0.0,0.0,0.0,0.0,0.0,0.0,0.0,0.0,0.0,0.0,0.0,0.0,0.0,0.0,0.0,0.0,0.0,0.0,0.0,0.0,0.0,0.0,0.0,0.0,3.9171,4.1069,0.0,0.0,0.0,0.0,0.0,0.0,0.0,0.0,0.0,0.0,0.0,0.0,0.0,5.4785,5.6662,5.9657,6.1409,6.1905,6.3078,6.3786,6.4016,6.2957,6.2505,6.2391,6.0762,0.0,5.206,5.0537,0.0,0.0,0.0,0.0,0.0,0.0,0.0,0.0,0.0,0.0,0.0,0.0,0.0,0.0,0.0,0.0,0.0,0.0,0.0,0.0,0.0,0.0,5.3163,5.4852,5.6349,5.7207,5.6671,5.2973,4.948,4.8604,4.7812,4.7029,0.0,0.0,0.0,0.0,0.0,0.0,5.4124,5.6019,5.7422,5.8415,5.8415,5.7733,5.6171,5.474,5.3482,5.239,4.9797,4.815,4.7819,4.6397,0.0,0.0,0.0,0.0,0.0,0.0,0.0,0.0,0.0,0.0,0.0,0.0,0.0,0.0,0.0,0.0,0.0,0.0,0.0,0.0,0.0,0.0,0.0,0.0,0.0,0.0,0.0,0.0,0.0,4.0642,4.2995,4.5294,4.538,4.497,0.0,0.0,0.0,0.0,0.0,0.0,0.0,0.0,0.0,5.6734,5.9376,6.1804,6.3953,6.5851,6.7296,6.8325,6.8899,6.8986,6.8572,6.807,6.7579,6.7125,6.6783,6.4833,6.1625,5.7086,5.4156,5.2387,0.0,0.0,0.0,0.0,4.8029,4.8675,4.9225,5.0031,5.0813,5.0463,0.0,0.0,0.0,0.0,0.0,0.0,0.0,5.1,5.3787,5.6205,5.8349,5.9977,6.1166,6.1853,6.1362,5.9101,5.6271,5.3268,5.1291,4.9981,4.9615,4.8634,0.0,0.0,0.0,5.3063,5.5943,5.7384,5.8453,5.9287,5.8984,5.8415,5.7657,5.5876,5.4426,5.3595,5.1544,4.9958,4.9087,4.7865,4.6691,0.0,0.0,0.0,0.0,0.0,0.0,0.0,0.0,0.0,0.0,0.0,0.0,0.0,0.0,0.0,0.0,0.0,0.0,0.0,0.0,0.0,0.0,0.0,0.0,0.0,0.0,0.0,0.0,4.4472,4.6833,4.9791,4.9889,4.9664,0.0,0.0,0.0,0.0,0.0,0.0,5.7041,5.9133,6.1409,6.3853,6.5917,6.7932,6.9992,7.102,7.2119,7.3429,7.3608,7.338,7.2784,7.2498,7.2052,7.1483,7.1256,7.0687,6.9389,6.3221,5.9748,5.8126,5.6244,5.5516,5.542,5.4607,5.4972,5.5875,5.5837,5.6274,5.6839,5.6631,5.5792,5.4775,5.4204,0.0,0.0,0.0,0.0,5.6761,5.9576,6.1439,6.2873,6.3967,6.4917,6.5381,6.469,6.3932,6.2057,5.769,5.5027,5.3487,5.3487,5.2421,0.0,5.3564,5.4451,5.5792,5.8066,5.8908,5.9552,6.0159,5.9666,5.9135,5.8718,5.6877,5.5367,5.4472,5.2953,5.1527,5.0271,4.9197,4.826,4.7406,0.0,0.0,0.0,0.0,0.0,0.0,0.0,0.0,0.0,0.0,0.0,0.0,0.0,0.0,0.0,0.0,0.0,0.0,0.0,0.0,0.0,0.0,0.0,0.0,0.0,0.0,0.0,0.0,0.0,5.4154,5.4358,0.0,0.0,0.0,0.0,5.648,5.9673,6.2258,6.3742,6.6026,6.8013,6.9617,7.1209,7.2451,7.3341,7.497,7.5944,7.6208,7.6845,7.7234,7.7339,7.6313,7.5832,7.5756,7.496,7.4164,7.3037,6.8834,6.6168,6.4473,6.2917,6.1796,6.1079,6.1033,6.1567,6.2452,6.3268,6.3769,6.3952,6.3203,6.1581,5.9993,6.0332,5.9858,0.0,0.0,6.168,6.2528,6.335,6.4832,6.613,6.5985,6.6632,6.7276,6.7238,6.6518,6.4917,6.149,5.9482,5.8345,5.8345,0.0,5.7338,5.8248,5.8407,5.9059,6.0689,6.0955,6.0993,6.1031,6.0993,6.0348,5.8832,5.7612,5.6434,5.5295,5.3451,5.2235,5.1887,5.0372,4.9123,4.826,4.7197,0.0,0.0,0.0,0.0,0.0,0.0,0.0,0.0,0.0,0.0,0.0,0.0,0.0,0.0,0.0,0.0,0.0,0.0,0.0,0.0,0.0,0.0,0.0,0.0,0.0,0.0,0.0,0.0,5.9305,5.9534,0.0,6.164,6.1221,6.1685,6.3684,6.577,6.79,7.0035,7.1711,7.3043,7.4115,7.5109,7.5994,7.6828,7.7965,7.8841,7.9446,8.0244,8.0358,7.9864,7.9475,7.9026,7.8533,7.823,7.7623,7.6714,7.5259,7.2405,6.8923,6.837,6.7628,6.6906,6.6906,6.7096,6.7408,6.7721,6.7927,6.7865,6.7012,6.6238,6.5596,6.532,6.5019,6.5002,6.6106,6.6548,6.7021,6.8341,6.9051,6.9559,7.0024,7.0394,7.0621,7.0621,6.9939,6.8944,6.7778,6.4471,6.1848,6.1848,6.1166,6.0711,6.1022,6.1098,6.1279,6.1856,6.1932,6.1932,6.1932,6.1439,6.0879,6.0273,5.8032,5.6489,5.6117,5.4094,5.2651,5.2024,5.0949,4.9994,4.916,4.8238,4.7261,0.0,0.0,0.0,0.0,0.0,0.0,0.0,0.0,0.0,0.0,0.0,0.0,0.0,0.0,0.0,0.0,0.0,0.0,0.0,0.0,0.0,0.0,0.0,0.0,0.0,5.6947,6.0211,6.4553,6.5137,6.5914,6.7769,6.7334,6.7779,6.9847,7.1561,7.3384,7.5341,7.6692,7.7732,7.8482,7.896,7.9415,7.986,8.0428,8.1008,8.1538,8.2107,8.2107,8.1538,8.1538,8.1273,8.0742,8.0742,8.0428,7.986,7.986,7.7586,7.3995,7.3113,7.2317,7.1559,7.1256,7.1521,7.1976,7.1976,7.1635,7.1066,7.046,7.0119,6.9806,6.9357,6.9232,6.9297,6.9678,6.9702,6.9907,7.1018,7.12,7.1304,7.2175,7.2403,7.2403,7.2403,7.1948,7.1531,7.1531,6.8148,6.5296,6.5296,6.4614,6.4084,6.4084,6.4084,6.4084,6.4084,6.3818,6.3553,6.3288,6.2463,6.1671,6.1018,5.8836,5.7146,5.6414,5.4717,5.334,5.2428,5.1646,5.0949,5.0408,4.9485,4.8543,4.7611,0.0,0.0,0.0,0.0,0.0,0.0,0.0,0.0,0.0,0.0,0.0,0.0,0.0,0.0,0.0,0.0,0.0,0.0,0.0,0.0,0.0,0.0,0.0,5.9032,6.181,6.5359,6.9819,7.0942,7.2043,7.379,7.3927,7.4196,7.4875,7.7054,7.8722,7.9557,8.0979,8.2053,8.27,8.269,8.2612,8.241,8.241,8.2448,8.2448,8.2486,8.2486,8.2486,8.2486,8.2486,8.2486,8.2486,8.2448,8.2448,8.2448,8.1463,7.9708,7.7207,7.5718,7.4884,7.4013,7.4733,7.6135,7.6135,7.5074,7.371,7.371,7.3189,7.2554,7.2517,7.2517,7.2327,7.1455,7.1228,7.1228,7.1228,7.1228,7.1417,7.2289,7.2479,7.2479,7.2479,7.2479,7.2479,7.2479,7.047,6.8754,6.8716,6.8072,6.7542,6.7504,6.7504,0.0,6.7428,6.667,6.5836,6.5078,6.4189,6.29,6.097,5.9945,5.8494,5.6294,5.5333,5.4357,5.3335,5.2491,5.206,5.206,5.101,5.0091,4.9336,0.0,0.0,0.0,0.0,0.0,0.0,0.0,0.0,0.0,0.0,0.0,0.0,0.0,0.0,0.0,0.0,0.0,0.0,0.0,0.0,0.0,6.1337,6.4714,6.495,6.7295,7.0584,7.4809,7.5503,7.6528,7.884,7.8486,7.872,8.01,8.0823,8.1472,8.2228,8.2636,8.2807,8.27,8.269,8.2612,8.241,8.2979,8.3282,8.3282,8.3915,8.4218,8.4218,8.4218,8.4218,8.4218,8.4218,8.3839,8.3282,8.3282,8.2638,8.1538,7.9594,7.7965,7.6676,7.6449,7.6638,7.7055,7.7055,7.6752,7.6373,7.6373,7.6221,7.5918,7.5274,7.5084,7.4895,7.4099,7.3871,7.3871,7.3871,7.3871,7.3909,7.4174,7.4212,7.4212,7.4212,7.4212,7.4212,7.4212,7.3141,7.2052,7.1455,7.119,7.0811,7.0166,6.9598,0.0,6.8337,6.7542,6.6973,6.6746,6.571,6.4595,6.3464,6.1052,5.909,5.791,5.6309,5.5231,5.4961,5.4179,5.3482,5.2884,5.2574,5.2515,0.0,0.0,0.0,0.0,0.0,0.0,0.0,0.0,0.0,0.0,0.0,0.0,0.0,0.0,0.0,0.0,0.0,0.0,0.0,0.0,0.0,0.0,6.6506,7.0579,7.232,7.351,7.5503,7.8961,7.9715,8.0523,8.2016,8.1708,8.1785,8.2755,8.317,8.3553,8.3952,8.422,8.4183,8.389,8.3798,8.3628,8.3472,8.3915,8.4143,8.4143,8.4673,8.4889,8.4889,8.4889,8.4889,8.4889,8.4889,8.4597,8.4143,8.4143,8.3661,8.2752,0.0,0.0,0.0,0.0,7.9253,7.895,7.895,7.8723,7.8382,7.8002,7.7661,7.732,7.679,7.64,7.5908,7.5112,7.4619,7.4354,7.4354,7.4354,7.443,7.4809,7.4884,7.4998,7.5339,7.5415,7.5415,7.5415,7.4998,0.0,7.3568,7.2858,7.2213,7.172,7.1266,7.0773,7.028,6.9484,6.8745,6.8233,6.7253,6.6053,6.4609,6.2516,0.0,0.0,0.0,5.6969,5.6613,5.6161,0.0,0.0,0.0,5.5874,5.62,5.7022,0.0,0.0,5.4776,5.5418,0.0,0.0,0.0,0.0,0.0,0.0,0.0,0.0,0.0,0.0,0.0,0.0,0.0,0.0,0.0,0.0,7.1295,7.5864,7.97,7.9631,8.0062,8.2324,8.3293,8.3793,8.387,8.387,8.387,8.387,8.4593,8.5077,8.5137,8.5675,0.0,0.0,0.0,8.529,8.5204,8.5079,8.5079,8.5192,8.5192,8.5192,8.5192,8.5192,8.5192,8.5192,8.5192,8.5192,8.5154,8.5079,8.4522,8.3661,8.2752,8.241,8.241,8.241,8.1918,8.1273,8.1273,0.0,0.0,7.9177,7.8382,7.7775,7.7586,7.7017,7.6211,7.5425,7.4619,7.4013,7.4013,7.3975,7.4088,7.4846,7.496,7.5112,7.5908,7.6097,7.6097,7.6097,7.6097,7.5832,7.5046,7.3682,7.2668,7.2668,7.2592,7.2554,7.2554,7.1796,7.0855,6.9769,6.8836,0.0,6.5253,6.4185,6.2813,6.0957,6.004,5.9269,5.8584,5.8547,5.8547,5.8547,5.9233,5.9636,5.9747,6.1263,6.2071,6.212,5.9758,5.9501,0.0,0.0,0.0,0.0,0.0,0.0,0.0,0.0,0.0,0.0,0.0,0.0,0.0,0.0,0.0,7.2011,7.6519,8.0423,8.2562,8.3324,8.3862,8.4324,8.4555,8.4901,8.5555,8.5632,8.5632,8.5632,8.5786,8.6103,8.6637,8.6783,8.6977,8.7264,8.6562,8.6392,8.6909,8.6227,8.6227,8.6909,8.6909,0.0,8.6909,8.6909,8.6909,8.6909,8.6909,8.6909,8.6872,8.614,8.5382,8.4484,8.2979,8.241,8.241,8.241,8.2297,8.2145,8.2145,8.2069,8.1766,8.0883,8.0504,8.0125,7.8761,7.8268,0.0,7.7131,7.679,7.6676,7.6676,7.6135,7.5642,7.5832,7.5377,7.5112,7.5908,7.6097,7.6097,7.6097,7.6097,7.5832,7.5046,7.4629,7.444,7.444,7.3823,7.3368,7.3368,7.2658,7.208,7.1831,7.0514,6.9177,6.8079,6.61,6.4497,6.3442,6.2572,6.2022,6.1875,6.1875,6.1875,6.1875,6.2022,6.2462,6.3135,6.4127,6.4934,6.5521,6.3723,6.3429,0.0,0.0,0.0,0.0,0.0,0.0,0.0,0.0,0.0,0.0,0.0,6.3049,6.6517,0.0,7.4155,7.7147,8.0672,8.3593,8.5255,8.6247,8.6478,8.5585,8.5901,8.6324,8.6709,8.7132,8.7401,8.7401,8.7278,8.7373,8.7685,8.7522,8.7499,8.7693,8.719,8.7064,8.7402,8.6985,8.6985,8.7402,8.7402,8.7402,8.7402,8.7402,8.7402,8.7402,8.7402,8.7402,8.7364,8.6947,8.6265,8.542,8.4597,8.3991,8.365,8.365,8.365,8.3574,8.3168,8.3017,8.2789,8.1489,8.111,8.0883,7.9632,7.895,7.8533,7.8116,7.7699,7.7396,7.7396,7.7093,7.6752,7.6752,7.6449,7.6373,7.7169,7.7358,7.7358,7.7358,7.7017,7.6486,7.5653,7.515,7.4884,7.4884,7.4543,7.424,7.424,7.3909,7.3333,7.2542,7.1744,7.077,6.9545,6.7644,6.5999,6.4787,6.4297,6.404,6.404,6.4444,6.464,6.464,6.5435,6.6176,6.6788,6.7403,6.8097,6.889,6.7642,6.71,0.0,0.0,0.0,0.0,0.0,0.0,0.0,5.8746,6.1415,6.4846,6.7436,7.0071,7.334,7.5992,7.8647,8.1593,8.4078,8.6094,8.744,8.8102,8.794,8.6517,8.6978,8.7401,8.7401,8.8017,8.8509,8.8628,8.8439,8.8347,8.8414,8.8117,8.8002,8.811,8.78,8.7705,8.7857,8.7705,8.7705,8.7857,8.7857,8.7857,8.7857,8.7857,8.7857,8.7857,8.7857,8.7781,8.763,8.763,8.7023,8.6102,8.6102,8.5609,8.4889,8.4889,8.4889,8.4813,8.4105,8.3851,8.3585,8.1918,8.1338,8.1159,8.0212,7.9405,7.8836,7.8836,7.8382,7.7889,7.7889,7.7775,7.7623,7.7623,7.751,7.7623,7.8419,7.8609,7.8609,7.8609,7.8078,7.732,7.6297,7.5566,7.5074,7.4922,7.4884,7.4884,7.4884,7.4884,7.4363,7.3009,7.2642,7.1839,7.023,6.8912,6.7614,6.6316,6.6242,6.6242,6.6242,6.688,6.721,6.721,6.8539,6.9392,6.9717,7.0296,7.1,7.1735,7.1165,7.0395,5.0476,5.201,5.4343,5.6185,5.8464,6.0974,0.0,6.5431,6.7602,7.1147,7.3193,7.5183,7.7878,8.0942,8.3424,8.4565,8.6724,8.8333,8.8526,8.7979,8.7478,8.7286,8.7325,8.7401,8.7401,8.7478,8.7756,8.8307,8.8317,8.8441,8.8809,8.877,8.9026,8.9535,8.8855,8.8805,8.9525,8.8805,8.8805,8.9525,8.9525,8.9525,8.9525,8.9525,8.9525,8.9525,8.9525,8.9146,8.8463,8.8463,8.7516,8.6102,8.6102,8.5609,8.4889,8.4889,8.4889,8.4889,8.4775,8.4738,8.4484,8.2789,8.2259,8.1955,8.039,7.9833,7.9746,7.9746,7.967,7.9632,7.9632,7.9064,7.8457,7.8457,7.7927,7.7623,7.8419,7.8609,7.8609,7.8609,7.8533,7.7965,7.6362,7.6021,7.5718,7.4998,7.4884,7.4884,7.4884,7.4884,7.4674,7.4181,7.3133,7.1839,7.023,6.9926,6.9743,6.9559,6.9559,6.9559,6.9559,6.9633,6.9706,6.9706,7.0209,7.0506,7.0557,7.169,7.2633,7.3428,7.3729,7.302,5.4814,5.7113,5.9889,6.2325,6.5528,6.8693,7.0856,7.2945,7.5106,7.7451,7.8801,8.009,8.2103,8.3554,8.5081,8.6948,8.8048,8.9026,9.0017,8.9402,8.8671,8.8209,8.7709,8.7401,8.7401,8.8191,8.8784,8.9046,8.9261,8.949,8.9646,8.9523,8.9557,8.979,8.9487,8.9449,8.979,8.9487,8.9487,8.979,8.979,8.979,8.979,8.979,8.979,8.979,8.979,8.9601,8.9297,8.9297,8.8615,8.7516,8.7061,8.6341,8.5533,8.5079,8.4889,8.4889,8.4889,8.4889,8.4635,8.2941,8.241,8.2107,8.0401,7.9898,7.9898,7.9898,7.9898,7.9898,7.9898,7.9632,7.9367,7.9367,7.9102,7.895,7.9291,7.9367,7.9367,7.9367,7.895,7.8382,7.7699,7.7169,7.6562,7.5728,7.5198,7.4884,7.4884,7.468,7.4305,7.3666,7.2936,7.2055,7.0909,7.0807,7.0587,7.011,7.011,7.011,7.011,7.055,7.1117,7.181,7.2502,7.3326,7.4248,7.4511,7.4922,7.5452,7.5187,7.4694,5.8975,6.1751,6.4844,6.8126,7.1723,7.5,7.7002,7.8968,8.0796,8.2417,8.2863,8.3404,8.4705,8.5159,8.5983,8.7995,8.8718,8.9423,9.0601,9.0015,8.9152,8.8262,8.7408,8.6871,8.6871,8.8095,8.9027,8.938,8.968,8.9916,9.0075,8.9887,8.979,8.979,8.979,8.979,8.979,8.979,8.979,8.979,8.979,8.979,8.979,8.979,8.979,8.979,8.979,8.979,8.979,8.979,8.9184,8.8198,8.763,8.672,8.5685,8.5117,8.4889,8.4889,8.4889,8.4889,8.4635,8.2941,8.241,8.2107,8.0401,7.9898,7.9898,7.9898,7.9898,7.9898,7.9898,7.9898,7.9898,7.9898,7.9898,7.9898,7.9898,7.9898,7.9898,7.9898,7.9405,7.8874,7.8647,7.8116,7.7434,7.66,7.5862,7.5242,7.4788,7.4294,7.3788,7.3311,7.2908,7.2465,7.2,7.194,7.1806,7.1451,7.1414,7.1525,7.176,7.2337,7.304,7.393,7.4679,7.5658,7.6812,7.6491,7.6591,7.7043,7.6271,7.6014,6.3193,6.5985,6.8961,7.322,7.6217,7.8792,8.1328,8.245,8.3481,8.5222,8.4751,8.4264,8.4989,8.5791,8.6599,8.7328,8.8786,8.9802,8.9668,8.8911,8.7992,8.6975,8.6104,8.5559,8.5559,8.6547,8.7647,8.8814,8.8922,8.9189,8.9777,8.979,8.979,8.979,8.979,8.979,8.979,8.979,8.979,8.979,8.979,8.979,8.979,8.979,8.979,8.979,8.979,8.979,8.979,8.979,8.888,8.744,8.7402,8.6379,8.4927,8.4889,8.4889,8.4889,8.4889,8.4889,8.4635,8.2941,8.241,8.2107,8.0401,7.9898,7.9898,7.9898,7.9898,7.9898,7.9898,7.9898,7.9898,7.9898,7.9898,7.9898,7.9898,7.9898,7.9898,7.9898,7.986,7.9594,7.8761,7.8571,7.8306,7.7472,7.6941,7.6062,7.4504,7.3628,7.3272,7.3653,7.3311,7.3233,7.3603,7.3641,7.3939,7.4699,7.4736,7.511,7.5969,7.6043,7.6056,7.6106,7.6513,7.6751,7.6812,7.6702,7.7105,7.7958,7.7064,7.7134,6.5909,6.9901,7.3883,7.7036,8.0207,8.2922,8.4364,8.5272,8.5611,8.4972,8.4142,8.3168,8.2101,8.214,8.297,8.4886,8.6043,8.7218,8.8726,8.8235,8.747,8.686,8.6135,8.5599,8.5318,8.6123,8.6788,8.7198,8.8155,8.8787,8.8994,8.9525,8.979,8.979,9.0359,9.0396,8.9828,9.0359,9.0359,8.979,8.979,8.979,8.979,8.979,8.979,8.979,8.979,8.979,8.979,8.979,8.9487,8.8956,8.8388,8.7857,8.7213,8.6102,8.5685,8.5609,8.5079,8.4889,8.4711,8.3585,8.3206,8.2865,8.1197,8.0694,8.058,8.0049,7.9898,7.9898,7.9898,7.9898,7.9898,7.9898,7.9898,7.9898,7.9898,7.9898,7.9898,7.9898,7.9898,7.9822,7.9519,7.9443,7.9064,7.7972,7.7171,7.6421,7.5606,7.5308,7.5207,7.5346,7.5245,7.5219,7.5359,7.5371,7.5483,7.5745,7.5745,7.5894,7.6193,7.6193,7.6593,7.7375,7.7279,7.7603,7.837,7.8104,7.7988,7.7997,7.7696,7.7532,6.9707,7.3891,7.7799,8.0635,8.3273,8.5377,8.6235,8.6558,8.6156,8.4324,8.279,8.1178,7.9305,7.9218,8.016,8.2398,8.4109,8.5868,8.7889,8.7897,8.7549,8.718,8.6744,8.634,8.6034,8.6457,8.6761,8.6761,8.7637,8.8577,8.9449,8.998,9.0396,9.0662,9.123,9.1268,9.07,9.0965,9.0662,8.979,8.979,8.979,8.979,8.979,8.979,8.979,8.979,8.979,8.979,8.979,8.9638,8.9335,8.8805,8.8426,8.8047,8.6947,8.6367,8.5988,8.5192,8.4889,8.4738,8.3877,8.3585,8.3358,8.1993,8.1576,8.1376,8.0553,8.0315,8.0315,8.0315,8.0136,7.9973,8.0239,8.0098,7.9898,7.9898,7.9898,7.9865,7.9694,7.9634,7.9589,7.9462,7.9543,7.9366,7.8542,7.7956,7.7249,7.6256,7.6181,7.6281,7.6393,7.6405,7.6466,7.6636,7.6648,7.6761,7.7024,7.7061,7.7212,7.7512,7.7524,7.7798,7.842,7.8178,7.8354,7.8979,7.8583,7.8257,7.8014,7.7842,7.7592,7.4554,7.7848,8.0644,8.3948,8.5377,8.6196,8.6897,8.6269,8.5015,8.3234,8.0684,7.8229,7.6518,7.6851,7.8047,7.9928,8.2908,8.5578,8.715,8.791,8.8165,8.7759,8.7715,8.7615,8.7426,8.7414,8.7452,8.7516,8.7516,8.8539,9.0889,9.1117,9.1496,9.2292,9.2329,9.2329,9.2292,9.1496,9.0662,8.979,8.979,8.979,8.979,8.979,8.979,8.979,8.979,8.979,8.979,8.979,8.9335,8.8653,8.8653,8.8198,8.7516,8.7478,8.6947,8.6102,8.5306,8.4965,8.4738,8.3927,8.3661,8.351,8.2714,8.2448,8.2297,8.1425,8.1148,8.1148,8.1148,8.0591,8.0201,8.0997,8.0569,7.999,8.0011,8.0,7.9852,7.9408,7.9337,7.9228,7.8812,7.9041,7.9285,7.9261,7.9248,7.8526,7.6618,7.6331,7.6493,7.6914,7.696,7.7123,7.7489,7.7548,7.7851,7.8609,7.8685,7.9015,7.9838,7.9876,7.966,7.9174,7.9138,7.8954,7.857,7.816,7.7971,7.7971,7.7502,7.7289,7.7543,8.0945,8.3759,8.5303,8.5845,8.5884,8.5455,8.4054,8.2029,7.9038,7.6267,7.3857,7.2244,7.216,7.3535,7.7336,8.0478,8.3441,8.6267,8.7597,8.8155,8.7759,8.7818,8.7791,8.745,8.754,8.8068,8.912,8.9184,8.9449,9.0093,9.1306,9.2102,9.2292,9.2936,9.2949,9.2292,9.1496,9.0662,8.979,8.979,8.979,8.979,8.979,8.979,8.979,8.979,8.979,8.979,8.979,8.9676,8.9487,8.9487,8.9373,8.9108,8.8539,8.816,8.7857,8.7061,8.5962,8.4851,8.4635,8.456,8.4408,8.3548,8.3282,8.3131,8.2297,8.2069,8.2069,8.2069,8.1918,8.1804,8.2031,8.1626,8.1335,8.171,8.1501,8.1227,8.1093,8.1068,8.1043,8.0944,8.0759,8.0496,8.0163,7.9886,7.9403,7.8538,7.8452,7.8608,7.9051,7.9095,7.9166,7.9253,7.9253,7.9329,7.9556,7.9556,7.9512,7.939,7.9378,7.9162,7.8765,7.8451,7.8257,7.8146,7.771,7.7472,7.7472,7.735,7.7289,8.0984,8.3532,8.5445,8.6249,8.5852,8.4949,8.3648,8.1324,7.8467,7.5061,7.1877,6.9385,6.8295,6.8611,7.0567,7.5142,7.9026,8.2756,8.6442,8.8465,8.9592,8.961,8.9971,9.0073,8.9778,8.9728,9.006,9.0826,9.0245,9.0321,9.142,9.2367,9.3012,9.3391,9.3858,9.3555,9.2292,9.1837,9.1003,8.979,8.979,8.979,8.979,8.979,8.979,8.979,8.979,8.979,8.979,8.979,8.979,8.979,8.979,8.979,8.9752,8.9297,8.8918,8.8539,8.8084,8.7099,8.5912,8.5533,8.5192,8.4825,8.4332,8.4181,8.3991,8.3168,8.2941,8.2941,8.2941,8.2676,8.2486,8.2827,8.2478,8.2071,8.2328,8.2202,8.1965,8.1757,8.1545,8.1482,8.1658,8.1526,8.1353,8.1295,8.1128,8.0892,8.065,7.9973,7.96,7.9887,8.0201,8.0324,8.0118,8.0484,8.0452,7.991,7.9861,7.9576,7.8954,7.8941,7.8901,7.8851,7.829,7.8099,7.8264,7.761,7.7509,7.7876,7.7876,7.806,8.4221,8.5494,8.6285,8.6705,8.5438,8.3506,8.1411,7.8065,7.4494,7.1065,6.7616,6.5114,6.4803,6.5983,6.8553,7.3166,7.8017,8.2636,8.6772,8.9539,9.1372,9.2008,9.2641,9.2913,9.2749,9.2537,9.2417,9.2506,9.1216,9.1343,9.3479,9.3707,9.4086,9.4768,9.4806,9.4048,9.2481,9.2367,9.1534,8.998,8.9866,8.979,8.979,8.979,8.979,8.979,8.979,8.979,8.979,8.979,8.979,8.979,8.979,8.979,8.979,8.979,8.9373,8.8767,8.8767,8.8236,8.744,8.6557,8.5799,8.5192,8.5079,8.5041,8.4889,8.4029,8.3775,8.3775,8.3775,8.3244,8.2903,8.3623,8.321,8.2657,8.2702,8.2669,8.2516,8.2206,8.1794,8.1625,8.1984,8.2008,8.2066,8.2411,8.2415,8.241,8.241,8.1121,8.0228,8.0135,8.0779,8.0998,8.0517,8.1169,8.113,8.0053,7.9952,7.9626,7.8853,7.8853,7.8972,7.9261,7.8594,7.8426,7.8772,7.7986,7.8023,7.8772,7.8772,7.914,8.5458,8.6351,8.6834,8.6091,8.412,8.145,7.8156,7.4087,7.0054,6.6613,6.3676,6.1902,6.2655,6.4159,6.6729,7.1167,7.657,8.1484,8.5053,8.8675,9.1261,9.1989,9.2641,9.3017,9.3033,9.294,9.3095,9.3571,9.3369,9.3323,9.3606,9.4237,9.4654,9.4806,9.4806,9.4351,9.3403,9.2671,9.1799,9.0851,9.0131,8.979,8.979,8.979,8.979,8.979,8.979,8.979,8.979,8.979,8.979,8.979,8.979,8.979,8.979,8.979,8.9714,8.9601,8.9601,8.907,8.8274,8.744,8.7099,8.6834,8.6102,8.5874,8.5723,8.4901,8.4673,8.4673,8.4673,8.456,8.4522,8.4635,8.4287,8.399,8.4377,8.4161,8.3978,8.4306,8.3965,8.3689,8.3753,8.3471,8.3174,8.2847,8.2583,8.241,8.241,8.2145,8.1832,8.144,8.1505,8.142,8.0945,8.103,8.1027,8.081,8.0797,8.0572,8.0131,8.0079,7.9971,7.97,7.9574,7.9527,7.9596,7.9449,7.9433,7.9596,7.9596,7.9669,8.639,8.6855,8.6856,8.5782,8.2896,7.9343,7.5743,7.0878,6.6298,6.3329,6.063,5.9111,6.0157,6.2027,6.4844,6.9222,7.4824,7.9948,8.3771,8.8209,9.1373,9.2228,9.3618,9.4519,9.4568,9.4413,9.4485,9.4742,9.4653,9.4474,9.425,9.4579,9.4806,9.4806,9.4806,9.4427,9.3631,9.3176,9.2329,9.1079,9.0662,9.0245,8.979,8.979,8.979,8.979,8.979,8.979,8.979,8.979,8.979,8.979,8.979,8.979,8.979,8.979,8.979,8.979,8.979,8.9563,8.9146,8.8767,8.8084,8.7326,8.6909,8.6796,8.672,8.6303,8.6189,8.6114,8.5647,8.5533,8.542,8.5003,8.4722,8.4639,8.4854,8.5063,8.5256,8.546,8.5706,8.5888,8.5888,8.5314,8.4805,8.4615,8.4065,8.3839,8.4256,8.4332,8.3663,8.1908,8.2047,8.2056,8.1377,8.1729,8.1702,8.1044,8.0992,8.0718,8.0121,8.0085,8.0182,8.044,8.0,8.0,8.0424,8.0,8.0036,8.0424,8.0424,8.0865,8.6666,8.6966,8.6671,8.5236,8.1654,7.7467,7.3339,6.793,6.3051,6.0512,5.8094,5.6822,5.7958,6.0171,6.3134,6.7117,7.2514,7.7676,8.1908,8.6901,9.0556,9.1787,9.411,9.5652,9.5702,9.5661,9.5675,9.5675,9.5368,9.5082,9.4819,9.4806,9.4806,9.4806,9.4806,9.4503,9.3858,9.3707,9.2949,9.1609,9.1268,9.0738,9.0055,8.9904,8.979,8.979,8.979,8.979,8.979,8.979,8.979,8.979,8.979,8.979,8.979,8.979,8.979,8.979,8.979,8.979,8.979,8.979,8.8956,8.7895,8.7705,8.7668,8.763,8.744,8.7402,8.7251,8.6557,8.6379,8.6227,8.5571,8.542,8.542,8.542,8.5912,8.6379,8.6379,8.6947,8.7402,8.7402,8.6834,8.6379,8.6379,8.5837,8.5647,8.6303,8.6258,8.5309,8.2861,8.3011,8.2893,8.1814,8.2382,8.2323,8.1321,8.1415,8.1232,8.0624,8.0734,8.1122,8.1746,8.1158,8.1048,8.1525,8.1048,8.1048,8.1525,8.1709,8.2443,8.5666,8.6538,8.6365,8.3767,8.0344,7.6083,7.0221,6.4859,6.0435,5.7852,5.5934,5.5214,5.6823,5.9193,6.1793,6.4511,6.9303,7.4137,7.8369,8.3362,8.747,8.9855,9.2834,9.4829,9.5058,9.554,9.588,9.588,9.5459,9.5082,9.4819,9.4806,9.4806,9.4806,9.4806,9.4768,9.4692,9.3972,9.3517,9.3366,9.1837,9.1041,9.0965,9.0169,8.979,8.979,8.979,8.979,8.979,8.979,8.979,8.979,8.979,8.979,8.979,8.979,8.979,8.979,8.979,8.979,8.979,8.979,8.9714,8.9449,8.8729,8.8501,8.835,8.763,8.7402,8.7364,8.7289,8.7289,8.7251,8.7175,8.7175,8.7175,8.7175,8.7251,8.7289,8.7289,8.7364,8.7402,8.7402,8.7326,8.7289,8.7289,8.7213,8.7213,8.7289,8.6858,8.6307,8.5681,8.5031,8.3951,8.2275,8.2231,8.2198,8.2076,8.2774,8.3161,8.3051,8.3765,8.4205,8.4278,8.4205,8.3838,8.3161,8.3838,8.3838,8.3197,8.3948,8.4352,8.3407,8.4685,8.4864,8.3138,7.9224,7.4517,6.9533,6.4051,5.9281,5.6742,5.5318,5.4703,5.5362,5.7588,5.9973,6.1973,6.659,7.1206,7.4976,8.0285,8.4747,8.7316,9.0524,9.3004,9.4095,9.5377,9.627,9.6639,9.5872,9.5272,9.5045,9.4883,9.4806,9.4806,9.4806,9.4806,9.4806,9.4503,9.4086,9.3593,9.2911,9.2329,9.1799,9.0965,9.0586,9.0548,9.0017,8.979,8.979,8.979,8.979,8.979,8.979,8.979,8.979,8.979,8.979,8.979,8.979,8.979,8.979,8.979,8.979,8.9752,8.9411,8.9335,8.9259,8.8918,8.8842,8.8729,8.8236,8.7743,8.7402,8.7402,8.7402,8.7402,8.7402,8.7781,8.8122,8.8122,8.8501,8.8842,8.8842,8.8426,8.8122,8.8122,8.7423,8.7109,8.7651,8.7271,8.6789,8.637,8.5566,8.4698,8.3721,8.3654,8.3654,8.3654,8.3948,8.4132,8.4132,8.4425,8.4609,8.4609,8.4609,8.4462,8.4132,8.4462,8.4462,8.4132,8.4462,8.4866,7.9825,8.1558,8.2175,8.0731,7.6937,7.2392,6.7891,6.266,5.8127,5.5824,5.4472,5.3895,5.4395,5.6165,5.8242,6.0441,6.4243,6.8276,7.2161,7.7169,8.1554,8.4593,8.8209,9.121,9.3172,9.5365,9.6866,9.7438,9.6795,9.61,9.5584,9.5401,9.5161,9.4806,9.4806,9.4806,9.4806,9.4806,9.4541,9.3972,9.3707,9.329,9.2633,9.1571,9.1079,9.1041,9.0169,8.979,8.979,8.979,8.979,8.979,8.979,8.979,8.979,8.979,8.979,8.979,8.979,8.979,8.979,8.979,8.979,8.979,8.979,8.979,8.979,8.979,8.979,8.9676,8.9108,8.8539,8.8122,8.8122,8.8122,8.8048,8.7939,8.8368,8.8709,8.8582,8.9022,8.94,8.94,8.8909,8.8519,8.8519,8.7743,8.7353,8.7954,8.7634,8.7264,8.7081,8.6428,8.5609,8.4696,8.4609,8.4609,8.4609,8.4829,8.4939,8.4939,8.5196,8.5306,8.5306,8.5306,8.5196,8.4976,8.5196,8.5196,8.4976,8.5196,8.56,7.4673,7.7064,7.8264,7.5725,7.2971,6.9629,6.4506,6.005,5.6555,5.4857,5.3121,5.2467,5.4164,5.517,5.6824,6.0248,6.2243,6.5122,7.0206,7.3899,7.763,8.1823,8.614,8.9718,9.2287,9.5518,9.7653,9.8051,9.8276,9.7768,9.6471,9.6447,9.5957,9.4844,9.4806,9.4806,9.4806,9.4806,9.4806,9.4768,9.3972,9.3593,9.3517,9.1837,9.1079,9.1041,9.0169,8.979,8.979,8.979,8.979,8.979,8.979,8.979,8.979,8.979,8.979,8.979,8.979,8.979,8.979,8.979,8.979,8.979,8.979,8.979,8.979,8.979,8.979,8.979,8.979,8.979,8.979,8.979,8.979,8.9641,8.9192,8.9111,8.8938,8.85,8.8413,8.8413,8.8413,8.8413,8.8398,8.8398,8.8398,8.8398,8.8398,8.7997,8.7873,8.8324,8.7982,8.6828,8.4769,8.4609,8.4609,8.4609,8.5343,8.5783,8.5783,8.6554,8.6978,8.6978,8.6978,8.6591,8.5783,8.6591,8.6591,8.58,8.6591,8.6978,6.9749,7.2066,7.3365,7.2444,6.9804,6.6436,6.2474,5.8748,5.5478,5.3197,5.2274,5.2236,5.339,5.4318,5.5972,5.9358,6.1814,6.4891,6.9436,7.3514,7.7361,8.1054,8.6748,9.1633,9.4788,9.6424,9.782,9.9102,9.8555,9.8024,9.7597,9.6898,9.6042,9.5108,9.4895,9.4806,9.4806,9.4806,9.4806,9.4806,9.4541,9.4427,9.4351,9.2671,9.1913,9.1837,9.0434,8.979,8.979,8.979,8.979,8.979,8.979,8.979,8.979,8.979,8.979,8.979,8.979,8.979,8.979,8.979,8.979,8.979,8.979,8.979,8.979,8.979,8.979,8.979,8.979,8.979,8.9716,8.94,8.9553,8.9566,8.8772,8.9125,8.9439,8.8976,8.9138,8.9245,8.8948,8.8893,8.8758,8.8442,8.8136,8.792,8.792,8.7815,8.7768,8.7904,8.809,8.7912,8.7239,8.7201,8.7201,8.7201,8.7446,8.7558,8.7558,8.7818,8.7966,8.7966,8.7966,8.7818,8.7558,8.7818,8.7818,8.7595,8.7528,8.7655,6.3626,6.5887,6.7159,6.6705,6.4782,6.2281,5.9517,5.6742,5.4203,5.2274,5.1885,5.2159,5.3044,5.4164,5.6049,5.9435,6.1852,6.4891,6.9513,7.3245,7.7476,8.2824,8.8594,9.3328,9.6367,9.7345,9.8434,9.9923,9.96,9.9119,9.8725,9.7696,9.6717,9.5829,9.5148,9.4806,9.4806,9.4806,9.4806,9.4806,9.4806,9.4806,9.4768,9.3403,9.2595,9.2216,9.0889,9.0093,0.0,8.979,8.979,8.979,8.979,8.979,8.979,8.979,8.979,8.979,8.979,8.979,8.979,8.979,8.979,8.979,8.979,8.979,8.979,8.979,9.0055,9.0207,8.9904,9.0055,9.0108,8.928,8.9297,8.9348,8.8558,8.8879,8.9178,8.8907,8.9071,8.9178,8.8907,8.8935,8.8816,8.8234,8.8133,8.8037,8.7741,8.7841,8.8028,8.8212,8.8471,8.8753,8.8934,8.8587,8.8398,8.8398,8.8398,8.8398,8.8398,8.8398,8.8398,8.8398,8.8398,8.8398,8.8398,8.8398,8.8398,8.8383,8.8302,8.8302,0.0,5.9011,6.0242,5.9435,5.8627,5.7588,5.5895,5.428,0.0,5.2005,5.1846,5.2159,5.3044,5.4587,5.6824,6.0248,6.2243,6.516,7.0283,7.3514,7.8361,8.6517,9.1086,9.4541,9.6994,9.8143,9.9283,10.0509,10.0997,10.0796,9.9745,9.8675,9.7711,9.6832,9.55,9.4806,9.4806,9.4806,9.4806,9.4806,9.4806,9.4806,9.4768,9.3896,9.305,9.2254,9.1382,9.0548,8.979,8.979,8.979,8.979,8.979,8.979,8.979,8.979,8.979,8.979,8.979,8.979,8.979,8.979,8.979,8.979,8.979,8.979,8.979,8.979,9.0434,9.0889,8.9981,9.0397,9.0701,8.9351,8.9057,8.8976,8.8442,8.8487,8.8598,8.8554,8.8621,8.8673,8.8629,8.8871,8.8838,8.8064,8.8583,8.8768,8.7953,8.8256,8.8676,8.9057,8.9125,8.9348,8.9753,8.9003,8.8486,8.8486,8.8486,8.8486,8.8486,8.8486,8.8486,8.8486,8.8486,8.8486,8.8486,8.8486,8.8486,8.85,8.8921,8.8855,5.0856,0.0,5.6863,5.6626,5.5972,5.5126,0.0,5.2967,5.1967,5.1164,5.1467,5.2159,5.3044,5.4587,5.6824,6.0248,6.2781,6.609,7.1174,7.7445,8.3216,8.7872,9.0806,9.3784,9.7126,9.7922,9.9009,10.0809,10.0983,10.0718,9.9735,9.8675,9.7711,9.6832,9.55,9.4806,9.4806,9.4806,9.4806,9.4806,9.4806,9.4806,9.4768,9.329,9.2481,9.2216,9.0738,8.998,8.979,8.979,8.979,8.979,8.979,8.979,8.979,8.979,8.979,8.979,8.979,8.979,8.979,8.979,8.979,8.979,8.979,8.979,8.979,8.979,9.0434,9.0827,8.96,8.9899,9.0125,8.8428,8.8596,8.8879,8.8044,8.9226,9.0368,9.0008,9.0739,9.1274,9.0911,9.0907,9.0794,9.0235,9.0323,9.0137,8.9316,8.9618,8.9717,8.916,8.9426,8.9692,8.9778,8.9616,8.9464,8.9464,8.9464,8.9464,8.9464,8.9464,8.9464,8.9464,8.9464,8.9464,8.9464,8.9464,8.9464,8.9464,8.9205,8.9218,4.8933,5.1048,5.29,5.3323,5.3092,5.2631,5.2164,5.1702,5.1318,5.1279,5.1928,5.289,5.4126,5.5742,5.8011,6.1396,6.4089,6.8205,7.5284,8.187,8.7064,9.0094,9.2197,9.4628,9.7634,9.8214,9.9149,10.0896,10.0722,10.0389,9.9928,9.8359,9.7291,9.6794,9.55,9.4806,9.4806,9.4806,9.4806,9.4806,9.4806,9.4806,9.4768,9.3479,9.2671,9.2216,9.0965,9.0169,8.979,8.979,8.979,8.979,8.979,8.979,8.979,8.979,8.979,8.979,8.979,8.979,8.979,8.979,8.979,8.9866,9.0283,9.0396,9.0321,8.9904,9.07,9.1408,9.0284,9.0647,9.0904,8.9286,8.9015,8.9088,8.8965,8.9901,9.0875,9.1227,9.1849,9.2228,9.1971,9.2072,9.1926,9.1308,9.1527,9.149,9.0679,9.0997,9.1021,9.0316,9.0687,9.0701,9.0082,9.0247,9.0245,8.9828,8.979,8.979,8.979,8.979,8.979,8.979,8.979,8.979,8.979,8.9566,8.9477,8.9464,8.9003,8.8934,4.874,4.9317,4.9625,5.063,5.0976,5.1092,5.1092,5.1092,5.1284,5.1967,5.289,5.4049,5.5593,5.7511,5.9973,6.3352,6.6782,7.1937,8.0323,8.5747,8.9787,9.221,9.4077,9.5992,9.8253,9.8729,9.9527,10.091,10.0391,9.9981,9.9865,9.7882,9.67,9.6547,9.5412,9.4806,9.4806,9.4806,9.4806,9.4806,9.4806,9.4806,9.4768,9.382,9.3024,9.2254,9.1306,9.0472,8.979,8.979,8.979,8.979,8.979,8.979,8.979,8.979,8.979,8.979,8.979,8.979,8.979,8.979,8.979,8.9942,9.0662,9.1003,9.0927,9.0207,9.1192,9.2279,9.142,9.1787,9.2062,9.0782,8.996,8.9676,9.0429,9.0747,9.121,9.2304,9.2595,9.2671,9.2671,9.2902,9.2884,9.2196,9.2672,9.2809,9.2007,9.2239,9.2303,9.1744,9.2074,9.1849,9.0699,9.1028,9.0927,9.0055,8.9866,8.979,8.979,8.979,8.9766,8.9704,8.9704,8.9667,8.9604,8.9178,8.9003,8.8989,8.8573,8.8398,4.7855,4.8856,4.9779,5.1313,5.2274,5.2818,5.2818,5.2818,5.2856,5.2967,5.4241,5.5631,5.6632,5.9363,6.2595,6.5981,7.2899,7.9131,8.2716,8.6978,9.0402,9.2287,9.4446,9.6548,9.8539,9.9227,10.0013,10.1191,10.0302,9.9452,9.8713,9.7333,9.6215,9.5479,9.5034,9.4806,9.4806,9.4806,9.4806,9.4806,9.4806,9.4806,9.4768,9.3201,9.2443,9.2216,9.0662,8.9904,8.979,8.979,8.979,8.979,8.979,8.979,8.979,8.979,8.979,8.979,8.979,8.979,8.979,8.979,8.979,8.9828,8.998,9.051,9.1079,9.0927,9.2102,9.31,9.1838,9.2158,9.2448,9.1125,9.1028,9.1271,9.1384,9.2309,9.3175,9.3353,9.3972,9.4427,9.4427,9.4438,9.4437,9.4337,9.4399,9.421,9.3377,9.3365,9.3113,9.2279,9.2254,9.2229,9.2014,9.2064,9.1761,9.0965,9.0207,8.979,8.979,8.979,8.9591,8.9205,8.9192,8.9017,8.8601,8.8529,8.85,8.85,8.8427,8.8398,4.7625,4.9086,5.0515,5.2197,5.3274,5.3895,5.3895,5.4587,5.5395,5.5857,5.6896,5.828,6.0089,6.205,6.532,7.0975,7.79,8.3439,8.5986,8.9498,9.2421,9.412,9.5682,9.7311,9.9112,9.968,10.0112,10.0389,9.9529,9.8581,9.7571,9.6432,9.561,9.5229,9.507,9.4946,9.4806,9.4946,9.4946,9.4806,9.4806,9.4806,9.473,9.305,9.2292,9.2216,9.0548,8.979,8.9828,9.0321,9.051,9.051,9.051,9.051,9.0434,8.998,9.0093,9.0434,8.998,9.0093,9.0434,8.9942,8.979,8.998,9.0889,9.142,9.195,9.2822,9.3328,9.3466,9.2831,9.2967,9.3102,9.2497,9.214,9.2098,9.2589,9.3162,9.3745,9.4162,9.4541,9.4806,9.4806,9.4806,9.4806,9.4806,9.4806,9.4692,9.4313,9.4237,9.3996,9.3342,9.3489,9.3377,9.2649,9.2846,9.2443,9.1192,9.07,9.0283,8.9828,9.0245,9.0058,8.9111,8.9098,8.8879,8.8398,8.8166,8.8028,8.8013,8.7746,8.7655,4.7702,4.951,5.1395,5.3087,5.4434,5.5434,5.5626,5.7132,5.8709,5.9588,6.0589,6.1935,6.4083,6.6359,7.0014,7.6707,8.2439,8.6885,8.9187,9.2152,9.4521,9.5747,9.7091,9.8388,9.9654,10.0114,10.021,9.9728,9.8849,9.7861,9.6843,9.579,9.5215,9.5274,9.5274,9.5155,9.4895,9.5094,9.5058,9.4806,9.4806,9.4806,9.473,9.305,9.2292,9.2216,9.0548,8.979,8.9866,9.0738,9.1079,9.1079,9.1079,9.0965,9.07,9.0055,9.0359,9.1003,9.0321,9.0662,9.1268,9.0586,9.0396,9.0624,9.1913,9.2443,9.286,9.4162,9.4199,9.3896,9.3896,9.3896,9.3896,9.3896,9.3366,9.305,9.3745,9.3896,9.4048,9.4692,9.4806,9.4806,9.4806,9.4806,9.4806,9.4806,9.4806,9.4806,9.4806,9.4806,9.4676,9.4301,9.461,9.436,9.3344,9.3345,9.291,9.1761,9.1408,9.0852,9.0069,9.0673,9.0513,8.9358,8.9344,8.9113,8.8633,8.8275,8.8101,8.8101,8.7735,8.7455,4.7851,4.9928,5.2236,5.3972,5.6242,5.8204,5.8973,6.1044,6.3083,6.3974,6.5436,6.6865,6.7853,7.3206,7.8715,8.2447,8.6709,9.0063,9.1635,9.4302,9.604,9.5931,9.8278,9.9923,10.0087,10.0779,10.0816,9.9766,9.8709,9.7734,9.6832,9.579,9.5298,9.5565,9.5576,9.5452,9.5167,9.5179,9.5058,9.4806,9.4806,9.4806,9.473,9.305,9.2292,9.2216,9.0548,8.979,8.9866,9.0738,9.1079,9.1079,9.1079,9.0624,8.9904,8.9828,9.0359,9.1079,9.1041,9.1534,9.2216,9.214,9.2102,9.214,9.2254,9.286,9.3517,9.3669,9.4199,9.473,9.473,9.473,9.473,9.473,9.4692,9.4654,9.4692,9.473,9.473,9.4806,9.4806,9.4806,9.4806,9.4806,9.4806,9.4806,9.4806,9.4806,9.4806,9.4806,9.4793,9.4754,9.478,9.4755,9.4641,9.3539,9.3008,9.3416,9.2256,9.1301,9.0752,9.0797,9.0584,9.0057,9.004,8.9814,8.934,8.9287,8.9269,8.9269,8.9234,8.8812,4.8548,5.0351,5.2428,5.4703,5.7978,6.0858,6.166,6.466,6.7667,6.9052,7.0667,7.2245,7.3668,7.7746,8.1985,8.5401,8.9403,9.268,9.4465,9.6687,9.8204,9.8267,9.9194,9.9808,9.9632,9.967,9.9178,9.7819,9.7582,9.7036,9.589,9.5582,9.544,9.5333,9.5626,9.5527,9.4958,9.5274,9.5227,9.4806,9.4806,9.4806,9.473,9.305,9.2292,9.2216,9.0548,8.979,8.9904,9.1268,9.1837,9.1837,9.1837,9.1647,9.1306,9.0775,9.1458,9.2557,9.2026,9.2405,9.3012,9.2481,9.2292,9.2405,9.2936,9.3328,9.3707,9.4199,9.4579,9.4806,9.4806,9.4806,9.4806,9.4806,9.4806,9.4806,9.4806,9.4806,9.4806,9.4806,9.4806,9.4806,9.4806,9.4806,9.4806,9.4806,9.5248,9.54,9.4882,9.5286,9.54,9.4882,9.4806,9.4806,9.4806,9.4347,9.3865,9.3434,9.248,9.1746,9.1285,9.1508,9.1124,9.0128,9.0111,8.9881,8.94,8.94,8.94,8.9417,8.9747,8.9716,4.9356,5.1241,5.339,5.6203,5.994,6.3518,6.5968,6.9206,7.2245,7.4207,7.5938,7.763,7.9361,8.1737,8.4566,8.8047,9.1538,9.4368,9.5944,9.7904,9.9091,9.8919,9.9121,9.9211,9.902,9.8766,9.8033,9.6702,9.6888,9.6538,9.5409,9.5509,9.552,9.531,9.5637,9.5385,9.4516,9.4893,9.4706,9.401,9.4275,9.4541,9.4768,9.3353,9.2557,9.2216,9.0813,9.0207,9.0321,9.1723,9.2443,9.2709,9.2709,9.2519,9.2216,9.1685,9.2367,9.3517,9.2911,9.3277,9.3896,9.329,9.3088,9.3201,9.382,9.3972,9.4086,9.4654,9.4806,9.4806,9.4806,9.4806,9.4806,9.4806,9.4806,9.4806,9.4806,9.4806,9.4806,9.4806,9.4806,9.4806,9.4806,9.4806,9.4806,9.4806,9.5551,9.5892,9.5286,9.5741,9.5779,9.4882,9.4806,9.4806,9.4806,9.4676,9.437,9.3813,9.2822,9.2175,9.1934,9.2154,9.1902,9.1114,9.1114,9.0889,9.0417,9.0417,9.0417,9.0417,9.0775,9.0893,5.0245,5.2592,5.5318,5.8704,6.2127,6.6205,7.2161,7.4822,7.6784,7.9361,8.1208,8.2901,8.4585,8.5432,8.7012,9.0636,9.316,9.5,9.5795,9.7587,9.8404,9.735,9.7894,9.8393,9.8393,9.8189,9.7711,9.6832,9.6805,9.6461,9.5648,9.5609,9.5609,9.5598,9.556,9.5028,9.3897,9.3897,9.3347,9.2292,9.3176,9.401,9.4768,9.3972,9.3138,9.2254,9.142,9.1079,9.1155,9.1988,9.2822,9.3631,9.3593,9.31,9.2329,9.2329,9.286,9.3631,9.3631,9.4124,9.4806,9.4806,9.4806,9.4806,9.4806,9.4806,9.4806,9.4806,9.4806,9.4806,9.4806,9.4806,9.4806,9.4806,9.4806,9.4806,9.4806,9.4806,9.4806,9.4806,9.4806,9.4806,9.4806,9.4806,9.4806,9.4806,9.5551,9.6107,9.6107,9.6107,9.5779,9.4882,9.4806,9.4806,9.4806,9.437,9.4301,9.4767,9.3407,9.2626,9.2626,9.261,9.2823,9.3277,9.3277,9.3062,9.261,9.261,9.261,9.261,9.261,9.2426,5.1664,5.4313,5.7198,6.1198,6.5628,7.0283,7.5091,7.7476,7.99,8.4247,8.6017,8.6752,8.649,8.7569,8.9199,9.1452,9.3777,9.57,9.6847,9.7893,9.8388,9.8096,9.7741,9.7486,9.7298,9.6827,9.6395,9.6003,9.6243,9.6278,9.5818,9.5282,9.4864,9.4692,9.4157,9.3499,9.2795,9.2965,9.2815,9.2292,9.2557,9.3138,9.3934,9.305,9.2519,9.2216,9.0813,9.0548,9.1192,9.2633,9.3707,9.4389,9.382,9.3783,9.401,9.3441,9.3745,9.4427,9.4427,9.4616,9.4806,9.4806,9.4806,9.4806,9.4806,9.4806,9.4806,9.4806,9.4806,9.4806,9.4806,9.4806,9.4806,9.4806,9.4806,9.4806,9.4806,9.4806,9.4806,9.4806,9.4806,9.4806,9.4806,9.4806,9.4806,9.4806,9.6006,9.694,9.694,9.6448,9.5779,9.4882,9.4806,9.4806,9.4806,9.4689,9.4505,9.4315,9.3879,9.3642,9.3642,9.297,9.2823,9.3277,9.3277,9.3252,9.3094,9.3094,9.3094,9.311,9.3491,9.362,5.328,5.6319,5.9698,6.4622,6.9398,7.4476,8.0485,8.2862,8.4901,8.8632,8.9825,9.008,8.9678,9.0139,9.1136,9.2833,9.4561,9.5971,9.6895,9.7596,9.7871,9.7455,9.6901,9.6489,9.6347,9.591,9.5659,9.5702,9.5989,9.5924,9.5412,9.4913,9.4349,9.3681,9.3174,9.2573,9.1849,9.1997,9.1807,9.1306,9.1647,9.2102,9.2607,9.2367,9.214,9.1761,9.1079,9.1268,9.219,9.3517,9.4351,9.4768,9.4275,9.4389,9.473,9.4275,9.4389,9.4806,9.4806,9.4806,9.4806,9.4806,9.4806,9.4806,9.4806,9.4806,9.4806,9.4806,9.4806,9.4806,9.4806,9.4806,9.4806,9.4806,9.4676,9.4505,9.4505,9.4505,9.4505,9.4505,9.4689,9.4806,9.4806,9.4806,9.4806,9.4806,9.6233,9.7433,9.7774,9.7092,9.6258,9.54,9.5033,9.4806,9.4806,9.4806,9.4689,9.4397,9.4203,9.4189,9.437,9.3612,9.3429,9.3885,9.39,9.3709,9.3277,9.3514,9.3514,9.3292,9.385,9.4203,5.5016,5.8555,6.2666,6.859,7.3514,7.9015,8.7102,8.9594,9.0701,9.2287,9.2672,9.2878,9.3322,9.2833,9.2833,9.4366,9.5325,9.5981,9.626,9.6942,9.702,9.6007,9.5713,9.5609,9.5632,9.5368,9.5437,9.59,9.5864,9.547,9.4665,9.4433,9.3806,9.2649,9.2515,9.1967,9.0977,9.0965,9.0586,8.9828,9.0586,9.1003,9.1117,9.1875,9.1799,9.1155,9.195,9.2784,9.3669,9.4465,9.4806,9.4806,9.4806,9.4806,9.4806,9.4806,9.4806,9.4806,9.4806,9.4806,9.4806,9.4806,9.4806,9.4806,9.4806,9.4806,9.4806,9.4806,9.4806,9.4806,9.4806,9.4806,9.4793,9.4754,9.4411,9.4104,9.4104,9.4104,9.4104,9.4104,9.4465,9.4806,9.4806,9.4806,9.4844,9.4983,9.6309,9.7622,9.8508,9.7901,9.7092,9.6296,9.5411,9.4855,9.4855,9.4753,9.4651,9.4651,9.4273,9.4245,9.4728,9.4328,9.4301,9.4741,9.4741,9.4263,9.3277,9.3806,9.3791,9.3292,9.385,9.4328,5.6626,6.1204,6.6051,7.1353,7.8354,8.5093,8.9633,9.1825,9.2979,9.3364,9.3989,9.4233,9.3534,9.3753,9.4213,9.4606,9.5373,9.5981,9.626,9.6442,9.6405,9.5931,9.5713,9.5675,9.5818,9.5626,9.5719,9.6194,9.5578,9.5117,9.4925,9.331,9.2268,9.2019,9.0962,9.0306,9.0093,9.0093,8.998,8.979,8.998,9.0434,9.1117,9.1268,9.1268,9.1155,9.195,9.2784,9.3669,9.4465,9.4806,9.4806,9.4806,9.4806,9.4806,9.4806,9.4806,9.4806,9.4806,9.4806,9.4806,9.4806,9.4806,9.4806,9.4806,9.4806,9.4806,9.4806,9.4806,9.4806,9.4806,9.4806,9.4715,9.4342,9.4175,9.4104,9.4104,9.4104,9.4104,9.4104,9.4465,9.4806,9.4806,9.4806,9.5248,9.6575,9.7054,9.7622,9.8508,9.8432,9.8015,9.713,9.5939,9.5202,9.5202,9.4232,9.3635,9.3635,9.3544,9.3695,9.4231,9.4161,9.4147,9.4245,9.4245,9.3937,9.3277,9.3422,9.3422,9.3292,9.385,9.4161,5.7736,6.2589,6.8475,7.6854,8.347,8.8701,9.171,9.2787,9.348,9.4672,9.5326,9.5424,9.4723,9.5031,9.5367,9.5278,9.5722,9.6127,9.6269,9.6288,9.6213,9.5931,9.5713,9.5506,9.5305,9.4982,9.4872,9.5058,9.4551,9.4118,9.3826,9.2622,9.1702,9.1177,9.0407,8.9911,8.979,8.979,8.979,8.9828,9.0207,9.0851,9.1647,9.1647,9.1913,9.2342,9.2746,9.3403,9.4199,9.4616,9.4806,9.4806,9.4806,9.4806,9.4806,9.4806,9.4806,9.4806,9.4806,9.4806,9.4806,9.4806,9.4806,9.4806,9.4806,9.4806,9.4806,9.4806,9.4806,9.4806,9.4806,9.4806,9.4741,9.4478,9.4067,9.3672,9.3429,9.3567,9.3732,9.3732,9.4291,9.4806,9.4806,9.5134,9.6006,9.7674,9.7939,9.8229,9.9076,9.8849,9.8432,9.7977,9.6333,9.5323,9.5323,9.4054,9.3277,9.3277,9.3277,9.3544,9.409,9.4104,9.4104,9.4104,9.4104,9.3732,9.2949,9.3438,9.3544,9.3308,9.4081,9.4315,5.8357,6.4089,7.1437,8.22,8.7316,9.0355,9.2903,9.2979,9.3133,9.5403,9.598,9.6049,9.5991,9.6136,9.6232,9.6029,9.6136,9.6288,9.6288,9.6288,9.6222,9.5981,9.5651,9.5215,9.4703,9.4168,9.3786,9.3713,9.3409,9.3044,9.2509,9.2066,9.1439,9.0527,9.0257,9.0006,8.979,8.979,8.979,8.9828,9.0813,9.1723,9.2519,9.2671,9.305,9.3593,9.3593,9.4048,9.4806,9.4806,9.4806,9.4806,9.4806,9.4806,9.4806,9.4806,9.4806,9.4806,9.4806,9.4806,9.4806,9.4806,9.4806,9.4806,9.4806,9.4806,9.4806,9.4806,9.4806,9.4806,9.4806,9.4806,9.4818,9.4867,9.4255,9.3479,9.2975,9.3157,9.3453,9.3453,9.418,9.4844,9.4983,9.5627,9.6675,9.8356,9.8621,9.8887,9.972,9.9228,9.8811,9.8811,9.688,9.5531,9.5381,9.408,9.3211,9.3062,9.3141,9.3407,9.3923,9.4061,9.4104,9.4104,9.4033,9.3521,9.261,9.3429,9.3672,9.3308,9.4249,9.4465,5.8357,6.7552,7.7369,8.3393,8.6901,8.9526,9.2095,9.2595,9.2787,9.3826,9.4643,9.5403,9.6097,9.6269,9.6279,9.6251,9.6269,9.6288,9.6288,9.6288,9.6279,9.6251,9.5338,9.479,9.4925,9.4042,9.3543,9.3692,9.3038,9.2606,9.2518,9.1365,9.0635,9.0489,9.0087,8.9827,8.979,8.979,8.979,8.9828,9.1382,9.2595,9.3441,9.4162,9.4162,9.3593,9.3593,9.4048,9.4806,9.4806,9.4806,9.4806,9.4806,9.4806,9.4806,9.4806,9.4806,9.4806,9.4806,9.4806,9.4806,9.4806,9.4806,9.4806,9.4806,9.4806,9.4806,9.4806,9.4806,9.4806,9.4806,9.4806,9.4867,9.5154,9.5121,9.4831,9.4044,9.3961,9.3981,9.3981,9.4424,9.5021,9.5816,9.6031,9.6675,9.8356,9.8621,9.8887,9.972,9.972,9.9645,9.9645,9.7907,9.6489,9.5794,9.4128,9.2811,9.2038,9.2456,9.2921,9.3392,9.385,9.4104,9.4104,9.3635,9.3141,9.261,9.2707,9.2986,9.3292,9.3923,9.4161,5.9967,6.8244,7.6399,8.1516,8.5401,8.8632,9.1171,9.1787,9.2133,9.3441,9.3633,9.3864,9.4672,9.4826,9.4826,9.4826,9.4733,9.4897,9.5509,9.5141,9.5034,9.5528,9.4712,9.3973,9.3633,9.2919,9.2438,9.2299,9.188,9.1631,9.1778,9.0952,9.0489,9.0489,9.0052,8.979,8.979,8.979,9.0283,9.1192,9.195,9.2974,9.4275,9.4654,9.4616,9.4275,9.4275,9.4465,9.4806,9.4806,9.4806,9.4806,9.4806,9.4806,9.4806,9.4806,9.4806,9.4806,9.4806,9.4806,9.4806,9.4806,9.4806,9.4806,9.4806,9.4806,9.4806,9.4806,9.4806,9.4806,9.4806,9.4806,9.483,9.4986,9.5385,9.565,9.531,9.4966,9.4717,9.4551,9.4676,9.5058,9.5968,9.6448,9.7016,9.7736,9.828,9.8545,9.8418,9.8849,9.9019,9.8716,9.7717,9.6616,9.5516,9.3983,9.2849,9.2268,9.2473,9.2937,9.3732,9.3952,9.4104,9.4104,9.3865,9.3484,9.2981,9.3305,9.3552,9.3777,9.4273,9.4342,6.089,6.7314,7.343,7.8515,8.2824,8.6517,8.9286,9.0248,9.0979,9.2441,9.2441,9.2364,9.2941,9.3403,9.371,9.371,9.3515,9.3707,9.4637,9.4142,9.3984,9.4728,9.4026,9.323,9.2631,9.2018,9.1528,9.1222,9.1029,9.0973,9.113,9.0671,9.0432,9.0432,9.0029,8.979,8.979,9.0017,9.0851,9.2292,9.2519,9.3391,9.4806,9.4806,9.4806,9.4806,9.4806,9.4806,9.4806,9.4806,9.4806,9.4806,9.4806,9.4806,9.4806,9.4806,9.4806,9.4806,9.4806,9.4806,9.4806,9.4806,9.4806,9.4806,9.4806,9.4806,9.4806,9.4806,9.4806,9.4806,9.4806,9.4806,9.4882,9.5058,9.5779,9.641,9.641,9.6093,9.5653,9.5234,9.5134,9.5324,9.5993,9.6751,9.7281,9.7281,9.8053,9.828,9.7395,9.7863,9.8107,9.7733,9.7237,9.6463,9.5268,9.4116,9.3294,9.2831,9.2905,9.332,9.4076,9.4217,9.4273,9.4273,9.4273,9.4024,9.3514,9.3894,9.4161,9.4287,9.465,9.4599,5.994,6.4705,6.9891,7.4976,7.8861,8.2285,8.5593,8.7632,8.9064,8.9932,9.0701,9.1287,9.1325,9.2633,9.371,9.371,9.3515,9.3552,9.3986,9.3836,9.3846,9.4285,9.3449,9.2813,9.2774,9.1848,9.1222,9.1201,9.1029,9.0915,9.0925,9.0481,9.0228,9.0228,8.9935,8.979,8.979,9.0624,9.1458,9.2292,9.3138,9.3972,9.4806,9.4806,9.4806,9.4806,9.4806,9.4806,9.4806,9.4806,9.4806,9.4806,9.4806,9.4806,9.4806,9.4806,9.4806,9.4806,9.4806,9.4806,9.4806,9.4806,9.4806,9.4806,9.4806,9.4806,9.4806,9.4806,9.4806,9.4806,9.4806,9.4806,9.5033,9.5854,9.6637,9.7244,9.7244,9.723,9.6952,9.6182,9.6031,9.6031,9.6069,9.6751,9.7281,9.7281,9.8053,9.828,9.7395,9.7319,9.7357,9.7331,9.6856,9.6206,9.5364,9.4824,9.4169,9.332,9.3747,9.4047,9.4104,9.4519,9.4767,9.4767,9.4767,9.4519,9.4076,9.409,9.4328,9.4767,9.4793,9.4793,5.6126,5.9665,6.3897,6.9013,7.3283,7.7392,8.1862,8.4632,8.6632,8.8017,8.9498,9.0574,9.0574,9.1407,9.2156,9.2285,9.2122,9.2318,9.3228,9.2811,9.269,9.3459,9.271,9.2106,9.1993,9.1487,9.121,9.121,9.1029,9.0906,9.0906,9.0569,9.04,9.04,9.0167,8.9958,8.979,9.0093,9.0965,9.2292,9.2633,9.3479,9.4806,9.4806,9.4806,9.4806,9.4806,9.4806,9.4806,9.4806,9.4806,9.4806,9.4806,9.4806,9.4806,9.4806,9.4806,9.4806,9.4806,9.4806,9.4806,9.4806,9.4806,9.4806,9.4806,9.4806,9.4806,9.4806,9.4806,9.4806,9.4806,9.4806,9.5134,9.6523,9.7092,9.7585,9.8646,9.8508,9.7749,9.6372,9.6107,9.5917,9.5362,9.6385,9.694,9.5854,9.6878,9.7257,9.5854,9.6196,9.6379,9.6054,9.6299,9.6043,9.4939,9.4716,9.4373,9.3829,9.3981,9.4231,9.4519,9.4715,9.4806,9.4806,9.4806,9.4728,9.4532,9.4532,9.465,9.4806,9.4806,9.4806,5.3664,5.6319,5.9665,6.3942,6.7975,7.2206,7.7015,8.0346,8.3056,8.5329,8.7524,8.9188,8.9768,9.0225,9.0752,9.1494,9.1423,9.1615,9.2551,9.2041,9.1873,9.267,9.2134,9.1648,9.1491,9.1325,9.121,9.121,9.0925,9.0769,9.0769,9.0453,9.0252,9.0252,9.0133,8.997,8.979,9.0093,9.0927,9.2292,9.2595,9.3467,9.4806,9.4806,9.4806,9.4806,9.4806,9.4806,9.4806,9.4806,9.4806,9.4806,9.4806,9.4806,9.4806,9.4806,9.4806,9.4806,9.4806,9.4806,9.4806,9.4806,9.4806,9.4806,9.4806,9.4806,9.4806,9.4806,9.4806,9.4806,9.4806,9.4806,9.521,9.6902,9.7281,9.7698,9.9114,9.919,9.8583,9.7206,9.694,9.665,9.5779,9.6802,9.7181,9.5475,9.6423,9.6688,9.5033,9.5324,9.5509,9.5186,9.5597,9.5597,9.4751,9.4684,9.4568,9.4352,9.4328,9.4465,9.4793,9.4806,9.4806,9.4806,9.4806,9.4806,9.4806,9.4806,9.4806,9.4806,9.4806,9.5109,0.0,0.0,0.0,6.0017,6.3217,6.6878,7.1073,7.4783,7.8323,8.1716,8.4655,8.7101,8.8735,8.909,8.9717,9.1429,9.1502,9.1496,9.1996,9.1661,9.1534,9.2034,9.1747,9.1522,9.1522,9.1325,9.1201,9.1201,9.0761,9.0489,9.0478,9.0075,8.9802,8.9814,8.9802,8.9802,8.9802,9.0624,9.1458,9.2254,9.3138,9.3972,9.473,9.473,9.473,9.473,9.473,9.473,9.4768,9.4806,9.4806,9.4806,9.4806,9.4806,9.4806,9.4806,9.4806,9.4806,9.4806,9.4806,9.4806,9.4806,9.4806,9.4806,9.4806,9.4806,9.4806,9.4806,9.4806,9.4806,9.4806,9.4806,9.521,9.6878,9.7281,9.7547,9.8432,9.9228,9.9569,9.8735,9.8583,9.8318,9.7433,9.8001,9.8053,9.6334,9.6789,9.6688,9.5033,9.4806,9.4806,9.4806,9.4806,9.4806,9.4806,9.4806,9.4806,9.4806,9.4806,9.4806,9.4806,9.4806,9.4806,9.4806,9.4806,9.4806,9.4806,9.4806,9.4806,9.4806,9.4806,9.5703,5.1323,0.0,0.0,0.0,0.0,0.0,6.694,7.1029,7.4833,7.762,8.1364,8.4492,8.5559,8.6843,8.8084,8.9032,8.9537,9.0128,9.1034,9.0935,9.1023,9.1799,9.1655,9.1522,9.1522,9.1325,9.1148,9.1001,9.0681,9.0453,9.0279,9.0144,9.0156,9.0285,9.0167,9.0102,9.0102,9.0152,9.0586,9.142,9.1685,9.2216,9.2974,9.2974,9.2974,9.2974,9.2974,9.3353,9.3972,9.4579,9.4806,9.4806,9.4806,9.4806,9.4806,9.4806,9.4806,9.4806,9.4806,9.4806,9.4806,9.4806,9.4806,9.4806,9.4806,9.4806,9.4806,9.4806,9.4806,9.4806,9.4806,9.4806,9.5058,9.6182,9.6865,9.7547,9.8432,9.9228,9.9379,9.7926,9.8166,9.8318,9.7433,9.8001,9.8053,9.6334,9.6789,9.6688,9.5033,9.4806,9.4806,9.4806,9.4806,9.4806,9.4806,9.4806,9.4806,9.4806,9.4806,9.4806,9.4806,9.4806,9.4806,9.4806,9.4806,9.4806,9.4806,9.4806,9.4806,9.4806,9.4806,9.5703,0.0,0.0,5.351,5.4857,0.0,0.0,6.3197,6.6584,6.9931,7.3217,7.6914,7.9973,8.1441,8.2933,8.4229,8.5296,8.5707,8.6884,8.9781,9.0,9.0069,9.0566,9.0441,9.0326,9.0326,9.0227,9.0128,8.9972,8.9658,8.931,8.9052,8.9029,8.9098,8.9206,8.9414,8.9523,8.9523,8.9711,9.0245,9.1079,9.1079,9.1534,9.2292,9.2292,9.2292,9.2292,9.2292,9.2595,9.31,9.3555,9.4162,9.4806,9.4806,9.4579,9.4351,9.4692,9.4579,9.4351,9.4692,9.4806,9.4806,9.4806,9.4806,9.4806,9.4806,9.4806,9.4806,9.4806,9.4806,9.4806,9.4806,9.4806,9.5021,9.5879,9.6448,9.694,9.7446,9.8191,9.8646,9.8394,9.8773,9.8962,9.8418,9.8773,9.8659,9.7319,9.7244,9.684,9.5513,9.5021,9.4806,9.4806,9.4806,9.4806,9.4806,9.4806,9.4806,9.4806,9.4806,9.4806,9.4806,9.4806,9.4958,9.5324,9.4983,9.4806,9.4806,9.4806,9.4806,9.4806,9.4806,9.5703,0.0,0.0,0.0,0.0,5.5191,0.0,5.9872,6.2095,6.4641,6.8606,7.1625,7.423,7.6545,7.7691,7.8816,8.0459,8.0668,8.2497,8.7936,8.8712,8.8719,8.8796,8.8751,8.8718,8.8718,8.8718,8.8709,8.8645,8.8242,8.7824,8.7461,8.7414,8.7414,8.7438,8.8096,8.8513,8.8613,8.9309,9.0093,9.0965,9.0965,9.1344,9.2026,9.2026,9.2026,9.2026,9.2026,9.2064,9.2178,9.2178,9.3088,9.4541,9.4541,9.4086,9.3555,9.4275,9.4086,9.3593,9.4389,9.4667,9.4731,9.4768,9.4819,9.4844,9.4806,9.4806,9.4806,9.4806,9.4806,9.4806,9.4806,9.4806,9.4983,9.5779,9.6031,9.6107,9.6107,9.6713,9.7736,9.9228,9.9531,9.9569,9.9645,9.9683,9.9417,9.8697,9.7926,9.713,9.6334,9.5475,9.4958,9.4958,9.4882,9.4806,9.4806,9.4806,9.4806,9.4806,9.4806,9.4806,9.4806,9.4806,9.5172,9.5917,9.5172,9.4844,9.4958,9.4844,9.4806,9.4806,9.492,9.5779,0.0,0.0,0.0,0.0,0.0,0.0,5.7762,5.9957,6.2208,6.3715,6.6114,6.8525,7.0334,7.1409,7.2671,7.4884,7.5821,7.827,8.414,8.5945,8.6945,8.7638,8.829,8.8718,8.8718,8.8718,8.8611,8.8373,8.7974,8.7715,8.7653,8.7508,8.7459,8.7626,8.7622,8.8028,8.8843,8.8836,8.9259,9.0055,9.0055,9.0131,9.0283,9.0283,9.0283,9.0283,9.0283,9.07,9.1344,9.1344,9.1913,9.2784,9.2784,9.2671,9.2557,9.2709,9.2671,9.2671,9.3555,9.3959,9.417,9.4642,9.4946,9.5082,9.487,9.4806,9.4806,9.4806,9.4806,9.4806,9.4806,9.4806,9.4844,9.5021,9.5589,9.6107,9.6107,9.6713,9.7395,9.7698,9.7774,9.8001,9.8697,9.8849,9.8773,9.8621,9.847,9.8053,9.7168,9.6347,9.5854,9.5854,9.521,9.4806,9.4806,9.4806,9.4806,9.4806,9.4806,9.4806,9.4806,9.4806,9.4882,9.5058,9.4882,9.5134,9.5854,9.5134,9.4806,9.4844,9.5513,9.6372,0.0,0.0,0.0,5.5011,0.0,0.0,0.0,5.8261,5.9512,6.042,6.1991,6.3445,6.4175,6.5009,6.623,6.8185,6.9615,7.1968,7.6204,8.0361,8.3285,8.4132,8.4978,8.5525,8.5525,8.5909,8.6065,8.5825,8.6001,8.6062,8.596,8.6192,8.6343,8.6437,8.6658,8.7006,8.7513,8.7841,8.8426,8.9184,8.9184,8.9411,8.979,8.979,8.979,8.979,8.979,9.0055,9.0434,9.0434,9.07,9.1155,9.195,9.2064,9.1761,9.214,9.2064,9.1875,9.3176,9.3669,9.3894,9.473,9.4996,9.4996,9.4996,9.4908,9.4806,9.4806,9.4806,9.4806,9.4806,9.4806,9.4806,9.4806,9.5134,9.5437,9.5437,9.5779,9.6044,9.6044,9.6044,9.6461,9.7749,9.8318,9.8621,9.8621,9.8621,9.8432,9.8015,9.7206,9.6713,9.6713,9.6309,9.5892,9.5475,9.5437,9.5248,9.4844,9.4806,9.4806,9.4806,9.4806,9.4983,9.5437,9.5854,9.6271,9.6713,9.6271,9.5627,9.4844,9.5703,9.6523,0.0,0.0,0.0,0.0,0.0,5.536,0.0,0.0,0.0,5.7744,5.8431,5.8901,5.8723,5.9288,6.0246,6.1843,6.3397,6.532,6.7898,7.3091,7.746,7.9682,8.0592,8.1162,8.1377,8.2132,8.2537,8.2387,8.3255,8.3702,8.3544,8.4442,8.4942,8.4942,8.5558,8.595,8.6102,8.6796,8.7554,8.8388,8.8398,8.8853,8.9563,8.9611,8.9687,8.979,8.979,8.979,8.979,8.979,8.979,8.9942,9.1306,9.142,9.0927,9.1571,9.142,9.1079,9.2759,9.3391,9.3618,9.4814,9.5045,9.4908,9.507,9.4971,9.4806,9.4806,9.4806,9.4806,9.4806,9.4806,9.4806,9.4806,9.4806,9.4806,9.4806,9.4806,9.4806,9.4806,9.4806,9.5286,9.6789,9.766,9.8166,9.8318,9.8356,9.8432,9.8583,9.7863,9.7357,9.7509,9.7395,9.7016,9.6372,9.6334,9.6044,9.5324,9.5286,9.521,9.5058,9.5058,9.5437,9.6296,9.6978,9.7357,9.7547,9.7357,9.6612,9.5286,9.6196,9.694,0.0,0.0,0.0,0.0,5.7357,0.0,0.0,0.0,5.5707,5.5111,0.0,5.5111,5.5086,0.0,0.0,5.7445,5.8511,6.005,6.2595,6.4243,6.7807,7.4848,7.6306,7.7053,7.7974,7.8651,7.9054,7.9031,8.0331,8.1103,8.1085,8.2987,8.4029,8.4029,8.4685,8.5382,8.6102,8.6178,8.667,8.7554,8.7737,8.8144,8.8729,8.8915,8.9272,8.979,8.979,8.979,8.979,8.979,8.979,8.9828,9.0017,9.0017,8.998,9.0055,9.0017,9.0207,9.1875,9.2604,9.3063,9.4684,9.5167,9.5107,9.4908,9.4832,9.4806,9.4806,9.4806,9.4806,9.4806,9.4806,9.4806,9.4806,9.4806,9.4806,9.4806,9.4806,9.4806,9.4806,9.4806,9.5096,9.6082,9.6296,9.6637,9.7319,9.7433,9.7736,9.8508,9.7863,9.7585,9.8394,9.7736,9.7244,9.7168,9.7168,9.713,9.7016,9.7016,9.6675,9.5955,9.5968,9.6334,9.713,9.7244,9.766,9.847,9.766,9.7206,9.7016,9.7901,9.8356,0.0,0.0,0.0,0.0,0.0,0.0,5.7077,0.0,5.5478,0.0,0.0,0.0,0.0,0.0,0.0,0.0,5.478,5.6049,5.8094,5.9094,6.2142,6.8933,7.0462,7.1525,7.2955,7.3796,7.4244,7.4217,7.6276,7.7916,7.8806,8.1,8.2777,8.4045,8.4236,8.4658,8.5382,8.5382,8.5799,8.6644,8.6848,8.7322,8.8106,8.8665,8.9034,8.931,8.9661,8.979,8.979,8.979,8.979,8.979,8.979,8.9887,9.0017,9.0017,9.0017,9.026,9.1785,9.2366,9.2793,9.461,9.5324,9.5429,9.5286,9.5155,9.5033,9.5033,9.4921,9.4806,9.4806,9.4806,9.4806,9.4806,9.4806,9.4806,9.4806,9.4806,9.4806,9.4806,9.4806,9.4907,9.5286,9.5779,9.622,9.6561,9.6978,9.7622,9.8508,9.828,9.8394,9.9228,9.8962,9.8583,9.8091,9.8053,9.7863,9.7319,9.7281,9.713,9.6789,9.6789,9.7168,9.8053,9.8053,9.847,9.9303,9.8924,9.8759,9.8759,9.8659,9.8621,6.3405,0.0,0.0,0.0,0.0,0.0,0.0,0.0,0.0,0.0,0.0,0.0,0.0,0.0,0.0,0.0,0.0,5.301,5.4472,5.5203,5.7665,6.3212,6.4693,6.5726,6.6924,6.805,6.8779,6.9009,7.17,7.4049,7.5752,7.8633,8.108,8.2909,8.3338,8.3802,8.4271,8.448,8.4859,8.5486,8.5959,8.66,8.7476,8.8341,8.8826,8.9054,8.9664,8.9899,8.9887,8.9814,8.979,8.979,8.9863,9.0043,9.0205,9.0205,9.0212,9.0501,9.1919,9.2707,9.3339,9.4751,9.5356,9.5587,9.552,9.5333,9.5167,9.5107,9.4946,9.4806,9.4806,9.4806,9.4806,9.4806,9.4806,9.4806,9.4806,9.4806,9.4806,9.4806,9.4806,9.4806,9.4806,9.5324,9.5741,9.5741,9.6448,9.7281,9.8129,9.847,9.8924,9.972,9.9796,9.9569,9.9,9.8924,9.8659,9.8053,9.7774,9.766,9.766,9.766,9.7939,9.8583,9.8811,9.9228,9.9796,9.9796,9.9796,9.9796,9.919,9.8924,0.0,0.0,0.0,6.3546,0.0,0.0,0.0,0.0,5.5708,0.0,0.0,0.0,0.0,0.0,0.0,0.0,0.0,0.0,0.0,5.2038,5.3735,5.8209,5.9516,6.0001,5.9865,6.1376,6.276,6.368,6.6779,6.9506,7.1479,7.5849,7.8774,7.9823,8.1709,8.2735,8.2773,8.3356,8.3736,8.3991,8.5047,8.595,8.6752,8.7849,8.8672,8.9301,8.9914,9.0194,9.0182,8.9899,8.979,8.9814,9.0102,9.0205,9.0205,9.0205,9.0323,9.0704,9.2177,9.3771,9.5141,9.5179,9.5356,9.5554,9.5274,9.5191,9.5131,9.4883,9.4806,9.4806,9.4806,9.4806,9.4806,9.4806,9.4806,9.4806,9.4806,9.4806,9.4806,9.4806,9.4806,9.4806,9.4806,9.4844,9.4844,9.4844,9.5589,9.641,9.7244,9.8091,9.8924,9.972,9.9796,9.9796,9.9758,9.9758,9.9758,9.972,9.9,9.8545,9.8545,9.8545,9.8583,9.8621,9.9379,9.9758,9.9796,9.9796,9.9796,9.9796,9.9758,9.9758,0.0,0.0,6.8109,6.6124,0.0,0.0,0.0,0.0,0.0,0.0,0.0,0.0,0.0,0.0,0.0,0.0,0.0,0.0,0.0,5.0625,5.0587,5.1502,5.4361,5.6314,5.6307,5.7369,5.8408,5.9273,6.2134,6.5032,6.7766,7.2096,7.5791,7.8636,8.0429,8.1796,8.2707,8.3432,8.3775,8.3709,8.492,8.5654,8.597,8.7562,8.8414,8.872,8.9762,9.0205,9.0194,8.9899,8.979,8.9802,8.9887,9.0029,9.0228,9.0356,9.0453,9.0725,9.2189,9.3333,9.4237,9.4979,9.5251,9.5333,9.5452,9.5321,9.5167,9.5082,9.4933,9.4806,9.4806,9.4806,9.4806,9.4806,9.4806,9.4806,9.4806,9.4806,9.4806,9.4806,9.4806,9.4806,9.4806,9.4806,9.4983,9.5589,9.593,9.6599,9.7964,9.8432,9.8924,9.972,9.9796,9.9796,9.9796,9.9796,9.9796,9.9796,9.9531,9.9379,9.9379,9.9379,9.9379,9.9379,9.9683,9.9796,9.9796,9.9796,9.9796,9.9796,9.9796,9.9796,7.2641,7.1779,0.0,6.9014,6.6743,0.0,6.3949,0.0,0.0,0.0,0.0,0.0,0.0,0.0,0.0,0.0,0.0,0.0,0.0,4.9745,4.9086,4.8197,5.0818,5.2738,5.2829,5.3855,5.4899,5.577,5.8351,6.1213,6.4189,6.8634,7.2635,7.6047,7.8242,8.0087,8.1556,8.2541,8.3122,8.3421,8.4808,8.5551,8.5667,8.7589,8.8448,8.8506,8.9853,9.0378,9.0279,9.0029,8.9875,8.979,8.979,8.9887,9.0102,9.0312,9.0552,9.0988,9.228,9.3083,9.3783,9.484,9.5191,9.5215,9.5417,9.5359,9.5167,9.5082,9.4933,9.4806,9.4806,9.4806,9.4806,9.4806,9.4806,9.4806,9.4806,9.4806,9.4806,9.4806,9.4806,9.4806,9.4806,9.5058,9.5437,9.6031,9.6334,9.7016,9.8432,9.8849,9.9228,9.9758,9.9796,9.9796,9.9796,9.9796,9.9796,9.9796,9.9796,9.9796,9.9796,9.9796,9.9796,9.9796,9.9796,9.9796,9.9796,9.9796,9.9796,9.9796,9.9796,9.9796]}]]